[[{"header":{"parameterUnit":"m.s-1","parameterCategory":1,"la1":31.0,"la2":29.5877,"lo1":-88.7671,"lo2":-86.6584,"dy":0.0162,"dx":0.0185,"nx":115,"ny":88,"refTime":"2023-06-26T00:00:00:Z","depth":0,"parameterNumber":2,"parameterNumberName":"U-component_of_WINDS"},"data":[0.0,0.0,0.0,0.0,0.0,0.0,0.0,0.0,0.0,0.0,0.0,0.0,0.0,0.0,0.0,0.0,0.0,0.0,0.0,0.0,0.0,0.0,0.0,0.0,0.0,0.0,0.0,0.0,0.0,0.0,0.0,0.0,0.0,0.0,0.0,0.0,0.0,0.0,0.0,0.0,0.0,0.0,0.0,0.0,0.0,0.0,0.0,0.0,0.0,0.0,0.0,0.0,0.0,0.0,0.0,0.0,0.0,0.0,0.0,0.0,0.0,0.0,0.0,0.0,0.0,0.0,0.0,0.0,0.0,0.0,0.0,0.0,0.0,0.0,0.0,0.0,0.0,0.0,0.0,0.0,0.0,0.0,0.0,0.0,0.0,0.0,0.0,0.0,0.0,0.0,0.0,0.0,0.0,0.0,0.0,0.0,0.0,0.0,0.0,0.0,0.0,0.0,0.0,0.0,0.0,0.0,0.0,0.0,0.0,0.0,0.0,0.0,0.0,0.0,0.0,0.0,0.0,0.0,0.0,0.0,0.0,0.0,0.0,0.0,0.0,0.0,0.0,0.0,0.0,0.0,0.0,0.0,0.0,0.0,0.0,0.0,0.0,0.0,0.0,0.0,0.0,0.0,0.0,0.0,0.0,0.0,0.0,0.0,0.0,0.0,0.0,0.0,0.0,0.0,0.0,0.0,0.0,0.0,0.0,0.0,0.0,0.0,0.0,0.0,0.0,0.0,0.0,0.0,0.0,0.0,0.0,0.0,0.0,0.0,0.0,0.0,0.0,0.0,0.0,0.0,0.0,0.0,0.0,0.0,0.0,0.0,0.0,0.0,0.0,0.0,0.0,0.0,0.0,0.0,0.0,0.0,0.0,0.0,0.0,0.0,0.0,0.0,0.0,0.0,0.0,0.0,0.0,0.0,0.0,0.0,0.0,0.0,0.0,0.0,0.0,0.0,0.0,0.0,0.0,0.0,0.0,0.0,0.0,0.0,0.0,0.0,0.0,0.0,0.0,0.0,0.0,0.0,0.0,0.0,0.0,0.0,0.0,0.0,0.0,0.0,0.0,0.0,0.0,0.0,0.0,0.0,0.0,0.0,0.0,0.0,0.0,0.0,0.0,0.0,0.0,0.0,0.0,0.0,0.0,0.0,0.0,0.0,0.0,0.0,0.0,0.0,0.0,0.0,0.0,0.0,0.0,0.0,0.0,0.0,0.0,0.0,0.0,0.0,0.0,0.0,0.0,0.0,0.0,0.0,0.0,0.0,0.0,0.0,0.0,0.0,0.0,0.0,0.0,0.0,0.0,0.0,0.0,0.0,0.0,0.0,0.0,0.0,0.0,0.0,0.0,0.0,0.0,0.0,0.0,0.0,0.0,0.0,0.0,0.0,0.0,0.0,0.0,0.0,0.0,0.0,0.0,0.0,0.0,0.0,0.0,0.0,0.0,0.0,0.0,0.0,0.0,0.0,0.0,0.0,0.0,0.0,0.0,0.0,0.0,0.0,0.0,0.0,0.0,0.0,0.0,0.0,0.0,0.0,0.0,0.0,0.0,0.0,0.0,0.0,0.0,0.0,0.0,0.0,0.0,0.0,0.0,0.0,0.0,0.0,0.0,0.0,0.0,0.0,0.0,0.0,0.0,0.0,0.0,0.0,0.0,0.0,0.0,0.0,0.0,0.0,0.0,0.0,0.0,0.0,0.0,0.0,0.0,0.0,0.0,0.0,0.0,0.0,0.0,0.0,0.0,0.0,0.0,0.0,0.0,0.0,0.0,0.0,0.0,0.0,0.0,0.0,0.0,0.0,0.0,0.0,0.0,0.0,0.0,0.0,0.0,0.0,0.0,0.0,0.0,0.0,0.0,0.0,0.0,0.0,0.0,0.0,0.0,0.0,0.0,0.0,0.0,0.0,0.0,0.0,0.0,0.0,0.0,0.0,0.0,0.0,0.0,0.0,0.0,0.0,0.0,0.0,0.0,0.0,0.0,0.0,0.0,0.0,0.0,0.0,0.0,0.0,0.0,0.0,0.0,0.0,0.0,0.0,0.0,0.0,0.0,0.0,0.0,0.0,0.0,0.0,0.0,0.0,0.0,0.0,0.0,0.0,0.0,0.0,0.0,0.0,0.0,0.0,0.0,0.0,0.0,0.0,0.0,0.0,0.0,0.0,0.0,0.0,0.0,0.0,0.0,0.0,0.0,0.0,0.0,0.0,0.0,0.0,0.0,0.0,0.0,0.0,0.0,0.0,0.0,0.0,0.0,0.0,0.0,0.0,0.0,0.0,0.0,0.0,0.0,0.0,0.0,0.0,0.0,0.0,0.0,0.0,0.0,0.0,0.0,0.0,0.0,0.0,0.0,0.0,0.0,0.0,0.0,0.0,0.0,0.0,0.0,0.0,0.0,0.0,0.0,0.0,0.0,0.0,0.0,0.0,0.0,0.0,0.0,0.0,0.0,0.0,0.0,0.0,0.0,0.0,0.0,0.0,0.0,0.0,0.0,0.0,0.0,0.0,0.0,0.0,0.0,0.0,0.0,0.0,0.0,0.0,0.0,0.0,0.0,0.0,0.0,0.0,0.0,0.0,0.0,0.0,0.0,0.0,0.0,0.0,0.0,0.0,0.0,0.0,0.0,0.0,0.0,0.0,0.0,0.0,0.0,0.0,0.0,0.0,0.0,0.0,0.0,0.0,0.0,0.0,0.0,0.0,0.0,0.0,0.0,0.0,0.0,0.0,0.0,0.0,0.0,0.0,0.0,0.0,0.0,0.0,0.0,0.0,0.0,0.0,0.0,0.0,0.0,0.0,0.0,0.0,0.0,0.0,0.0,0.0,0.0,0.0,0.0,0.0,0.0,0.0,0.0,0.0,0.0,0.0,0.0,0.0,0.0,0.0,0.0,0.0,0.0,0.0,0.0,0.0,0.0,0.0,0.0,0.0,0.0,0.0,0.0,0.0,0.0,0.0,0.0,0.0,0.0,0.0,0.0,0.0,0.0,0.0,0.0,0.0,0.0,0.0,0.0,0.0,0.0,0.0,0.0,0.0,0.0,0.0,0.0,0.0,0.0,0.0,0.0,0.0,0.0,0.0,0.0,0.0,0.0,0.0,0.0,0.0,0.0,0.0,0.0,0.0,0.0,0.0,0.0,0.0,0.0,0.0,0.0,0.0,0.0,0.0,0.0,0.0,0.0,0.0,0.0,0.0,0.0,0.0,0.0,0.0,0.0,0.0,0.0,0.0,0.0,0.0,0.0,0.0,0.0,0.0,0.0,0.0,0.0,0.0,0.0,0.0,0.0,0.0,0.0,0.0,0.0,0.0,0.0,0.0,0.0,0.0,0.0,0.0,0.0,0.0,0.0,0.0,0.0,0.0,0.0,0.0,0.0,0.0,0.0,0.0,0.0,0.0,0.0,0.0,0.0,0.0,0.0,0.0,0.0,0.0,0.0,0.0,0.0,0.0,0.0,0.0,0.0,0.0,0.0,0.0,0.0,0.0,0.0,0.0,0.0,0.0,0.0,0.0,0.0,0.0,0.0,0.0,0.0,0.0,0.0,0.0,0.0,0.0,0.0,0.0,0.0,0.0,0.0,0.0,0.0,0.0,0.0,0.0,0.0,0.0,0.0,0.0,0.0,0.0,0.0,0.0,0.0,0.0,0.0,0.0,0.0,0.0,0.0,0.0,0.0,0.0,0.0,0.0,0.0,0.0,0.0,0.0,0.0,0.0,0.0,0.0,0.0,0.0,0.0,0.0,0.0,0.0,0.0,0.0,0.0,0.0,0.0,0.0,0.0,0.0,0.0,0.0,0.0,0.0,0.0,0.0,0.0,0.0,0.0,0.0,0.0,0.0,0.0,0.0,0.0,0.0,0.0,0.0,0.0,0.0,0.0,0.0,0.0,0.0,0.0,0.0,0.0,0.0,0.0,0.0,0.0,0.0,0.0,0.0,0.0,0.0,0.0,0.0,0.0,0.0,0.0,0.0,0.0,0.0,0.0,0.0,0.0,0.0,0.0,0.0,0.0,0.0,0.0,0.0,0.0,0.0,0.0,0.0,0.0,0.0,0.0,0.0,0.0,0.0,0.0,0.0,0.0,0.0,0.0,0.0,0.0,0.0,0.0,0.0,0.0,0.0,0.0,0.0,0.0,0.0,0.0,0.0,0.0,0.0,0.0,0.0,0.0,0.0,0.0,0.0,0.0,0.0,0.0,0.0,0.0,0.0,0.0,0.0,0.0,0.0,0.0,0.0,0.0,0.0,0.0,0.0,0.0,0.0,-2.3082,0.0,0.0,0.0,0.0,0.0,0.0,0.0,0.0,0.0,0.0,0.0,0.0,0.0,0.0,0.0,0.0,0.0,0.0,0.0,0.0,0.0,0.0,0.0,0.0,0.0,0.0,0.0,0.0,0.0,0.0,0.0,0.0,0.0,0.0,0.0,0.0,0.0,0.0,0.0,0.0,0.0,0.0,0.0,0.0,0.0,0.0,0.0,0.0,0.0,0.0,0.0,0.0,0.0,0.0,0.0,0.0,0.0,0.0,0.0,0.0,0.0,0.0,0.0,0.0,0.0,0.0,0.0,0.0,0.0,0.0,0.0,0.0,0.0,0.0,0.0,0.0,0.0,0.0,0.0,0.0,0.0,0.0,0.0,0.0,0.0,0.0,0.0,0.0,0.0,0.0,0.0,0.0,0.0,0.0,0.0,0.0,0.0,0.0,0.0,0.0,0.0,0.0,0.0,0.0,0.0,0.0,0.0,0.0,0.0,0.0,-2.3797,-2.3782,-2.3213,-2.3,-2.3201,0.0,0.0,0.0,0.0,0.0,0.0,0.0,0.0,0.0,0.0,0.0,0.0,0.0,0.0,0.0,0.0,0.0,0.0,0.0,0.0,0.0,0.0,0.0,0.0,0.0,0.0,0.0,0.0,0.0,0.0,0.0,0.0,0.0,0.0,0.0,0.0,0.0,0.0,0.0,0.0,0.0,0.0,0.0,0.0,0.0,0.0,0.0,0.0,0.0,0.0,0.0,0.0,0.0,0.0,0.0,0.0,0.0,0.0,0.0,0.0,0.0,0.0,0.0,0.0,0.0,0.0,0.0,0.0,0.0,0.0,0.0,0.0,0.0,0.0,0.0,0.0,0.0,0.0,0.0,0.0,0.0,0.0,0.0,0.0,0.0,0.0,0.0,0.0,0.0,0.0,0.0,0.0,0.0,0.0,0.0,0.0,0.0,0.0,0.0,0.0,0.0,0.0,0.0,0.0,0.0,0.0,0.0,0.0,0.0,0.0,0.0,0.0,-2.3369,-2.3169,-2.3356,0.0,0.0,0.0,0.0,0.0,0.0,0.0,0.0,0.0,0.0,0.0,0.0,0.0,0.0,0.0,0.0,0.0,0.0,0.0,0.0,0.0,0.0,0.0,0.0,0.0,0.0,0.0,0.0,0.0,0.0,0.0,0.0,0.0,0.0,0.0,0.0,0.0,0.0,0.0,0.0,0.0,0.0,0.0,0.0,0.0,0.0,0.0,0.0,0.0,0.0,0.0,0.0,0.0,0.0,0.0,0.0,0.0,0.0,0.0,0.0,0.0,0.0,0.0,0.0,0.0,0.0,0.0,0.0,0.0,0.0,0.0,0.0,0.0,0.0,0.0,0.0,0.0,0.0,0.0,0.0,0.0,0.0,0.0,0.0,0.0,0.0,0.0,0.0,0.0,0.0,0.0,0.0,0.0,0.0,0.0,0.0,0.0,0.0,0.0,0.0,0.0,0.0,0.0,0.0,0.0,0.0,0.0,0.0,0.0,0.0,-2.498,-2.4447,-2.3899,0.0,-2.3488,0.0,0.0,0.0,0.0,0.0,0.0,0.0,0.0,0.0,0.0,0.0,0.0,0.0,0.0,0.0,0.0,0.0,0.0,0.0,0.0,0.0,0.0,0.0,0.0,0.0,0.0,0.0,0.0,0.0,0.0,0.0,0.0,0.0,0.0,0.0,0.0,0.0,0.0,0.0,0.0,0.0,0.0,0.0,0.0,0.0,0.0,0.0,0.0,0.0,0.0,0.0,0.0,0.0,0.0,0.0,0.0,0.0,0.0,0.0,0.0,0.0,0.0,0.0,0.0,0.0,0.0,0.0,0.0,0.0,0.0,0.0,0.0,0.0,0.0,0.0,0.0,0.0,0.0,0.0,0.0,0.0,0.0,0.0,0.0,0.0,0.0,0.0,0.0,0.0,0.0,0.0,0.0,0.0,0.0,0.0,0.0,0.0,0.0,0.0,0.0,0.0,0.0,0.0,0.0,0.0,0.0,0.0,0.0,0.0,0.0,-2.5166,-2.4924,-2.4211,-2.3725,0.0,0.0,0.0,0.0,0.0,0.0,0.0,0.0,0.0,0.0,0.0,0.0,0.0,0.0,0.0,0.0,0.0,0.0,0.0,0.0,0.0,0.0,0.0,0.0,0.0,0.0,0.0,0.0,0.0,0.0,0.0,0.0,0.0,0.0,0.0,0.0,0.0,0.0,0.0,0.0,0.0,0.0,0.0,0.0,0.0,0.0,0.0,0.0,0.0,0.0,0.0,0.0,0.0,0.0,0.0,0.0,0.0,0.0,0.0,0.0,0.0,0.0,0.0,0.0,0.0,0.0,0.0,0.0,0.0,0.0,0.0,0.0,0.0,0.0,0.0,0.0,0.0,0.0,0.0,0.0,0.0,0.0,0.0,0.0,0.0,0.0,0.0,0.0,0.0,0.0,0.0,0.0,0.0,0.0,0.0,0.0,0.0,0.0,0.0,0.0,0.0,0.0,0.0,0.0,0.0,0.0,0.0,0.0,0.0,0.0,-2.5538,-2.5348,-2.5225,-2.4291,-2.3766,-2.3703,0.0,0.0,0.0,0.0,0.0,0.0,0.0,0.0,0.0,0.0,0.0,0.0,0.0,0.0,0.0,0.0,0.0,0.0,0.0,0.0,0.0,0.0,0.0,0.0,0.0,0.0,0.0,0.0,0.0,0.0,0.0,0.0,0.0,0.0,0.0,0.0,0.0,0.0,0.0,0.0,0.0,0.0,0.0,0.0,0.0,0.0,0.0,0.0,0.0,0.0,0.0,0.0,0.0,0.0,0.0,0.0,0.0,0.0,0.0,0.0,0.0,0.0,0.0,0.0,0.0,0.0,0.0,0.0,0.0,0.0,0.0,0.0,0.0,0.0,0.0,0.0,0.0,0.0,0.0,0.0,0.0,0.0,0.0,0.0,0.0,0.0,0.0,0.0,0.0,0.0,0.0,0.0,0.0,0.0,0.0,0.0,0.0,0.0,0.0,0.0,0.0,0.0,0.0,0.0,0.0,0.0,0.0,0.0,-2.5702,-2.5797,-2.5705,-2.5386,-2.4193,-2.3706,0.0,0.0,0.0,0.0,0.0,0.0,0.0,0.0,0.0,0.0,0.0,0.0,0.0,0.0,0.0,0.0,0.0,0.0,0.0,0.0,0.0,0.0,0.0,0.0,0.0,0.0,0.0,0.0,0.0,0.0,0.0,0.0,0.0,0.0,0.0,0.0,0.0,0.0,0.0,0.0,0.0,0.0,0.0,0.0,0.0,0.0,0.0,0.0,0.0,0.0,0.0,0.0,0.0,0.0,0.0,0.0,0.0,0.0,0.0,0.0,0.0,0.0,0.0,0.0,0.0,0.0,0.0,0.0,0.0,0.0,0.0,0.0,0.0,0.0,0.0,0.0,0.0,0.0,0.0,0.0,0.0,0.0,0.0,0.0,0.0,0.0,0.0,0.0,0.0,0.0,0.0,0.0,0.0,0.0,0.0,0.0,0.0,0.0,0.0,0.0,0.0,0.0,0.0,0.0,0.0,0.0,0.0,0.0,0.0,-2.5702,-2.5811,-2.5747,-2.54,-2.4955,-2.4562,0.0,0.0,0.0,0.0,0.0,0.0,0.0,0.0,0.0,0.0,0.0,0.0,0.0,0.0,0.0,0.0,0.0,0.0,0.0,0.0,0.0,0.0,0.0,0.0,0.0,0.0,0.0,0.0,0.0,0.0,0.0,0.0,0.0,0.0,0.0,0.0,0.0,0.0,0.0,0.0,0.0,0.0,0.0,0.0,0.0,0.0,0.0,0.0,0.0,0.0,0.0,0.0,0.0,0.0,0.0,0.0,0.0,0.0,0.0,0.0,0.0,0.0,0.0,0.0,0.0,0.0,0.0,0.0,0.0,0.0,0.0,0.0,0.0,0.0,0.0,0.0,0.0,0.0,0.0,0.0,0.0,0.0,0.0,0.0,0.0,0.0,0.0,0.0,0.0,0.0,0.0,0.0,0.0,0.0,0.0,0.0,0.0,0.0,0.0,0.0,0.0,0.0,0.0,0.0,0.0,0.0,0.0,0.0,0.0,-2.5757,0.0,-2.5832,-2.57,-2.5512,-2.5124,0.0,0.0,0.0,0.0,0.0,0.0,0.0,0.0,0.0,0.0,0.0,0.0,0.0,0.0,0.0,0.0,0.0,0.0,0.0,0.0,0.0,0.0,0.0,0.0,0.0,0.0,0.0,0.0,0.0,0.0,0.0,0.0,0.0,0.0,0.0,0.0,0.0,0.0,0.0,0.0,0.0,0.0,0.0,0.0,0.0,0.0,0.0,0.0,0.0,0.0,0.0,0.0,0.0,0.0,0.0,0.0,0.0,0.0,0.0,0.0,0.0,0.0,0.0,0.0,0.0,0.0,0.0,0.0,0.0,0.0,0.0,0.0,0.0,0.0,0.0,0.0,0.0,0.0,0.0,0.0,0.0,0.0,0.0,0.0,0.0,0.0,0.0,0.0,0.0,0.0,0.0,0.0,0.0,0.0,0.0,0.0,0.0,0.0,0.0,0.0,0.0,0.0,0.0,0.0,0.0,0.0,0.0,0.0,-2.5647,-2.588,-2.5921,-2.6072,-2.6272,-2.5783,-2.5384,0.0,0.0,0.0,0.0,0.0,0.0,0.0,0.0,0.0,0.0,0.0,0.0,0.0,0.0,0.0,0.0,0.0,0.0,0.0,0.0,0.0,0.0,0.0,0.0,0.0,0.0,0.0,0.0,0.0,0.0,0.0,0.0,0.0,0.0,0.0,0.0,0.0,0.0,0.0,0.0,0.0,0.0,0.0,0.0,0.0,0.0,0.0,0.0,0.0,0.0,0.0,0.0,0.0,0.0,0.0,0.0,0.0,0.0,0.0,0.0,0.0,0.0,0.0,0.0,0.0,0.0,0.0,0.0,0.0,0.0,0.0,0.0,0.0,0.0,0.0,0.0,0.0,0.0,0.0,0.0,0.0,0.0,0.0,0.0,0.0,0.0,0.0,0.0,0.0,0.0,0.0,0.0,0.0,0.0,0.0,0.0,0.0,0.0,0.0,0.0,0.0,0.0,0.0,0.0,0.0,0.0,0.0,0.0,0.0,-2.6498,-2.6526,-2.6665,-2.6969,-2.6879,-2.6541,0.0,0.0,0.0,0.0,0.0,0.0,0.0,0.0,0.0,0.0,0.0,0.0,0.0,0.0,0.0,0.0,0.0,0.0,0.0,0.0,0.0,0.0,0.0,0.0,0.0,0.0,0.0,0.0,0.0,0.0,0.0,0.0,0.0,0.0,0.0,0.0,0.0,0.0,0.0,0.0,0.0,0.0,0.0,0.0,0.0,0.0,0.0,0.0,0.0,0.0,0.0,0.0,0.0,0.0,0.0,0.0,0.0,0.0,0.0,0.0,0.0,0.0,0.0,0.0,0.0,0.0,0.0,0.0,0.0,0.0,0.0,0.0,0.0,0.0,0.0,0.0,0.0,0.0,0.0,0.0,0.0,0.0,0.0,0.0,0.0,0.0,0.0,0.0,0.0,0.0,0.0,0.0,0.0,0.0,0.0,0.0,0.0,0.0,0.0,0.0,0.0,0.0,0.0,0.0,0.0,0.0,0.0,0.0,0.0,-2.7466,-2.7284,-2.7343,-2.7654,-2.7564,-2.7202,-2.6571,0.0,0.0,0.0,0.0,0.0,0.0,0.0,0.0,0.0,0.0,0.0,0.0,0.0,0.0,0.0,0.0,0.0,0.0,0.0,0.0,0.0,0.0,0.0,0.0,0.0,0.0,0.0,0.0,0.0,0.0,0.0,0.0,0.0,0.0,0.0,0.0,0.0,0.0,0.0,0.0,0.0,0.0,0.0,0.0,0.0,0.0,0.0,0.0,0.0,0.0,0.0,0.0,0.0,0.0,0.0,0.0,0.0,0.0,0.0,0.0,0.0,0.0,0.0,0.0,0.0,0.0,0.0,0.0,0.0,0.0,0.0,0.0,0.0,0.0,0.0,0.0,0.0,0.0,0.0,0.0,0.0,0.0,0.0,0.0,0.0,0.0,0.0,0.0,0.0,0.0,0.0,0.0,0.0,0.0,0.0,0.0,0.0,0.0,0.0,0.0,0.0,0.0,0.0,0.0,0.0,0.0,0.0,0.0,-2.8675,-2.8185,-2.8022,-2.8211,-2.7822,-2.7434,0.0,0.0,0.0,0.0,0.0,0.0,0.0,0.0,0.0,0.0,0.0,0.0,0.0,0.0,0.0,0.0,0.0,0.0,0.0,0.0,0.0,0.0,0.0,0.0,0.0,0.0,0.0,0.0,0.0,0.0,0.0,0.0,0.0,0.0,0.0,0.0,0.0,0.0,0.0,0.0,0.0,0.0,0.0,0.0,0.0,0.0,0.0,0.0,0.0,0.0,0.0,0.0,0.0,0.0,0.0,0.0,0.0,0.0,0.0,0.0,0.0,0.0,0.0,0.0,0.0,0.0,0.0,0.0,0.0,0.0,0.0,0.0,0.0,0.0,0.0,0.0,0.0,0.0,0.0,0.0,0.0,0.0,0.0,0.0,0.0,0.0,0.0,0.0,0.0,0.0,0.0,0.0,0.0,0.0,0.0,0.0,0.0,0.0,0.0,0.0,0.0,0.0,0.0,0.0,0.0,0.0,0.0,0.0,0.0,-2.8661,-2.9064,-2.9144,-2.8868,-2.8597,-2.8265,0.0,0.0,0.0,0.0,0.0,0.0,0.0,0.0,0.0,0.0,0.0,0.0,0.0,0.0,0.0,0.0,0.0,0.0,0.0,0.0,0.0,0.0,0.0,0.0,0.0,0.0,0.0,0.0,0.0,0.0,0.0,0.0,0.0,0.0,0.0,0.0,0.0,0.0,0.0,0.0,0.0,0.0,0.0,0.0,0.0,0.0,0.0,0.0,0.0,0.0,0.0,0.0,0.0,0.0,0.0,0.0,0.0,0.0,0.0,0.0,0.0,0.0,0.0,0.0,0.0,0.0,0.0,0.0,0.0,0.0,0.0,0.0,0.0,0.0,0.0,0.0,0.0,0.0,0.0,0.0,0.0,0.0,0.0,0.0,0.0,0.0,0.0,0.0,0.0,0.0,0.0,0.0,0.0,0.0,0.0,0.0,0.0,0.0,0.0,0.0,0.0,0.0,0.0,0.0,0.0,0.0,0.0,0.0,-2.805,-2.9118,-2.9683,-2.9881,-2.9705,-2.9116,-2.8728,0.0,0.0,0.0,0.0,0.0,0.0,0.0,0.0,0.0,0.0,0.0,0.0,0.0,0.0,0.0,0.0,0.0,0.0,0.0,0.0,0.0,0.0,0.0,0.0,0.0,0.0,0.0,0.0,0.0,0.0,0.0,0.0,0.0,0.0,0.0,0.0,0.0,0.0,0.0,0.0,0.0,0.0,0.0,0.0,0.0,0.0,0.0,0.0,0.0,0.0,0.0,0.0,0.0,0.0,0.0,0.0,0.0,0.0,0.0,0.0,0.0,0.0,0.0,0.0,0.0,0.0,0.0,0.0,0.0,0.0,0.0,0.0,0.0,0.0,0.0,0.0,0.0,0.0,0.0,0.0,0.0,0.0,0.0,0.0,0.0,0.0,0.0,0.0,0.0,0.0,0.0,0.0,0.0,0.0,0.0,0.0,0.0,0.0,0.0,0.0,0.0,0.0,0.0,0.0,0.0,0.0,0.0,0.0,-2.8264,-2.978,-3.0021,-3.0294,-3.0539,-2.9536,-2.899,0.0,0.0,0.0,0.0,0.0,0.0,0.0,0.0,0.0,0.0,0.0,0.0,0.0,0.0,0.0,0.0,0.0,0.0,0.0,0.0,0.0,0.0,0.0,0.0,0.0,0.0,0.0,0.0,0.0,0.0,0.0,0.0,0.0,0.0,0.0,0.0,0.0,0.0,0.0,0.0,0.0,0.0,0.0,0.0,0.0,0.0,0.0,0.0,0.0,0.0,0.0,0.0,0.0,0.0,0.0,0.0,0.0,0.0,0.0,0.0,0.0,0.0,0.0,0.0,0.0,0.0,0.0,0.0,0.0,0.0,0.0,0.0,0.0,0.0,0.0,0.0,0.0,0.0,0.0,0.0,0.0,0.0,0.0,0.0,0.0,0.0,0.0,0.0,0.0,0.0,0.0,0.0,0.0,0.0,0.0,0.0,0.0,0.0,0.0,0.0,0.0,0.0,0.0,0.0,0.0,0.0,0.0,0.0,-2.8502,-2.9766,-3.0266,-3.0522,-3.0612,-3.0104,-2.9658,0.0,0.0,0.0,0.0,0.0,0.0,0.0,0.0,0.0,0.0,0.0,0.0,0.0,0.0,0.0,0.0,0.0,0.0,0.0,0.0,0.0,0.0,0.0,0.0,0.0,0.0,0.0,0.0,0.0,0.0,0.0,0.0,0.0,0.0,0.0,0.0,0.0,0.0,0.0,0.0,0.0,0.0,0.0,0.0,0.0,0.0,0.0,0.0,-2.9305,0.0,0.0,0.0,0.0,0.0,0.0,0.0,0.0,0.0,0.0,0.0,0.0,0.0,0.0,0.0,0.0,0.0,0.0,0.0,0.0,0.0,0.0,0.0,0.0,0.0,0.0,0.0,0.0,0.0,0.0,0.0,0.0,0.0,0.0,0.0,0.0,0.0,0.0,0.0,0.0,0.0,0.0,0.0,0.0,0.0,0.0,0.0,0.0,0.0,0.0,0.0,0.0,0.0,0.0,0.0,0.0,0.0,0.0,0.0,-2.8709,-3.0147,-3.0447,-3.0717,-3.0925,-3.0763,-3.0242,0.0,0.0,0.0,0.0,0.0,0.0,0.0,0.0,0.0,0.0,0.0,0.0,0.0,0.0,0.0,0.0,0.0,0.0,0.0,0.0,0.0,0.0,0.0,0.0,0.0,0.0,0.0,0.0,0.0,0.0,0.0,0.0,0.0,0.0,0.0,0.0,0.0,0.0,0.0,0.0,0.0,0.0,0.0,0.0,0.0,0.0,0.0,0.0,0.0,0.0,0.0,0.0,0.0,0.0,0.0,0.0,0.0,0.0,0.0,0.0,0.0,0.0,0.0,0.0,0.0,0.0,0.0,0.0,0.0,0.0,0.0,0.0,0.0,0.0,0.0,0.0,0.0,0.0,0.0,0.0,0.0,0.0,0.0,0.0,0.0,0.0,0.0,0.0,0.0,0.0,0.0,0.0,0.0,0.0,0.0,0.0,0.0,0.0,0.0,0.0,0.0,0.0,0.0,0.0,0.0,0.0,0.0,-2.8082,-2.8899,-3.051,-3.0687,-3.0925,-3.1307,-3.1351,-3.0769,-2.9446,0.0,0.0,0.0,0.0,0.0,0.0,0.0,0.0,0.0,0.0,0.0,0.0,0.0,0.0,0.0,0.0,0.0,0.0,0.0,0.0,0.0,0.0,0.0,0.0,0.0,0.0,0.0,0.0,0.0,0.0,0.0,0.0,0.0,0.0,0.0,0.0,0.0,0.0,-2.8255,-2.9437,0.0,0.0,0.0,0.0,0.0,0.0,0.0,0.0,-2.919,0.0,0.0,0.0,0.0,0.0,0.0,0.0,0.0,0.0,0.0,0.0,0.0,0.0,0.0,0.0,0.0,0.0,0.0,0.0,0.0,0.0,0.0,0.0,0.0,0.0,0.0,0.0,0.0,0.0,0.0,0.0,0.0,0.0,0.0,0.0,0.0,0.0,0.0,0.0,0.0,0.0,0.0,0.0,0.0,0.0,0.0,0.0,0.0,0.0,0.0,0.0,0.0,0.0,0.0,0.0,0.0,-2.801,-2.8383,-2.9218,-3.0554,-3.1087,-3.1364,-3.1451,-3.164,-3.1095,-2.9801,0.0,0.0,0.0,0.0,0.0,0.0,0.0,0.0,0.0,0.0,0.0,0.0,0.0,0.0,0.0,0.0,0.0,0.0,0.0,0.0,0.0,0.0,0.0,0.0,0.0,0.0,0.0,0.0,0.0,0.0,0.0,0.0,0.0,0.0,0.0,0.0,0.0,0.0,0.0,-2.999,-3.0354,0.0,0.0,0.0,0.0,0.0,0.0,0.0,0.0,-2.916,0.0,0.0,0.0,0.0,0.0,0.0,0.0,0.0,0.0,0.0,0.0,0.0,0.0,0.0,0.0,0.0,0.0,0.0,0.0,0.0,0.0,0.0,0.0,0.0,0.0,0.0,0.0,0.0,0.0,0.0,0.0,0.0,0.0,0.0,0.0,0.0,0.0,0.0,0.0,0.0,0.0,0.0,0.0,0.0,0.0,0.0,0.0,0.0,0.0,0.0,0.0,0.0,0.0,0.0,0.0,-2.8311,-2.8652,-2.9505,-3.0911,-3.1321,-3.1495,-3.1509,-3.1683,-3.1123,0.0,0.0,0.0,0.0,0.0,0.0,0.0,0.0,0.0,0.0,0.0,0.0,0.0,0.0,0.0,0.0,0.0,0.0,0.0,0.0,0.0,0.0,0.0,0.0,0.0,0.0,0.0,0.0,0.0,0.0,0.0,0.0,0.0,0.0,0.0,0.0,0.0,0.0,0.0,0.0,-3.0212,-3.0631,-3.0952,0.0,0.0,0.0,0.0,0.0,0.0,-2.9013,-2.899,0.0,0.0,0.0,0.0,0.0,0.0,0.0,0.0,0.0,0.0,0.0,0.0,0.0,0.0,0.0,0.0,0.0,0.0,0.0,0.0,0.0,0.0,0.0,0.0,0.0,0.0,0.0,0.0,0.0,0.0,0.0,0.0,0.0,0.0,0.0,0.0,0.0,0.0,0.0,0.0,0.0,0.0,0.0,0.0,0.0,0.0,0.0,0.0,0.0,0.0,0.0,0.0,0.0,0.0,0.0,-2.8651,-2.8918,-2.976,-3.1247,-3.1481,-3.1567,-3.1568,-3.1712,-3.1138,0.0,0.0,0.0,0.0,0.0,0.0,0.0,0.0,0.0,0.0,0.0,0.0,0.0,0.0,0.0,0.0,0.0,0.0,0.0,0.0,0.0,0.0,0.0,0.0,0.0,0.0,0.0,0.0,0.0,0.0,0.0,0.0,0.0,0.0,0.0,0.0,0.0,0.0,0.0,0.0,0.0,-3.0824,-3.112,-3.1519,0.0,0.0,0.0,0.0,-2.9509,-2.9234,0.0,0.0,0.0,0.0,0.0,0.0,0.0,0.0,0.0,0.0,0.0,0.0,0.0,0.0,0.0,0.0,0.0,0.0,0.0,0.0,0.0,0.0,0.0,0.0,0.0,0.0,0.0,0.0,0.0,0.0,0.0,0.0,0.0,0.0,0.0,0.0,0.0,0.0,0.0,0.0,0.0,0.0,0.0,0.0,0.0,0.0,0.0,0.0,0.0,0.0,0.0,0.0,0.0,0.0,0.0,0.0,-2.8651,-2.9112,-2.9971,-3.1232,-3.1597,-3.1756,-3.1756,-3.1799,-3.1151,0.0,0.0,0.0,0.0,0.0,0.0,0.0,0.0,0.0,0.0,0.0,0.0,0.0,0.0,0.0,0.0,0.0,0.0,0.0,0.0,0.0,0.0,0.0,0.0,0.0,0.0,0.0,0.0,0.0,0.0,0.0,0.0,0.0,0.0,0.0,0.0,0.0,0.0,0.0,0.0,0.0,-3.0943,-3.2199,-3.1935,-3.1616,0.0,0.0,0.0,-3.0619,-3.0089,0.0,0.0,0.0,0.0,0.0,0.0,0.0,0.0,0.0,0.0,0.0,0.0,0.0,0.0,0.0,0.0,0.0,0.0,0.0,0.0,0.0,0.0,0.0,0.0,0.0,0.0,0.0,0.0,0.0,0.0,0.0,0.0,0.0,0.0,0.0,0.0,0.0,0.0,0.0,0.0,0.0,0.0,0.0,0.0,0.0,0.0,0.0,0.0,0.0,0.0,0.0,0.0,0.0,0.0,0.0,-2.7618,-2.8983,-2.9332,-3.0125,-3.1349,-3.167,-3.1742,-3.1626,-3.1742,-3.1123,0.0,0.0,0.0,0.0,0.0,0.0,0.0,0.0,0.0,0.0,0.0,0.0,0.0,0.0,0.0,0.0,0.0,0.0,0.0,0.0,0.0,0.0,0.0,0.0,0.0,0.0,0.0,0.0,0.0,0.0,0.0,0.0,0.0,0.0,0.0,0.0,0.0,0.0,0.0,0.0,0.0,0.0,-3.1954,-3.1931,0.0,0.0,0.0,-3.1042,-3.0732,0.0,0.0,0.0,0.0,0.0,0.0,0.0,0.0,0.0,0.0,0.0,0.0,0.0,0.0,0.0,0.0,0.0,0.0,0.0,0.0,0.0,0.0,0.0,0.0,0.0,0.0,0.0,0.0,0.0,0.0,0.0,0.0,0.0,0.0,0.0,0.0,0.0,0.0,0.0,0.0,0.0,0.0,0.0,0.0,0.0,0.0,0.0,0.0,0.0,0.0,0.0,0.0,0.0,0.0,0.0,0.0,0.0,-2.9285,-2.951,-3.0208,-3.1451,-3.1655,-3.1641,-3.1496,-3.1626,0.0,0.0,0.0,0.0,0.0,0.0,0.0,0.0,0.0,0.0,0.0,0.0,0.0,0.0,0.0,0.0,0.0,0.0,0.0,0.0,0.0,0.0,0.0,0.0,0.0,0.0,0.0,-2.7181,0.0,0.0,0.0,0.0,0.0,0.0,0.0,0.0,0.0,0.0,0.0,0.0,0.0,0.0,-3.0733,-3.1433,-3.1697,-3.1702,0.0,0.0,-3.1355,-3.1061,-3.0299,-2.9743,0.0,0.0,0.0,0.0,0.0,0.0,0.0,0.0,0.0,0.0,0.0,0.0,0.0,0.0,0.0,0.0,0.0,0.0,0.0,0.0,0.0,0.0,0.0,0.0,0.0,0.0,0.0,0.0,0.0,0.0,0.0,0.0,0.0,0.0,0.0,0.0,0.0,0.0,0.0,0.0,0.0,0.0,0.0,0.0,0.0,0.0,0.0,0.0,0.0,0.0,0.0,0.0,0.0,0.0,0.0,-2.9342,-2.9525,-3.0208,-3.1451,-3.1511,-3.1496,-3.1496,-3.1511,-3.0926,0.0,0.0,0.0,0.0,0.0,0.0,0.0,0.0,0.0,0.0,0.0,0.0,0.0,0.0,0.0,0.0,0.0,0.0,0.0,0.0,0.0,0.0,0.0,0.0,0.0,0.0,0.0,0.0,0.0,0.0,0.0,0.0,0.0,0.0,0.0,0.0,0.0,0.0,0.0,0.0,0.0,-3.0147,-3.094,-3.1204,-3.1408,0.0,0.0,-3.1762,-3.2053,-3.1006,-3.0206,-3.0325,0.0,0.0,0.0,0.0,0.0,0.0,0.0,0.0,0.0,0.0,0.0,0.0,0.0,0.0,0.0,0.0,0.0,0.0,0.0,0.0,0.0,0.0,0.0,0.0,0.0,0.0,0.0,0.0,0.0,0.0,0.0,0.0,0.0,0.0,0.0,0.0,0.0,0.0,0.0,0.0,0.0,0.0,0.0,0.0,0.0,0.0,0.0,0.0,0.0,0.0,0.0,0.0,0.0,-2.8092,-2.9495,-2.9579,-3.0223,-3.1436,-3.1496,-3.1496,-3.1496,-3.1496,-3.1077,0.0,0.0,0.0,0.0,0.0,0.0,0.0,0.0,0.0,0.0,0.0,0.0,0.0,0.0,0.0,0.0,0.0,0.0,0.0,0.0,0.0,0.0,0.0,0.0,0.0,0.0,0.0,0.0,-2.6056,-2.5811,-2.573,0.0,0.0,0.0,0.0,0.0,0.0,0.0,0.0,0.0,0.0,-3.0203,-3.051,-3.0807,0.0,0.0,-3.1379,-3.1503,-3.1293,-3.0651,-3.0103,-2.9823,-2.9002,0.0,0.0,0.0,0.0,0.0,0.0,0.0,0.0,0.0,0.0,0.0,0.0,0.0,0.0,0.0,0.0,0.0,0.0,0.0,0.0,0.0,0.0,0.0,0.0,0.0,0.0,0.0,0.0,0.0,0.0,0.0,0.0,0.0,0.0,0.0,0.0,0.0,0.0,0.0,0.0,0.0,0.0,0.0,0.0,0.0,0.0,0.0,0.0,0.0,0.0,0.0,0.0,-2.8379,-2.9579,-2.9774,-3.0387,-3.1481,-3.1496,-3.1496,-3.1496,-3.1496,-3.1197,0.0,0.0,0.0,0.0,0.0,0.0,0.0,0.0,0.0,0.0,0.0,0.0,0.0,0.0,0.0,0.0,0.0,0.0,0.0,0.0,0.0,0.0,0.0,0.0,0.0,0.0,0.0,0.0,-2.5702,-2.5439,-2.5257,0.0,0.0,0.0,0.0,0.0,0.0,0.0,0.0,0.0,0.0,-3.0113,-3.0146,-3.0387,-3.0627,-3.0732,-3.0866,-3.0917,-3.0681,-3.0182,-2.973,-2.9413,0.0,0.0,0.0,0.0,0.0,0.0,0.0,0.0,0.0,0.0,0.0,0.0,0.0,0.0,0.0,0.0,0.0,0.0,0.0,0.0,0.0,0.0,0.0,0.0,0.0,0.0,0.0,0.0,0.0,0.0,0.0,0.0,0.0,0.0,0.0,0.0,0.0,0.0,0.0,0.0,0.0,0.0,0.0,0.0,0.0,0.0,0.0,0.0,0.0,0.0,0.0,0.0,0.0,0.0,-2.9606,-3.0148,-3.0821,-3.1466,-3.1496,-3.1496,-3.1496,-3.1496,-3.1182,-3.0522,0.0,0.0,0.0,0.0,0.0,0.0,0.0,0.0,0.0,0.0,0.0,0.0,0.0,0.0,0.0,0.0,0.0,0.0,0.0,0.0,0.0,0.0,0.0,0.0,0.0,0.0,-2.5688,-2.5286,-2.492,0.0,0.0,0.0,0.0,0.0,0.0,0.0,0.0,0.0,0.0,-2.9103,-2.9651,-2.9777,-2.9991,-3.0233,-3.0552,-3.0178,-3.0013,-3.0451,-2.9716,-2.9073,0.0,0.0,0.0,0.0,0.0,0.0,0.0,0.0,0.0,0.0,0.0,0.0,0.0,0.0,0.0,0.0,0.0,0.0,0.0,0.0,0.0,0.0,0.0,0.0,0.0,0.0,0.0,0.0,-2.4407,0.0,0.0,0.0,0.0,0.0,0.0,0.0,0.0,0.0,0.0,0.0,-2.6451,-2.663,0.0,0.0,0.0,0.0,0.0,0.0,0.0,0.0,0.0,0.0,0.0,0.0,-2.8921,-2.9606,-3.0193,-3.0836,-3.1481,-3.1496,-3.1496,-3.1496,-3.1496,-3.1182,-3.0522,0.0,0.0,0.0,0.0,0.0,0.0,0.0,0.0,0.0,0.0,0.0,0.0,0.0,0.0,0.0,0.0,0.0,0.0,0.0,0.0,0.0,0.0,0.0,0.0,0.0,-2.523,0.0,0.0,0.0,0.0,0.0,0.0,0.0,0.0,0.0,0.0,0.0,-2.7999,-2.8761,-2.9087,-2.932,-2.9526,-2.9665,-2.9896,0.0,0.0,0.0,0.0,0.0,0.0,0.0,0.0,0.0,0.0,0.0,0.0,0.0,0.0,-2.9801,-2.9786,-2.9921,-3.0055,-3.0154,0.0,0.0,0.0,0.0,0.0,0.0,0.0,0.0,0.0,0.0,0.0,0.0,0.0,0.0,0.0,0.0,-2.5346,0.0,0.0,0.0,0.0,0.0,0.0,0.0,0.0,-2.6185,-2.6668,-2.72,-2.7321,-2.7547,0.0,-2.741,-2.6946,0.0,0.0,0.0,0.0,0.0,0.0,0.0,0.0,-2.9187,-2.9636,-3.0417,-3.1047,-3.1481,-3.1496,-3.1496,-3.1496,-3.1496,-3.1182,-3.0522,-3.0118,-2.9505,0.0,0.0,0.0,0.0,0.0,0.0,0.0,0.0,0.0,0.0,0.0,0.0,0.0,0.0,0.0,0.0,0.0,0.0,0.0,0.0,0.0,0.0,0.0,-2.4765,0.0,0.0,0.0,0.0,0.0,0.0,0.0,0.0,0.0,-2.6829,-2.7435,-2.8115,-2.8889,-2.8972,-2.9067,-2.9257,0.0,0.0,0.0,0.0,0.0,0.0,0.0,-3.0536,-3.0201,-3.0282,-3.0463,-3.0694,-3.0766,-3.0828,-3.1074,0.0,0.0,-3.0479,-3.0516,-3.0629,-3.0766,-3.1095,-3.147,-3.1843,-3.2476,-3.3056,0.0,0.0,0.0,0.0,0.0,0.0,0.0,0.0,-2.6641,-2.659,0.0,-2.6015,0.0,0.0,0.0,0.0,0.0,0.0,0.0,0.0,-2.7087,-2.7799,-2.7927,-2.7971,-2.8232,-2.8675,-2.8248,-2.824,-2.8579,-2.682,0.0,0.0,0.0,0.0,0.0,0.0,-2.9636,-2.9696,-3.0853,-3.1496,-3.1496,-3.1496,-3.1496,-3.1496,-3.1496,-3.1182,-3.0582,-3.0522,-2.9924,-2.8727,-2.8622,0.0,0.0,0.0,0.0,0.0,0.0,0.0,0.0,0.0,0.0,0.0,0.0,0.0,0.0,0.0,0.0,0.0,0.0,0.0,0.0,-2.4776,0.0,0.0,0.0,0.0,0.0,0.0,0.0,0.0,0.0,0.0,-2.6603,-2.7255,-2.7967,-2.868,0.0,0.0,0.0,0.0,-2.9463,-2.9747,-2.9704,-2.9755,-3.0102,-3.0116,-3.0099,-3.0099,0.0,0.0,-3.132,-3.1439,-3.1613,-3.2259,-3.2321,-3.1997,-3.0725,-3.0629,-3.0768,-3.0906,-3.1534,-3.2106,-3.2466,-3.302,-3.3559,-2.7499,0.0,0.0,0.0,0.0,-2.6926,-2.7117,-2.7131,-2.712,-2.7106,-2.697,-2.682,0.0,0.0,0.0,0.0,0.0,0.0,-2.6766,-2.7141,-2.7622,-2.8083,-2.8538,-2.8917,-2.9212,-2.9321,-2.9093,-2.9117,-2.9305,-2.8554,-2.8139,-2.8058,0.0,0.0,0.0,0.0,-3.0253,-3.0283,-3.1062,-3.1496,-3.1496,-3.1496,-3.1496,-3.1496,-3.1496,-3.1421,-3.1212,-3.0733,-3.0342,-2.9968,-2.9086,0.0,0.0,0.0,0.0,0.0,0.0,0.0,0.0,0.0,0.0,0.0,0.0,0.0,0.0,0.0,0.0,0.0,0.0,0.0,-2.5149,-2.507,-2.4968,0.0,0.0,0.0,0.0,0.0,0.0,0.0,0.0,0.0,-2.6821,-2.7554,-2.8209,0.0,0.0,-2.8716,-2.8876,-2.9067,-2.9338,-2.9747,0.0,0.0,0.0,-3.1034,-3.1265,-3.1392,-3.1653,-3.1905,-3.2074,-3.2105,-3.2167,-3.2367,-3.2398,-3.2259,-3.1936,-3.1855,-3.1921,-3.2059,-3.2391,-3.2703,-3.3024,-3.3313,-3.3555,-2.9202,-2.7908,-2.7769,-2.7436,-2.7127,-2.7656,-2.7891,-2.7919,-2.7975,-2.7933,-2.7755,-2.7633,-2.7404,-2.7171,-2.6991,0.0,0.0,0.0,-2.7475,-2.7937,-2.8284,-2.8681,-2.9149,-2.9495,-2.9806,-2.9976,-2.9907,-3.0031,-3.0251,-2.9805,-2.9455,-2.9232,0.0,0.0,-2.9026,-2.9998,-3.0492,-3.0522,-3.1152,-3.1496,-3.1496,-3.1496,-3.1496,-3.1496,-3.1496,-3.1496,-3.1496,-3.1107,-3.0791,-3.0507,-2.9789,-2.9131,0.0,0.0,0.0,0.0,0.0,0.0,0.0,0.0,0.0,0.0,0.0,-2.5811,0.0,0.0,0.0,0.0,-2.4907,-2.509,-2.5402,-2.5424,0.0,0.0,0.0,0.0,0.0,0.0,0.0,-2.6099,-2.6561,-2.6914,-2.7105,-2.7696,-2.8137,-2.8216,-2.8379,-2.8509,-2.8592,0.0,-2.9212,-2.956,-2.9993,-3.0447,-3.091,-3.1336,-3.1724,-3.2038,-3.2274,-3.2398,-3.2398,-3.2398,-3.2398,-3.2398,-3.2398,-3.2398,-3.2398,-3.2398,-3.2453,-3.2578,-3.2676,-3.2854,-3.3096,-3.3203,-3.3293,-3.1171,-3.0368,-2.8608,-2.7795,-2.7724,-2.8323,-2.8574,-2.8619,-2.8976,-2.8952,-2.8591,-2.8407,-2.7983,-2.743,-2.7308,0.0,0.0,-2.7827,-2.8119,-2.8315,-2.8997,-2.9418,-2.962,-2.9792,-3.0129,-3.0612,-3.0612,-3.0866,-3.1248,-3.0669,-3.0428,-3.0567,-3.0028,-2.9714,-2.9726,-3.0268,-3.0582,-3.0569,-3.1197,-3.1496,-3.1496,-3.1496,-3.1496,-3.1496,-3.1496,-3.1496,-3.1496,-3.1496,-3.1212,-3.0627,-3.0537,-2.9968,-2.8831,0.0,0.0,0.0,0.0,0.0,0.0,0.0,0.0,0.0,0.0,0.0,0.0,0.0,0.0,0.0,-2.5054,0.0,-2.5837,-2.5858,0.0,0.0,0.0,-2.5806,-2.5858,-2.5858,-2.6112,-2.6706,0.0,0.0,0.0,0.0,-2.7868,-2.8046,-2.8183,-2.8287,-2.8287,-2.8734,-2.9117,-2.9279,-2.9825,-3.0387,-3.0732,-3.1175,-3.1667,-3.2107,-3.2302,-3.237,-3.2398,-3.2398,-3.2398,-3.2398,-3.2398,-3.2398,-3.2398,-3.2398,-3.2453,-3.2551,-3.2594,-3.2676,-3.2843,-3.2924,-3.2978,-3.2478,-3.2217,-3.1293,-3.0213,-2.9161,-2.975,-2.975,-2.9344,-2.9439,-2.9425,-2.933,-2.9205,-2.8966,-2.8657,-2.864,-2.864,-2.8671,-2.8778,-2.8896,-2.9053,-2.9376,-2.9605,-2.9761,-3.019,-3.0477,-3.0612,-3.0866,-3.1087,-3.1278,-3.1129,-3.1141,-3.1256,-3.1122,-3.0778,-3.0328,-3.0928,-3.1271,-3.1256,-3.1421,-3.1496,-3.1496,-3.1496,-3.1496,-3.1496,-3.1496,-3.1496,-3.1496,-3.1496,-3.1436,-3.1256,-3.0791,-3.0372,-3.0058,-2.8874,0.0,0.0,0.0,0.0,0.0,0.0,0.0,0.0,0.0,-2.5425,-2.5033,0.0,-2.5215,0.0,-2.5853,-2.6385,-2.6497,-2.6478,0.0,0.0,-2.6086,-2.5994,-2.6425,-2.6478,-2.67,-2.7262,-2.7327,-2.7366,-2.7477,-2.7556,-2.759,-2.7636,-2.7947,-2.8197,-2.8287,-2.8541,-2.8862,-2.9275,-2.9651,-3.0099,-3.0568,-3.1117,-3.1652,-3.2135,-3.2219,-3.2274,-3.2398,-3.2398,-3.2398,-3.2398,-3.2398,-3.2398,-3.2398,-3.2398,-3.2425,-3.2453,-3.2523,-3.2621,-3.2648,-3.2788,-3.2897,-3.3739,-3.3682,-3.3082,-3.2169,-3.1051,-3.0839,-3.0602,-3.0262,-2.9947,-2.9834,-2.9834,-2.9772,-2.9634,-2.954,-2.9432,-2.9477,-2.954,-2.9432,-2.9495,-2.9682,-2.9943,-3.0083,-3.016,-3.0598,-3.0851,-3.094,-3.1117,-3.1278,-3.138,-3.1395,-3.1424,-3.1496,-3.1496,-3.1316,-3.1001,-3.1316,-3.1496,-3.1496,-3.1496,-3.1496,-3.1496,-3.1496,-3.1496,-3.1496,-3.1496,-3.1496,-3.1496,-3.1496,-3.1496,-3.1496,-3.1137,-3.0821,-3.0507,-2.9642,-2.8986,0.0,0.0,0.0,0.0,0.0,0.0,0.0,0.0,0.0,0.0,0.0,-2.5813,0.0,-2.6358,0.0,-2.7027,-2.7053,-2.7053,-2.7066,-2.6765,-2.6681,-2.7027,-2.7053,-2.7183,-2.7464,-2.7503,-2.7594,-2.7863,-2.7902,-2.802,-2.8268,-2.8491,-2.859,-2.8565,-2.8966,-2.9473,-2.9709,-2.9973,-3.0228,-3.058,-3.1117,-3.1566,-3.1853,-3.2079,-3.2219,-3.2302,-3.237,-3.2398,-3.2398,-3.2398,-3.2398,-3.2398,-3.2398,-3.2398,-3.2425,-3.2453,-3.248,-3.2508,-3.2605,-3.2676,-3.503,-3.4901,-3.4364,-3.3747,-3.3073,-3.1944,-3.1366,-3.1171,-3.0614,-3.0342,-3.0287,-3.0201,-3.0172,-3.0142,-2.9991,-2.9976,-3.0142,-2.9976,-2.9991,-3.0203,-3.0492,-3.0628,-3.0672,-3.0984,-3.119,-3.1278,-3.1307,-3.1395,-3.1496,-3.1496,-3.1496,-3.1496,-3.1496,-3.1496,-3.1496,-3.1496,-3.1496,-3.1496,-3.1496,-3.1496,-3.1496,-3.1496,-3.1496,-3.1496,-3.1496,-3.1496,-3.1496,-3.1496,-3.1496,-3.1496,-3.1496,-3.1241,-3.0672,-3.0398,-2.9989,0.0,-2.9031,0.0,0.0,0.0,0.0,0.0,0.0,0.0,0.0,-2.602,-2.6466,-2.6771,-2.6811,-2.6987,-2.7438,-2.7503,-2.7503,-2.7503,-2.7503,-2.7503,-2.749,-2.7555,-2.7607,-2.7641,-2.7673,-2.7954,-2.8425,-2.8525,-2.8747,-2.9153,-2.9323,-2.9276,-2.9034,-2.9608,-3.0132,-3.0295,-3.05,-3.0655,-3.081,-3.1191,-3.1527,-3.1553,-3.1838,-3.2135,-3.2178,-3.2302,-3.2385,-3.237,-3.2398,-3.2398,-3.2398,-3.2398,-3.2398,-3.2398,-3.2425,-3.2425,-3.2425,-3.2425,-3.2425,-3.6192,-3.5673,-3.5571,-3.5146,-3.4453,-3.3756,-3.282,-3.1829,-3.1875,-3.1688,-3.1292,-3.0739,-3.0477,-3.0522,-3.0447,-3.0447,-3.0492,-3.0477,-3.0522,-3.0672,-3.0732,-3.0851,-3.1014,-3.1176,-3.1263,-3.1322,-3.1409,-3.1467,-3.1496,-3.1496,-3.1496,-3.1496,-3.1496,-3.1496,-3.1496,0.0,0.0,0.0,-3.1496,-3.1496,-3.1496,-3.1496,-3.1496,-3.1496,-3.1496,0.0,-3.1496,-3.1496,-3.1496,-3.1496,-3.1496,0.0,0.0,0.0,0.0,0.0,0.0,0.0,0.0,0.0,0.0,0.0,-2.7712,-2.7376,-2.6262,-2.643,-2.6817,-2.7314,-2.7333,-2.7385,-2.749,-2.7503,-2.7503,-2.7503,-2.7503,-2.7503,-2.7516,-2.7928,-2.8216,-2.8229,-2.8634,-2.9009,-2.9065,-2.9118,-2.9192,-2.9375,-2.968,-2.9915,-2.9859,-2.9901,-3.0025,-3.0282,-3.0845,-3.1231,-3.13,-3.1506,-3.1604,-3.1587,-3.1712,-3.1912,-3.2025,-3.215,-3.2247,-3.2231,-3.2315,-3.2398,-3.2398,-3.2398,-3.2398,-3.2398,-3.2398,-3.2398,-3.2398,-3.2398,-3.2425,-3.7391,0.0,-3.6314,-3.5836,0.0,-3.486,-3.4242,-3.3648,-3.2937,-3.2501,-3.2273,-3.192,-3.1598,-3.1305,-3.1305,-3.1099,-3.0836,-3.0836,-3.0895,-3.0955,-3.1043,-3.1117,-3.1205,-3.1351,-3.1394,-3.1409,-3.1467,-3.1496,-3.1496,-3.1496,-3.1496,-3.1496,-3.1496,-3.1496,-3.1496,-3.1496,-3.1496,-3.1496,-3.1496,-3.1496,-3.1496,-3.1496,-3.1496,-3.1496,0.0,0.0,0.0,0.0,0.0,0.0,0.0,0.0,0.0,0.0,0.0,-3.0787,-3.0362,-2.9941,-2.9668,-2.9405,-2.9007,-2.8421,-2.8232,-2.789,-2.7232,-2.713,-2.721,-2.7464,-2.7503,-2.7503,-2.7503,-2.7503,-2.7503,-2.7516,-2.7785,-2.7954,-2.8007,-2.8464,-2.8852,-2.8878,-2.9091,-2.9379,-2.9666,-2.9706,-2.9836,-3.0085,-3.0359,-3.0542,-3.0566,-3.0636,-3.0766,-3.0901,-3.1364,-3.1696,-3.1611,-3.1592,-3.1668,-3.1693,-3.1705,-3.1727,-3.1855,-3.2025,-3.2122,-3.2094,-3.2178,-3.2191,-3.2219,-3.2247,-3.2287,-3.2302,-3.237,-3.2398,-3.2398,-3.2398,-3.2398,-3.8532,-3.8167,-3.7142,-3.6615,-3.6481,-3.5791,-3.5532,-3.5389,0.0,0.0,0.0,-3.3237,-3.2895,-3.2346,-3.2346,-3.2005,-3.1442,-3.1412,-3.1367,-3.1249,-3.138,-3.1409,-3.1409,-3.1511,-3.1539,-3.1496,-3.1496,-3.1496,-3.1496,-3.1496,-3.1496,-3.1496,-3.1496,-3.1496,-3.1496,-3.1496,-3.1496,-3.1496,-3.1496,-3.1496,-3.1496,-3.1496,-3.1496,-3.1496,-3.1496,-3.1496,-3.1496,-3.1496,-3.1496,-3.1496,-3.1496,-3.1496,-3.1496,-3.1496,-3.1438,-3.1351,-3.1278,-3.1117,-3.0702,-3.0417,-2.996,-2.9279,-2.8509,-2.8112,-2.8112,-2.7703,-2.7469,-2.7469,-2.7436,-2.739,-2.739,-2.7494,-2.7546,-2.7546,-2.8087,-2.8447,-2.8534,-2.903,-2.9382,-2.9431,-2.9549,-2.9758,-3.0215,-3.0244,-3.0438,-3.0856,-3.0921,-3.1024,-3.1099,-3.1307,-3.1525,-3.1624,-3.1951,-3.2109,-3.1876,-3.1851,-3.1833,-3.1833,-3.1723,-3.1659,-3.1713,-3.1855,-3.194,-3.1983,-3.1968,-3.2025,-3.2025,-3.2094,-3.2163,-3.2163,-3.2274,-3.237,-3.237,-3.2398,-3.2398,-3.944,-3.8864,-3.8682,-3.8273,-3.7713,-3.7013,-3.644,-3.5849,-3.4889,-3.4572,-3.4666,-3.4106,-3.3804,-3.3713,-3.3713,-3.335,-3.2745,-3.2745,-3.2428,0.0,-3.1868,-3.1826,-3.1742,-3.1756,-3.167,-3.1511,-3.1496,-3.1496,-3.1496,-3.1511,-3.1496,-3.1496,-3.1496,-3.1496,-3.1496,-3.1496,-3.1496,-3.1496,-3.1496,-3.1496,-3.1496,-3.1496,-3.1496,-3.1496,-3.1496,-3.1496,-3.1496,-3.1496,-3.1496,-3.1496,-3.1496,-3.1496,-3.1496,-3.1496,-3.1511,-3.1482,-3.1249,-3.1117,-3.1014,-3.0462,-2.9789,-2.8931,-2.8379,-2.8112,-2.8079,-2.7636,-2.7335,-2.7335,-2.7167,-2.7092,-2.7105,-2.749,-2.7747,-2.7798,-2.8225,-2.8643,-2.8886,-2.9401,-2.9811,-2.9947,-3.0464,-3.0712,-3.0777,-3.083,-3.0843,-3.0998,-3.1024,-3.1061,-3.1248,-3.1447,-3.1716,-3.206,-3.2379,-3.2471,-3.2322,-3.2597,-3.2418,-3.1685,-3.1882,-3.1886,-3.1483,-3.1626,-3.1813,-3.1828,-3.1883,-3.1968,-3.1983,-3.2025,-3.201,-3.2053,-3.2135,-3.2219,-3.2219,-3.233,-3.2398,-4.0182,-3.9791,-3.9322,-3.8967,-3.8617,-3.806,-3.742,-3.6793,-3.6392,-3.5947,-3.5534,-3.5215,-3.4896,-3.4562,-3.4547,-3.4182,-3.353,-3.3559,-3.3347,-3.3089,-3.3059,-3.306,-3.3001,-3.3001,-3.2913,-3.2765,-3.275,-3.2511,-3.2093,-3.2034,-3.1854,-3.1525,-3.1496,-3.1496,-3.1496,-3.1496,-3.1496,-3.1496,-3.1496,-3.1496,-3.1496,-3.1496,-3.1496,-3.1496,-3.1496,-3.1496,-3.1496,-3.1496,-3.1496,-3.1496,-3.1496,-3.1496,-3.1496,-3.1496,-3.1496,-3.1511,-3.1322,-3.1176,-3.1102,-3.031,-2.9526,-2.8835,-2.836,-2.8013,-2.7782,-2.7469,-2.7302,-2.7315,-2.7113,-2.7105,-2.7408,-2.7665,-2.7921,-2.8206,-2.8743,-2.9125,-2.9325,-2.9886,-3.0321,-3.0435,-3.0755,-3.0986,-3.1024,-3.1024,-3.1024,-3.1024,-3.1024,-3.1061,-3.1123,-3.141,-3.1669,-3.1986,-3.2395,-3.2678,-3.2702,-3.2812,-3.2704,-3.2115,-3.2068,-3.1885,-3.1441,-3.1511,-3.1612,-3.1641,-3.1683,-3.1741,-3.1741,-3.1841,-3.187,-3.1898,-3.1996,-3.2066,-3.2122,-3.2191,-3.2315,-4.0904,-4.0497,-3.9902,-3.9492,-3.9244,-3.8888,-3.8369,-3.7738,-3.7569,-3.7072,-3.6423,-3.6223,-3.5826,-3.5369,-3.5385,-3.5019,-3.4439,-3.4423,-3.4361,-3.4194,-3.4164,-3.4149,-3.4105,-3.4075,-3.3985,-3.3864,-3.3849,-3.3472,-3.2841,-3.2811,-3.2437,-3.1795,-3.172,-3.166,-3.1496,-3.1496,-3.1496,-3.1496,-3.1496,-3.1496,-3.1496,-3.1496,-3.1496,-3.1496,-3.1496,-3.1496,-3.1496,-3.1496,-3.1496,-3.1496,-3.1496,-3.1496,-3.1496,-3.1496,-3.1496,-3.1467,-3.1351,-3.1132,-3.0866,-3.0097,-2.9338,-2.8803,-2.836,-2.7914,-2.7503,-2.7419,-2.733,-2.7206,-2.7105,-2.7258,-2.7615,-2.7911,-2.8239,-2.8649,-2.9234,-2.9565,-2.9691,-3.0238,-3.066,-3.0698,-3.0874,-3.1024,-3.1024,-3.1024,-3.1024,-3.1024,-3.1024,-3.1024,-3.1024,-3.1336,-3.1596,-3.189,-3.23,-3.2654,-3.2889,-3.2987,-3.2892,-3.2652,-3.2334,-3.2013,-3.1649,-3.1499,-3.1482,-3.1496,-3.1496,-3.1524,-3.1539,-3.1641,-3.1727,-3.1727,-3.1841,-3.1968,-3.2025,-3.2122,-3.2231,-4.1495,-4.083,-4.0687,-4.0214,-3.9521,-3.9428,-3.9031,-3.8385,-3.7784,-3.754,-3.7465,-3.68,-3.6445,-3.6368,-3.6461,-3.6136,-3.5579,-3.5728,-3.5461,-3.4872,-3.4678,-3.4577,-3.4523,-3.4314,-3.4119,-3.406,-3.4061,-3.4001,-3.3683,-3.3638,-3.3231,-3.2497,-3.2422,-3.2093,-3.1585,-3.1511,-3.1511,-3.1496,-3.1496,-3.1496,-3.1496,-3.1496,-3.1496,-3.1496,-3.1496,-3.1496,-3.1496,-3.1496,-3.1496,-3.1496,-3.1496,-3.1496,-3.1496,-3.1496,-3.1496,-3.1496,-3.1278,-3.0836,-3.0264,-2.9834,-2.932,-2.8683,-2.8295,-2.7895,-2.7408,-2.7597,-2.7476,-2.7049,-2.7104,-2.7314,-2.7415,-2.822,-2.8774,-2.8912,-2.9403,-2.9819,-2.9973,-3.0254,-3.0495,-3.0698,-3.0874,-3.1024,-3.1024,-3.1024,-3.1024,-3.1024,-3.1024,-3.1024,-3.1024,-3.1211,-3.1434,-3.1669,-3.2082,-3.2453,-3.2725,-3.3058,-3.3049,-3.2868,-3.2638,-3.2305,-3.194,-3.1545,-3.1336,-3.1453,-3.1496,-3.1496,-3.1496,-3.1524,-3.1539,-3.1597,-3.1683,-3.1841,-3.1968,-3.2066,-3.2219,-4.1797,-4.1104,-4.1018,-4.0693,-4.031,-4.0279,-3.9892,-3.9259,-3.9142,-3.885,-3.8464,-3.7732,-3.7157,-3.6785,-3.6847,-3.6691,-3.6488,-3.6548,-3.6438,-3.6157,-3.6068,-3.6038,-3.5978,-3.5902,-3.5737,-3.5508,-3.5477,-3.5141,-3.4516,-3.4046,-3.3623,-3.3291,-3.3171,-3.2766,-3.2138,-3.2079,-3.1899,-3.1511,-3.1496,-3.1496,-3.1496,-3.1496,-3.1496,-3.1496,-3.1496,-3.1496,-3.1496,-3.1496,-3.1496,-3.1496,-3.1496,-3.1496,-3.1496,-3.1496,-3.1496,-3.1482,-3.1249,-3.0806,-3.0142,-2.9803,-2.932,-2.8651,-2.8276,-2.7947,-2.7653,-2.7725,-2.7691,-2.7586,-2.7693,-2.7883,-2.821,-2.8637,-2.9026,-2.9377,-2.9666,-2.983,-2.9895,-3.0228,-3.0432,-3.052,-3.0785,-3.1024,-3.1024,-3.1024,-3.1024,-3.1024,-3.1024,-3.1024,-3.1011,-3.1161,-3.1397,-3.1559,-3.189,-3.2191,-3.2503,-3.298,-3.3031,-3.2764,-3.2829,-3.2838,-3.1928,-3.1854,-3.1753,-3.1454,-3.1453,-3.1496,-3.1496,-3.1496,-3.1496,-3.1524,-3.1539,-3.1698,-3.187,-3.1927,-3.2025,-4.2315,-4.1604,-4.1263,-4.1049,-4.0867,-4.0882,-4.0588,-4.0171,-4.0133,-3.984,-3.9389,-3.8733,-3.8059,-3.7479,-3.7229,-3.7105,-3.7105,-3.7211,-3.7257,-3.7241,-3.7211,-3.7181,-3.7181,-3.709,-3.6923,-3.6723,-3.6616,-3.6184,-3.54,-3.4743,-3.4272,-3.406,-3.3877,-3.3455,-3.2856,-3.2781,-3.2467,-3.1854,-3.1765,-3.169,-3.1525,-3.1496,-3.1496,-3.1496,-3.1496,-3.1496,-3.1496,-3.1496,-3.1496,-3.1496,-3.1496,-3.1496,-3.1496,-3.1496,-3.1482,-3.1395,-3.119,-3.0806,-3.0142,-2.9803,-2.939,-2.8869,-2.8517,-2.8257,-2.8178,-2.8225,-2.828,-2.8394,-2.851,-2.8725,-2.8813,-2.9026,-2.9365,-2.9741,-2.9779,-2.9779,-2.9818,-3.0139,-3.0406,-3.0444,-3.0748,-3.1024,-3.1024,-3.1024,-3.1024,-3.1024,-3.1024,-3.1024,-3.1024,-3.1136,-3.1272,-3.1471,-3.1706,-3.1986,-3.2345,-3.2789,-3.2835,-3.2861,-3.302,-3.2829,-3.1959,-3.2069,-3.193,-3.1456,-3.1454,-3.1482,-3.1496,-3.1496,-3.1496,-3.1496,-3.1511,-3.1568,-3.1698,-3.1771,-3.1841,-4.3142,-4.2262,-4.1435,-4.1102,-4.1068,-4.1068,-4.1052,-4.0946,-4.0433,-4.0203,-4.0209,-3.9755,-3.92,-3.8594,-3.7856,-3.7403,-3.7417,-3.7669,-3.7817,-3.7817,-3.7746,-3.7671,-3.7642,-3.7344,-3.7194,-3.7134,-3.7044,-3.6769,-3.6399,-3.6041,-3.5485,-3.4724,-3.4663,-3.4238,-3.3575,-3.3455,-3.3125,-3.2542,-3.2467,-3.2153,-3.1615,-3.1525,-3.154,-3.1511,-3.1496,-3.1496,-3.1496,-3.1496,-3.1496,-3.1496,-3.1496,-3.1496,-3.1496,-3.1496,-3.1395,-3.1176,-3.1117,-3.0821,-3.0215,-2.986,-2.9553,-2.9372,-2.906,-2.8884,-2.8909,-2.9096,-2.922,-2.9162,-2.9429,-2.944,-2.9076,-2.939,-2.9679,-2.9767,-2.9779,-2.9779,-2.9792,-3.0139,-3.0368,-3.0444,-3.0761,-3.0986,-3.1024,-3.1024,-3.1024,-3.1024,-3.1024,-3.1024,-3.1024,-3.1024,-3.1136,-3.131,-3.1508,-3.1803,-3.2273,-3.2596,-3.2881,-3.2961,-3.2899,-3.2839,-3.2486,-3.2132,-3.1763,-3.1457,-3.1382,-3.1395,-3.1467,-3.1496,-3.1496,-3.1496,-3.1496,-3.1539,-3.1568,-3.1698,-3.1756,-4.3671,-4.253,-4.1604,-4.1239,-4.1254,-4.1239,-4.1239,-4.1223,-4.1251,-4.1257,-4.1212,-4.0801,-4.048,-4.033,-3.9189,-3.8318,-3.7804,-3.7931,-3.8046,-3.8046,-3.8091,-3.8062,-3.796,-3.7828,-3.7653,-3.7508,-3.7329,-3.7105,-3.6816,-3.6492,-3.6182,-3.5843,-3.5499,-3.4963,-3.4374,-3.419,-3.3799,-3.3215,-3.314,-3.2826,-3.2198,-3.2123,-3.1944,-3.1525,-3.1496,-3.1496,-3.1496,-3.1496,-3.1496,-3.1496,-3.1496,-3.1496,-3.1496,-3.1496,-3.1395,-3.1132,-3.1087,-3.0981,-3.0716,-3.0383,-3.0123,-3.0011,-2.9697,-2.9478,-2.9512,-2.9518,-2.9552,-2.9745,-2.9744,-2.9654,-2.9578,-2.9679,-2.9779,-2.9779,-2.9779,-2.9792,-2.9856,-3.0152,-3.0406,-3.0444,-3.0748,-3.0986,-3.1024,-3.1024,-3.1024,-3.1024,-3.1024,-3.1024,-3.1024,-3.1024,-3.1048,-3.1272,-3.1471,-3.1706,-3.1986,-3.2322,-3.2632,-3.2854,-3.2933,-3.2973,-3.2768,-3.2521,-3.2163,-3.1676,-3.1471,-3.1352,-3.1454,-3.1482,-3.1467,-3.1496,-3.1496,-3.1496,-3.1496,-3.1597,-3.1626,-4.3722,-4.2663,-4.1755,-4.139,-4.1374,-4.139,-4.1423,-4.1505,-4.18,-4.1931,-4.1884,-4.1677,-4.1544,-4.1313,-4.0605,-3.9619,-3.8605,-3.8416,-3.8343,-3.8343,-3.846,-3.846,-3.8343,-3.8286,-3.8189,-3.7976,-3.7682,-3.7403,-3.7135,-3.6846,-3.6662,-3.6476,-3.6116,-3.5636,-3.5131,-3.493,-3.4566,-3.3964,-3.3814,-3.3499,-3.2916,-3.2841,-3.2527,-3.1944,-3.1824,-3.172,-3.1525,-3.1496,-3.1496,-3.1496,-3.1496,-3.1496,-3.1496,-3.1496,-3.1395,-3.1146,-3.1279,-3.1273,-3.1014,-3.0874,-3.0782,-3.074,-3.0349,-3.013,-3.022,-3.0028,-3.0047,-3.0139,-3.0011,-2.9908,-2.983,-2.9779,-2.9779,-2.9779,-2.9779,-2.983,-2.9908,-3.019,-3.0444,-3.0634,-3.0836,-3.0986,-3.1024,-3.1024,-3.1024,-3.1024,-3.1024,-3.1024,-3.1024,-3.1024,-3.1011,-3.1161,-3.136,-3.1559,-3.178,-3.2046,-3.2431,-3.269,-3.3009,-3.3064,-3.3018,-3.278,-3.2452,-3.1975,-3.1631,-3.1457,-3.1396,-3.1439,-3.1482,-3.1467,-3.1496,-3.1496,-3.1496,-3.1496,-3.1524,-4.3374,-4.2695,-4.1904,-4.1636,-4.1588,-4.1588,-4.1719,-4.1833,-4.1898,-4.2012,-4.2158,-4.2412,-4.2197,-4.1817,-4.1798,-4.1229,-4.0082,-3.9308,-3.887,-3.8805,-3.8832,-3.8832,-3.8794,-3.865,-3.8583,-3.85,-3.8116,-3.7725,-3.7433,-3.7254,-3.6968,-3.6616,-3.6492,-3.6149,-3.5689,-3.5567,-3.523,-3.467,-3.4487,-3.4158,-3.3589,-3.3499,-3.3185,-3.2587,-3.2482,-3.2228,-3.1585,-3.1525,-3.1496,-3.1496,-3.1496,-3.1496,-3.1511,-3.1555,-3.1424,-3.1324,-3.1676,-3.1649,-3.1214,-3.1293,-3.1441,-3.1404,-3.0998,-3.0844,-3.1011,-3.0782,-3.052,-3.0406,-3.0228,-3.0049,-2.9869,-2.983,-2.983,-2.9779,-2.9779,-2.9856,-3.0037,-3.0254,-3.0545,-3.0861,-3.0986,-3.1024,-3.1024,-3.1024,-3.1024,-3.1024,-3.1024,-3.1024,-3.1024,-3.1024,-3.1024,-3.1061,-3.1248,-3.1447,-3.1596,-3.178,-3.2191,-3.2574,-3.2917,-3.3129,-3.3087,-3.2925,-3.2566,-3.2125,-3.1538,-3.1352,-3.1279,-3.1336,-3.1366,-3.1395,-3.1438,-3.1467,-3.1467,-3.1438,-3.1496,-4.4022,-4.3342,-4.2647,-4.2047,-4.1653,-4.1736,-4.1866,-4.1947,-4.2141,-4.2334,-4.246,-4.2696,-4.2784,-4.275,-4.2548,-4.22,-4.1801,-4.0724,-3.9833,-3.9301,-3.9352,-3.9292,-3.9148,-3.9094,-3.8887,-3.8611,-3.8359,-3.8132,-3.7857,-3.749,-3.7208,-3.6983,-3.6677,-3.6289,-3.5926,-3.5752,-3.5503,-3.5237,-3.519,-3.4861,-3.4279,-3.4204,-3.3858,-3.3275,-3.3185,-3.2886,-3.2213,-3.175,-3.1511,-3.1511,-3.1496,-3.1496,-3.157,-3.1929,-3.2035,-3.1825,-3.234,-3.2616,-3.2348,-3.2131,-3.2054,-3.2014,-3.1617,-3.1346,-3.1283,-3.0911,-3.0698,-3.0584,-3.0419,-3.0228,-3.0037,-3.0011,-2.9934,-2.983,-2.9779,-2.9908,-3.0113,-3.0406,-3.0685,-3.0949,-3.1024,-3.1024,-3.1024,-3.1024,-3.1024,-3.1024,-3.1024,-3.1024,-3.1024,-3.1024,-3.1024,-3.1024,-3.1211,-3.136,-3.1559,-3.1743,-3.2059,-3.2395,-3.2704,-3.3108,-3.3119,-3.3047,-3.27,-3.2197,-3.1616,-3.1261,-3.1205,-3.122,-3.1249,-3.1278,-3.1292,-3.1322,-3.1365,-3.138,-3.1409,-4.4287,-4.3658,-4.2979,-4.2268,-4.1653,-4.1833,-4.1947,-4.2012,-4.2318,-4.2571,-4.2728,-4.2976,-4.3237,-4.3363,-4.3131,-4.2974,-4.2829,-4.2015,-4.1201,-4.0331,-3.9776,-3.9616,-3.9441,-3.9379,-3.9218,-3.8903,-3.8683,-3.8488,-3.8201,-3.7841,-3.7519,-3.7254,-3.6877,-3.6523,-3.6195,-3.5941,-3.575,-3.5604,-3.5507,-3.5295,-3.4983,-3.4861,-3.4547,-3.3994,-3.3889,-3.3529,-3.2886,-3.2452,-3.2004,-3.166,-3.172,-3.1869,-3.1914,-3.2482,-3.2735,-3.2579,-3.2926,-3.3261,-3.2935,-3.271,-3.2591,-3.2456,-3.195,-3.1559,-3.136,-3.1024,-3.0811,-3.0698,-3.0571,-3.0419,-3.0267,-3.0228,-3.0152,-3.0049,-2.9972,-3.0049,-3.0279,-3.0622,-3.0849,-3.0986,-3.1024,-3.1024,-3.1024,-3.1024,-3.1024,-3.1024,-3.1024,-3.1024,-3.1024,-3.1024,-3.1024,-3.1024,-3.1099,-3.1286,-3.1559,-3.1743,-3.1927,-3.2191,-3.2503,-3.2909,-3.3122,-3.3162,-3.2942,-3.2245,-3.1618,-3.1166,-3.1041,-3.1102,-3.1176,-3.1161,-3.1132,-3.119,-3.1249,-3.1278,-3.1278,-4.4401,-4.3722,-4.3042,-4.2396,-4.1797,-4.1881,-4.2012,-4.2142,-4.2476,-4.2744,-4.2945,-4.3221,-4.3462,-4.3628,-4.3706,-4.3535,-4.3154,-4.3043,-4.2661,-4.1782,-4.0781,-3.9998,-3.9728,-3.9563,-3.9405,-3.9272,-3.9094,-3.8794,-3.8448,-3.8189,-3.7886,-3.7417,-3.7119,-3.6816,-3.6445,-3.6163,-3.5863,-3.5703,-3.5539,-3.5474,-3.5429,-3.5444,-3.519,-3.4562,-3.4548,-3.4218,-3.3634,-3.338,-3.2841,-3.1899,-3.2273,-3.2572,-3.2677,-3.32,-3.3405,-3.3109,-3.3652,-3.3591,-3.3231,-3.3111,-3.3073,-3.2654,-3.2023,-3.1609,-3.1522,-3.1211,-3.0911,-3.0761,-3.0736,-3.0647,-3.0495,-3.0406,-3.0406,-3.0406,-3.0267,-3.0318,-3.066,-3.0849,-3.0949,-3.0986,-3.1024,-3.1024,-3.1024,-3.1024,-3.1024,-3.1024,-3.1024,-3.1024,-3.1024,-3.1024,-3.1024,-3.1024,-3.1061,-3.1211,-3.1447,-3.1633,-3.1817,-3.2073,-3.23,-3.2624,-3.2946,-3.2989,-3.3055,-3.2364,-3.1685,-3.1211,-3.0901,-3.0951,-3.0909,-3.0836,-3.0866,-3.1028,-3.1087,-3.1102,-3.1176,-4.5076,-4.4401,-4.3722,-4.3094,-4.2565,-4.2203,-4.2158,-4.2349,-4.2665,-4.2914,-4.3082,-4.3265,-4.3568,-4.3822,-4.3952,-4.4009,-4.3849,-4.3535,-4.3287,-4.2932,-4.2105,-4.0896,-4.0017,-3.9703,-3.959,-3.9432,-3.9299,-3.9056,-3.8711,-3.8415,-3.8091,-3.7626,-3.73,-3.6907,-3.6507,-3.6163,-3.5894,-3.5703,-3.5572,-3.5489,-3.5489,-3.5489,-3.5429,-3.528,-3.5205,-3.4861,-3.4279,-3.3739,-3.341,-3.3066,-3.3125,-3.3245,-3.329,-3.3858,-3.4092,-3.3878,-3.4254,-3.4339,-3.3727,-3.3429,-3.3129,-3.2704,-3.2009,-3.1609,-3.1609,-3.1224,-3.1024,-3.0911,-3.0911,-3.0836,-3.0647,-3.0609,-3.0622,-3.0622,-3.0533,-3.0584,-3.0698,-3.0874,-3.1024,-3.1024,-3.1024,-3.1024,-3.1024,-3.1024,-3.1024,-3.1024,-3.1024,-3.1024,-3.1024,-3.1024,-3.1024,-3.1024,-3.1061,-3.1174,-3.1336,-3.1485,-3.172,-3.194,-3.2132,-3.2336,-3.253,-3.2577,-3.2706,-3.2587,-3.1813,-3.1257,-3.0891,-3.0697,-3.0614,-3.0548,-3.0597,-3.0717,-3.0836,-3.0866,-3.0999,-4.5381,-4.4654,-4.4006,-4.3398,-4.2852,-4.2349,-4.2206,-4.2445,-4.2821,-4.3021,-4.3143,-4.3372,-4.3658,-4.3985,-4.4039,-4.4241,-4.4328,-4.4041,-4.3927,-4.3775,-4.3081,-4.1895,-4.0686,-4.0051,-3.9746,-3.9642,-3.9458,-3.9272,-3.8985,-3.8655,-3.8262,-3.786,-3.7403,-3.7013,-3.6708,-3.6289,-3.6005,-3.5831,-3.5668,-3.5572,-3.5504,-3.5489,-3.5489,-3.5489,-3.5489,-3.5265,-3.4876,-3.4532,-3.4128,-3.3724,-3.3724,-3.3949,-3.4009,-3.4547,-3.4731,-3.4422,-3.471,-3.4601,-3.3971,-3.3507,-3.3129,-3.2704,-3.2082,-3.1743,-3.1559,-3.1286,-3.1136,-3.0986,-3.1024,-3.0949,-3.0874,-3.0849,-3.0811,-3.0811,-3.0811,-3.0849,-3.0798,-3.0949,-3.0986,-3.1024,-3.1024,-3.1024,-3.1024,-3.1024,-3.1024,-3.1024,-3.1024,-3.1024,-3.1024,-3.1024,-3.1024,-3.1024,-3.1024,-3.1136,-3.1248,-3.1397,-3.1596,-3.183,-3.2,-3.2169,-3.2249,-3.2331,-3.2451,-3.239,-3.181,-3.1311,-3.092,-3.0591,-3.0389,-3.0373,-3.038,-3.0371,-3.0462,-3.0552,-3.0717,-4.5444,-4.478,-4.4003,-4.3445,-4.2997,-4.2396,-4.2238,-4.2476,-4.2898,-4.3082,-4.3157,-4.3462,-4.3776,-4.4097,-4.4097,-4.427,-4.4587,-4.4485,-4.4502,-4.4248,-4.3639,-4.2547,-4.1347,-4.05,-4.0069,-3.9857,-3.9633,-3.9448,-3.9191,-3.8821,-3.8444,-3.803,-3.7506,-3.718,-3.6908,-3.6476,-3.6195,-3.5973,-3.5767,-3.5621,-3.5537,-3.5489,-3.5489,-3.5489,-3.5489,-3.5489,-3.5429,-3.5325,-3.4921,-3.3784,-3.4277,-3.4578,-3.4698,-3.5205,-3.5204,-3.4927,-3.4824,-3.4601,-3.3985,-3.3493,-3.3129,-3.2704,-3.2191,-3.1817,-3.1596,-3.1397,-3.1198,-3.1024,-3.1024,-3.0986,-3.0986,-3.0986,-3.0986,-3.0949,-3.0986,-3.0986,-3.1024,-3.1024,-3.1024,-3.1024,-3.1024,-3.1024,-3.1024,-3.1024,-3.1024,-3.1024,-3.1024,-3.1024,-3.1024,-3.1024,-3.1024,-3.1024,-3.1024,-3.1061,-3.1161,-3.131,-3.1545,-3.1743,-3.189,-3.2023,-3.2155,-3.2203,-3.2239,-3.2118,-3.1866,-3.1459,-3.0917,-3.0629,-3.0341,-3.0097,-3.0018,-2.9998,-3.0019,-3.0127,-3.028,-4.5728,-4.5476,-4.4224,-4.3783,-4.3705,-4.2637,-4.2286,-4.2571,-4.2912,-4.3096,-4.3174,-4.3479,-4.3776,-4.4097,-4.4126,-4.4286,-4.457,-4.4598,-4.4598,-4.4496,-4.3775,-4.2963,-4.2049,-4.1253,-4.056,-4.0052,-3.9729,-3.9537,-3.9272,-3.8942,-3.8539,-3.8116,-3.7756,-3.7375,-3.6999,-3.6647,-3.6289,-3.6022,-3.5784,-3.5653,-3.5522,-3.5489,-3.5489,-3.5489,-3.5489,-3.5489,-3.5489,-3.5489,-3.5355,-3.519,-3.516,-3.519,-3.525,-3.54,-3.5294,-3.5016,-3.4902,-3.4601,-3.3985,-3.3507,-3.3129,-3.2704,-3.2228,-3.1817,-3.1609,-3.1434,-3.1211,-3.1061,-3.1024,-3.1024,-3.1024,-3.1024,-3.1024,-3.1024,-3.1024,-3.1024,-3.1024,-3.1024,-3.1024,-3.1024,-3.1024,-3.1024,-3.1024,-3.1024,-3.1024,-3.1024,-3.1024,-3.1024,-3.1024,-3.1024,-3.1024,-3.1024,-3.1024,-3.1061,-3.1099,-3.1235,-3.1434,-3.1633,-3.1743,-3.1853,-3.1973,-3.2105,-3.2145,-3.214,-3.2089,-3.1619,-3.1047,-3.063,-3.0336,-3.0021,-2.9736,-2.9677,-2.969,-2.9741,-2.9806,-4.5807,-4.5665,-4.4306,-4.3878,-4.393,-4.2749,-4.2302,-4.2602,-4.2883,-4.3052,-4.3143,-4.3372,-4.3747,-4.4114,-4.4126,-4.4286,-4.4542,-4.4598,-4.4598,-4.4513,-4.4096,-4.3572,-4.2794,-4.1999,-4.1152,-4.0163,-3.9798,-3.9616,-3.9415,-3.9023,-3.865,-3.8315,-3.7918,-3.7494,-3.7105,-3.677,-3.6383,-3.6068,-3.5894,-3.5718,-3.5522,-3.5489,-3.5489,-3.5489,-3.5489,-3.5489,-3.5489,-3.5489,-3.5489,-3.5489,-3.5489,-3.5489,-3.5504,-3.5489,-3.5294,-3.5016,-3.4902,-3.4568,-3.4005,-3.3507,-3.3129,-3.2739,-3.2264,-3.1913,-3.1669,-3.1485,-3.1299,-3.1099,-3.1024,-3.1024,-3.1024,-3.1024,-3.1024,-3.1024,-3.1024,-3.1024,-3.1024,-3.1024,-3.1024,-3.1024,-3.1024,-3.1024,-3.1024,-3.1024,-3.1024,-3.1024,-3.1024,-3.1024,-3.1024,-3.1024,-3.1024,-3.1024,-3.1024,-3.1024,-3.1061,-3.1174,-3.1323,-3.1471,-3.1596,-3.1669,-3.1743,-3.1877,-3.1996,-3.1974,-3.194,-3.1687,-3.1153,-3.0754,-3.0327,-2.9973,-2.9679,-2.9467,-2.9355,-2.9425,-2.9415,-4.5807,-4.5697,-4.4271,-4.3878,-4.3946,-4.2733,-4.227,-4.2602,-4.2806,-4.2976,-4.3096,-4.3295,-4.3671,-4.401,-4.4097,-4.4315,-4.4514,-4.4598,-4.4598,-4.4564,-4.453,-4.3978,-4.3284,-4.2489,-4.1576,-4.0358,-3.9883,-3.9677,-3.952,-3.9131,-3.8722,-3.85,-3.8033,-3.7567,-3.7224,-3.6892,-3.6523,-3.6132,-3.6005,-3.5846,-3.5587,-3.5522,-3.5489,-3.5489,-3.5489,-3.5489,-3.5489,-3.5489,-3.5489,-3.5489,-3.5489,-3.5489,-3.5504,-3.5439,-3.5279,-3.4935,-3.4868,-3.4549,-3.3971,-3.3542,-3.3129,-3.2739,-3.2372,-3.2,-3.1706,-3.1572,-3.1373,-3.1149,-3.1024,-3.1024,-3.1024,-3.1024,-3.1024,-3.1024,-3.1024,-3.1024,-3.1024,-3.1024,-3.1024,-3.1024,-3.1024,-3.1024,-3.1024,-3.1024,-3.1024,-3.1024,-3.1024,-3.1024,-3.1024,-3.1024,-3.1024,-3.1024,-3.1024,-3.1024,-3.1024,-3.1061,-3.1211,-3.1286,-3.1397,-3.141,-3.1447,-3.1508,-3.1619,-3.1743,-3.1656,-3.1477,-3.1321,-3.1018,-3.0575,-3.0038,-2.964,-2.94,-2.9251,-2.91,-2.9095,-4.5952,-4.5697,-4.4306,-4.3862,-4.398,-4.2701,-4.2286,-4.2602,-4.279,-4.2992,-4.3096,-4.3312,-4.3641,-4.401,-4.4097,-4.4315,-4.4542,-4.4598,-4.4598,-4.4598,-4.4581,-4.4164,-4.3538,-4.2675,-4.183,-4.0991,-4.0186,-3.9703,-3.9573,-3.9115,-3.875,-3.8528,-3.8091,-3.7655,-3.73,-3.7014,-3.6662,-3.6211,-3.6068,-3.5878,-3.5686,-3.5554,-3.5489,-3.5489,-3.5489,-3.5489,-3.5489,-3.5489,-3.5489,-3.5489,-3.5489,-3.5489,-3.5457,-3.5359,-3.5148,-3.4935,-3.4769,-3.4462,-3.3951,-3.3507,-3.3129,-3.2739,-3.2372,-3.2036,-3.1706,-3.1572,-3.1373,-3.1136,-3.1024,-3.1024,-3.1024,-3.1024,-3.1024,-3.1024,-3.1024,-3.1024,-3.1024,-3.1024,-3.1024,-3.1024,-3.1024,-3.1024,-3.1024,-3.1024,-3.1024,-3.1024,-3.1024,-3.1024,-3.1024,-3.1024,-3.1024,-3.1024,-3.1024,-3.1024,-3.1024,-3.1024,-3.1061,-3.1099,-3.1136,-3.1174,-3.1174,-3.1099,-3.1174,-3.141,-3.1522,-3.1513,-3.1345,-3.1177,-3.0851,-3.0392,-2.9895,-2.9376,-2.9178,-2.9032,-2.8843,-4.5034,-4.4779,-4.3717,-4.3425,-4.3451,-4.2589,-4.227,-4.2555,-4.2696,-4.2883,-4.3082,-4.3204,-4.3522,-4.391,-4.4068,-4.4286,-4.4514,-4.4598,-4.4598,-4.4598,-4.4564,-4.4479,-4.3842,-4.2878,-4.2219,-4.143,-4.0438,-3.972,-3.9651,-3.9104,-3.8777,-3.8595,-3.8177,-3.7714,-3.7359,-3.7075,-3.6693,-3.6305,-3.6068,-3.5894,-3.5688,-3.5572,-3.5489,-3.5489,-3.5489,-3.5489,-3.5489,-3.5489,-3.5489,-3.5489,-3.5489,-3.5489,-3.5424,-3.5213,-3.5001,-3.4902,-3.4683,-3.4361,-3.3882,-3.3437,-3.2988,-3.2739,-3.2372,-3.2036,-3.1706,-3.1559,-3.141,-3.1136,-3.1024,-3.1024,-3.1024,-3.1024,-3.1024,-3.1024,-3.1024,-3.1024,-3.1024,-3.1024,-3.1024,-3.1024,-3.1024,-3.1024,-3.1024,-3.1024,-3.1024,-3.1024,-3.1024,-3.1024,-3.1024,-3.1024,-3.1024,-3.1024,-3.1024,-3.1024,-3.1024,-3.1024,-3.1024,-3.1024,-3.1024,-3.1024,-3.1024,-3.1024,-3.1061,-3.1187,-3.1336,-3.1434,-3.1455,-3.1289,-3.1,-3.0783,-3.037,-2.9891,-2.9301,-2.8919,-2.8803,-4.417,-4.3968,-4.3236,-4.3065,-4.3101,-4.2462,-4.2333,-4.2571,-4.2602,-4.279,-4.3052,-4.3113,-4.3372,-4.3793,-4.4068,-4.4298,-4.457,-4.4598,-4.4598,-4.4598,-4.4598,-4.4598,-4.4209,-4.3335,-4.2412,-4.1909,-4.0764,-3.9854,-3.9599,-3.9104,-3.8832,-3.8583,-3.8177,-3.7714,-3.7373,-3.7105,-3.6693,-3.6383,-3.6068,-3.5894,-3.5686,-3.5572,-3.5489,-3.5489,-3.5489,-3.5489,-3.5489,-3.5489,-3.5489,-3.5489,-3.5489,-3.5489,-3.5439,-3.5115,-3.4902,-3.4835,-3.4534,-3.421,-3.3882,-3.3368,-3.2952,-3.2704,-3.2408,-3.2023,-3.1669,-3.1485,-3.1323,-3.1061,-3.1024,-3.1024,-3.1024,-3.1024,-3.1024,-3.1024,-3.1024,-3.1024,-3.1024,-3.1024,-3.1024,-3.1024,-3.1024,-3.1024,-3.1024,-3.1024,-3.1024,-3.1024,-3.1024,-3.1024,-3.1024,-3.1024,-3.1024,-3.1024,-3.1024,-3.1024,-3.1024,-3.1024,-3.1024,-3.1024,-3.1024,-3.1024,-3.1024,-3.1024,-3.1061,-3.1099,-3.1136,-3.1248,-3.1323,-3.1347,-3.1072,-3.0871,-3.0741,-3.0392,-2.9807,-2.9198,-2.8806,-4.4372,-4.409,-4.3452,-4.3263,-4.3234,-4.2623,-4.2445,-4.2602,-4.2602,-4.2696,-4.2945,-4.3052,-4.3295,-4.3671,-4.4126,-4.4384,-4.4542,-4.4598,-4.4598,-4.4598,-4.4598,-4.4598,-4.4479,-4.3741,-4.2746,-4.2126,-4.108,-4.034,-3.968,-3.905,-3.8722,-3.8528,-3.8148,-3.7669,-3.7268,-3.7059,-3.6816,-3.6445,-3.6178,-3.5861,-3.5587,-3.5504,-3.5504,-3.5489,-3.5489,-3.5444,-3.54,-3.5355,-3.5355,-3.534,-3.5415,-3.5459,-3.5424,-3.5115,-3.4935,-3.4769,-3.4433,-3.4059,-3.3848,-3.3318,-3.2917,-3.2704,-3.2372,-3.2023,-3.1669,-3.1299,-3.1099,-3.1024,-3.1024,-3.1024,-3.1024,-3.1024,-3.1024,-3.1024,-3.1024,-3.1024,-3.1024,-3.1024,-3.1024,-3.1024,-3.1024,-3.1024,-3.1024,-3.1024,-3.1024,-3.1024,-3.1024,-3.1024,-3.1024,-3.1024,-3.1024,-3.1024,-3.1024,-3.1024,-3.1024,-3.1024,-3.1024,-3.1024,-3.1024,-3.1024,-3.1024,-3.1024,-3.1024,-3.1024,-3.1061,-3.1061,-3.1136,-3.1123,-3.1046,-3.0939,-3.0787,-3.0599,-3.0372,-2.9693,-2.9021,-4.3331,-4.3136,-4.288,-4.2784,-4.28,-4.2494,-4.2476,-4.2571,-4.2602,-4.2696,-4.2899,-4.3052,-4.3342,-4.3747,-4.4097,-4.4253,-4.4412,-4.4542,-4.4598,-4.4598,-4.4598,-4.4598,-4.4429,-4.3792,-4.2949,-4.2072,-4.1215,-4.0258,-3.9605,-3.905,-3.8711,-3.8432,-3.8107,-3.7639,-3.7208,-3.7075,-3.6816,-3.6492,-3.6178,-3.5814,-3.5587,-3.5489,-3.5489,-3.5489,-3.5489,-3.531,-3.5026,-3.4921,-3.4696,-3.4502,-3.4367,-3.4577,-3.4737,-3.4646,-3.4507,-3.4868,-3.4312,-3.3985,-3.3813,-3.3213,-3.2881,-3.2668,-3.2372,-3.2036,-3.1633,-3.1261,-3.1024,-3.1024,-3.1024,-3.1024,-3.1024,-3.1024,-3.1024,-3.1024,-3.1024,-3.1024,-3.1024,-3.1024,-3.1024,-3.1024,-3.1024,-3.1024,-3.1024,-3.1024,-3.1024,-3.1024,-3.1024,-3.1024,-3.1024,-3.1024,-3.1024,-3.1024,-3.1024,-3.1024,-3.1024,-3.1024,-3.1024,-3.1024,-3.1024,-3.1024,-3.1024,-3.1024,-3.1024,-3.1024,-3.1024,-3.1024,-3.1024,-3.1011,-3.1035,-3.0957,-3.0852,-3.0666,-3.0467,-3.0155,-2.9464,-4.2539,-4.2445,-4.2445,-4.2429,-4.2461,-4.2461,-4.2508,-4.2602,-4.2602,-4.2696,-4.2852,-4.3021,-4.3402,-4.3839,-4.4056,-4.4212,-4.431,-4.4514,-4.457,-4.4598,-4.4598,-4.4598,-4.4333,-4.3747,-4.2878,-4.2017,-4.1097,-4.0147,-3.9363,-3.8849,-3.8544,-3.8335,-3.7976,-3.7596,-3.724,-3.7014,-3.6816,-3.632,-3.61,-3.5829,-3.5554,-3.5489,-3.5489,-3.5489,-3.5429,-3.5175,-3.4623,-3.4502,-3.4203,-3.3724,-3.3634,-3.3888,-3.4141,-3.4186,-3.423,-3.4464,-3.4124,-3.3951,-3.3709,-3.3248,-3.2797,-3.2561,-3.23,-3.1853,-3.1633,-3.1261,-3.1024,-3.1024,-3.1024,-3.1024,-3.1024,-3.1024,-3.1024,-3.1024,-3.1024,-3.1024,-3.1024,-3.1024,-3.1024,-3.1024,-3.1024,-3.1024,-3.1024,-3.1024,-3.1024,-3.1024,-3.1024,-3.1024,-3.1024,-3.1024,-3.1024,-3.1024,-3.1024,-3.1024,-3.1024,-3.1024,-3.1024,-3.1024,-3.1024,-3.1024,-3.1024,-3.1024,-3.1024,-3.1024,-3.1024,-3.1024,-3.1024,-3.1024,-3.1024,-3.0959,-3.0893,-3.0738,-3.0542,-3.027,-2.9784,-4.2602,-4.2602,-4.2571,-4.2571,-4.2571,-4.2571,-4.2602,-4.2602,-4.2602,-4.2634,-4.2728,-4.2959,-4.3402,-4.3822,-4.4027,-4.4184,-4.431,-4.4514,-4.457,-4.4598,-4.4598,-4.457,-4.4288,-4.3636,-4.2768,-4.1881,-4.0961,-3.9929,-3.8996,-3.86,-3.8331,-3.8116,-3.7831,-3.7435,-3.7151,-3.6938,-3.6616,-3.6226,-3.602,-3.5829,-3.5587,-3.5489,-3.5489,-3.5489,-3.5444,-3.5175,-3.4548,-3.4339,-3.3918,-3.329,-3.32,-3.3335,-3.3498,-3.3652,-3.3819,-3.41,-3.407,-3.393,-3.3736,-3.3227,-3.2775,-3.2489,-3.2155,-3.172,-3.1609,-3.1248,-3.1061,-3.1024,-3.1024,-3.1024,-3.1024,-3.1024,-3.1024,-3.1024,-3.1024,-3.1024,-3.1024,-3.1024,-3.1024,-3.1024,-3.1024,-3.1024,-3.1024,-3.1024,-3.1024,-3.1024,-3.1024,-3.1024,-3.1024,-3.1024,-3.1024,-3.1024,-3.1024,-3.1024,-3.1024,-3.1024,-3.1024,-3.1024,-3.1024,-3.1024,-3.1024,-3.1024,-3.1024,-3.1024,-3.1024,-3.1024,-3.1024,-3.1024,-3.1024,-3.1024,-3.0934,-3.0843,-3.066,-3.0375,-2.9722,-4.279,-4.2759,-4.2665,-4.2602,-4.2602,-4.2602,-4.2602,-4.2602,-4.2602,-4.2665,-4.279,-4.3037,-4.3265,-4.3628,-4.3969,-4.4126,-4.4196,-4.4468,-4.457,-4.4598,-4.4598,-4.4542,-4.417,-4.3536,-4.2713,-4.1744,-4.0823,-3.9792,-3.876,-3.8375,-3.8091,-3.786,-3.761,-3.7329,-3.7044,-3.6816,-3.6429,-3.6147,-3.5988,-3.5829,-3.5554,-3.5489,-3.5489,-3.5489,-3.4996,-3.4562,-3.3949,-3.3455,-3.2946,-3.2527,-3.2377,-3.2572,-3.2826,-3.2971,-3.329,-3.377,-3.3758,-3.3806,-3.3762,-3.3234,-3.2775,-3.2372,-3.2036,-3.1757,-3.1646,-3.1323,-3.1136,-3.1061,-3.1024,-3.1024,-3.1024,-3.1024,-3.1024,-3.1024,-3.1024,-3.1024,-3.1024,-3.1024,-3.1024,-3.1024,-3.1024,-3.1024,-3.1024,-3.1024,-3.1024,-3.1024,-3.1024,-3.1024,-3.1024,-3.1024,-3.1024,-3.1024,-3.1024,-3.1024,-3.1024,-3.1024,-3.1024,-3.1024,-3.1024,-3.1024,-3.1024,-3.1024,-3.1024,-3.1024,-3.1024,-3.1024,-3.1024,-3.1024,-3.1024,-3.1024,-3.1024,-3.096,-3.0751,-3.0479,-2.9954,-4.2961,-4.2899,-4.2728,-4.2665,-4.2602,-4.2602,-4.2602,-4.2602,-4.2602,-4.2696,-4.2899,-4.3052,-4.3204,-4.3492,-4.3835,-4.4068,-4.4155,-4.4372,-4.4514,-4.4542,-4.4514,-4.444,-4.3973,-4.3239,-4.2234,-4.1488,-4.0437,-3.9325,-3.856,-3.8189,-3.7902,-3.7639,-3.7373,-3.7165,-3.6984,-3.6677,-3.6336,-3.6084,-3.5988,-3.5829,-3.5554,-3.5489,-3.5489,-3.54,-3.4891,-3.4264,-3.3604,-3.3036,-3.2318,-3.1869,-3.166,-3.1795,-3.202,-3.2318,-3.2671,-3.312,-3.3495,-3.356,-3.3502,-3.3213,-3.2725,-3.2372,-3.2073,-3.1817,-3.1669,-3.1508,-3.1323,-3.1211,-3.1136,-3.1099,-3.1061,-3.1061,-3.1024,-3.1024,-3.1024,-3.1024,-3.1024,-3.1024,-3.1024,-3.1024,-3.1024,-3.1024,-3.1024,-3.1024,-3.1024,-3.1024,-3.1024,-3.1024,-3.1024,-3.1024,-3.1024,-3.1024,-3.1024,-3.1024,-3.1024,-3.1024,-3.1024,-3.1024,-3.1024,-3.1024,-3.1024,-3.1024,-3.1024,-3.1024,-3.1024,-3.1024,-3.1024,-3.1024,-3.1024,-3.1024,-3.1024,-3.1024,-3.0934,-3.0699,-3.0424,-4.3037,-4.2916,-4.2899,-4.2806,-4.2634,-4.2602,-4.2602,-4.2602,-4.2602,-4.2713,-4.2852,-4.3021,-4.3174,-4.3432,-4.3747,-4.3998,-4.4143,-4.427,-4.4412,-4.4514,-4.4412,-4.4321,-4.3625,-4.2718,-4.1721,-4.1099,-3.9939,-3.8846,-3.8391,-3.8062,-3.7727,-3.7433,-3.718,-3.6999,-3.6938,-3.6693,-3.6336,-3.6084,-3.602,-3.5797,-3.5554,-3.5489,-3.5489,-3.534,-3.4696,-3.4009,-3.3499,-3.2691,-3.2034,-3.1615,-3.1511,-3.1585,-3.1631,-3.1976,-3.2197,-3.2281,-3.3184,-3.3452,-3.3307,-3.294,-3.2648,-3.2431,-3.2155,-3.195,-3.1853,-3.1706,-3.1559,-3.1447,-3.1373,-3.1323,-3.1248,-3.1136,-3.1099,-3.1099,-3.1099,-3.1136,-3.1136,-3.1136,-3.1174,-3.1174,-3.1099,-3.1024,-3.1024,-3.1024,-3.1024,-3.1024,-3.1024,-3.1024,-3.1024,-3.1024,-3.1024,-3.1024,-3.1024,-3.1024,-3.1024,-3.1024,-3.1024,-3.1024,-3.1024,-3.1024,-3.1024,-3.1024,-3.1024,-3.1024,-3.1024,-3.1024,-3.1024,-3.1024,-3.1099,-3.1136,-3.1024,-3.1024,-3.0998,-3.0932,-3.0708,-4.3402,-4.3358,-4.3129,-4.2945,-4.279,-4.2665,-4.2602,-4.2602,-4.2602,-4.2634,-4.2759,-4.2959,-4.3096,-4.3295,-4.3658,-4.3969,-4.4097,-4.4253,-4.4384,-4.4367,-4.4276,-4.3798,-4.312,-4.2171,-4.121,-4.0374,-3.918,-3.8444,-3.8217,-3.7889,-3.7596,-3.73,-3.6968,-3.677,-3.6693,-3.6523,-3.632,-3.6084,-3.5988,-3.5829,-3.5522,-3.5489,-3.5474,-3.5429,-3.4427,-3.3754,-3.3395,-3.2467,-3.1795,-3.154,-3.1496,-3.1496,-3.1496,-3.1781,-3.1872,-3.2122,-3.2914,-3.3433,-3.3509,-3.3416,-3.2966,-3.2682,-3.2381,-3.2191,-3.2096,-3.1927,-3.178,-3.1633,-3.1559,-3.1522,-3.1485,-3.1447,-3.141,-3.141,-3.1447,-3.141,-3.1447,-3.141,-3.1447,-3.1447,-3.141,-3.1336,-3.1336,-3.1248,-3.1211,-3.1174,-3.1136,-3.1024,-3.1024,-3.1024,-3.1024,-3.1024,-3.1024,-3.1024,-3.1024,-3.1099,-3.1099,-3.1099,-3.1061,-3.1024,-3.1024,-3.1061,-3.1061,-3.1099,-3.1061,-3.1024,-3.1099,-3.1174,-3.1299,-3.1336,-3.1211,-3.1174,-3.1198,-3.1235,-3.1206,-4.3717,-4.3598,-4.3372,-4.3143,-4.2945,-4.2759,-4.2665,-4.2602,-4.2602,-4.2602,-4.2665,-4.2943,-4.3096,-4.3218,-4.3552,-4.3881,-4.401,-4.4126,-4.4241,-4.4162,-4.3848,-4.3342,-4.2587,-4.1574,-4.0609,-3.9743,-3.8967,-3.8278,-3.796,-3.7714,-3.7389,-3.7043,-3.6769,-3.6631,-3.6523,-3.646,-3.632,-3.6115,-3.5988,-3.5814,-3.5587,-3.5459,-3.5355,-3.4891,-3.4173,-3.3395,-3.2931,-3.2228,-3.1496,-3.1496,-3.1496,-3.1496,-3.1496,-3.1526,-3.1632,-3.1961,-3.2545,-3.3258,-3.3821,-3.3859,-3.3472,-3.3192,-3.2775,-3.2489,-3.2359,-3.2191,-3.2059,-3.1913,-3.178,-3.1706,-3.1706,-3.1706,-3.1633,-3.1669,-3.1633,-3.1633,-3.1633,-3.1633,-3.1633,-3.1633,-3.1633,-3.1633,-3.1596,-3.1485,-3.141,-3.136,-3.1286,-3.1174,-3.1061,-3.1061,-3.1061,-3.1061,-3.1099,-3.1123,-3.1174,-3.1261,-3.1261,-3.1211,-3.1174,-3.1136,-3.1211,-3.1323,-3.1248,-3.1187,-3.1261,-3.1299,-3.1248,-3.1323,-3.1485,-3.1485,-3.1373,-3.136,-3.1397,-3.1434,-3.1471,-4.3906,-4.3658,-4.3611,-4.3432,-4.3143,-4.2992,-4.2806,-4.2602,-4.2602,-4.2602,-4.2634,-4.2959,-4.3096,-4.3204,-4.3462,-4.3717,-4.3881,-4.3939,-4.3898,-4.3788,-4.3342,-4.2758,-4.1951,-4.0892,-4.0017,-3.9373,-3.871,-3.8078,-3.7714,-3.7494,-3.715,-3.6816,-3.6631,-3.6523,-3.6492,-3.6429,-3.6258,-3.6068,-3.5988,-3.5797,-3.5554,-3.5489,-3.5175,-3.4637,-3.3918,-3.323,-3.2662,-3.1929,-3.1585,-3.1496,-3.1496,-3.1496,-3.1496,-3.1496,-3.1409,-3.1664,-3.2307,-3.3293,-3.4041,-3.4023,-3.4025,-3.3716,-3.3213,-3.2881,-3.2668,-3.2538,-3.2359,-3.225,-3.2155,-3.2059,-3.1963,-3.189,-3.178,-3.178,-3.1767,-3.1767,-3.178,-3.178,-3.1767,-3.1767,-3.1767,-3.1767,-3.178,-3.1706,-3.1619,-3.1559,-3.1485,-3.136,-3.1248,-3.1174,-3.1174,-3.1174,-3.1248,-3.131,-3.136,-3.141,-3.141,-3.141,-3.1447,-3.1447,-3.1522,-3.1522,-3.1447,-3.141,-3.1522,-3.1559,-3.1559,-3.1559,-3.1633,-3.1633,-3.1693,-3.1633,-3.1656,-3.1633,-3.1646,-4.4333,-4.4219,-4.4023,-4.3776,-4.3432,-4.3143,-4.2929,-4.2806,-4.2665,-4.2665,-4.2821,-4.3021,-4.3174,-4.3342,-4.3539,-4.3734,-4.3822,-4.3798,-4.351,-4.3177,-4.2748,-4.1896,-4.1047,-4.0207,-3.9467,-3.8841,-3.8277,-3.7963,-3.7671,-3.7345,-3.7044,-3.6723,-3.6585,-3.6523,-3.646,-3.6383,-3.6195,-3.6037,-3.602,-3.5765,-3.5587,-3.5489,-3.504,-3.4427,-3.3814,-3.3155,-3.2422,-3.1839,-3.154,-3.1496,-3.1496,-3.1496,-3.1496,-3.1525,-3.1557,-3.202,-3.2654,-3.3372,-3.3991,-3.422,-3.4312,-3.421,-3.3785,-3.3452,-3.3171,-3.2895,-3.2668,-3.261,-3.2574,-3.2467,-3.2395,-3.2286,-3.2228,-3.2191,-3.2178,-3.2178,-3.2191,-3.2178,-3.2178,-3.2141,-3.2155,-3.2082,-3.2082,-3.195,-3.1913,-3.1817,-3.1706,-3.1633,-3.1485,-3.1397,-3.1336,-3.1336,-3.1397,-3.1508,-3.1508,-3.1559,-3.1559,-3.1572,-3.1669,-3.1706,-3.1706,-3.1706,-3.1633,-3.1669,-3.1817,-3.1817,-3.1817,-3.1853,-3.195,-3.2119,-3.2178,-3.2009,-3.1927,-3.1927,-3.1963,-4.4631,-4.4474,-4.4321,-4.408,-4.3759,-4.3505,-4.3295,-4.3146,-4.2898,-4.2883,-4.3007,-4.316,-4.3265,-4.3402,-4.3539,-4.3658,-4.3747,-4.3365,-4.3049,-4.2779,-4.2147,-4.117,-4.0236,-3.9575,-3.8979,-3.8359,-3.7992,-3.7817,-3.7553,-3.7241,-3.6908,-3.6647,-3.6523,-3.6523,-3.646,-3.632,-3.6148,-3.6037,-3.5925,-3.5733,-3.5572,-3.5444,-3.4936,-3.4218,-3.3634,-3.3066,-3.2213,-3.1645,-3.154,-3.1496,-3.1496,-3.1496,-3.1496,-3.1525,-3.1809,-3.2243,-3.2806,-3.3426,-3.4041,-3.4446,-3.4547,-3.4515,-3.4278,-3.4005,-3.3681,-3.3388,-3.3213,-3.3086,-3.3002,-3.2917,-3.2832,-3.2797,-3.2725,-3.2704,-3.2654,-3.2654,-3.2654,-3.2654,-3.2654,-3.2632,-3.2596,-3.2525,-3.2431,-3.23,-3.2228,-3.2228,-3.2228,-3.2191,-3.1936,-3.1693,-3.1559,-3.1485,-3.1596,-3.1706,-3.1743,-3.1817,-3.1877,-3.195,-3.2009,-3.2046,-3.1986,-3.2059,-3.2119,-3.2119,-3.2096,-3.2119,-3.2191,-3.2228,-3.2322,-3.2453,-3.2596,-3.2503,-3.2395,-3.2359,-3.2395,-4.462,-4.4321,-4.435,-4.4063,-4.3942,-4.3623,-4.3448,-4.3462,-4.3029,-4.3059,-4.3125,-4.3312,-4.3402,-4.3462,-4.3568,-4.3482,-4.3326,-4.2928,-4.2464,-4.2319,-4.1299,-4.0337,-3.9719,-3.9137,-3.8634,-3.8168,-3.7847,-3.773,-3.745,-3.7166,-3.6847,-3.6523,-3.6492,-3.6492,-3.646,-3.6258,-3.6085,-3.6005,-3.5814,-3.5621,-3.5554,-3.534,-3.4906,-3.3799,-3.335,-3.2961,-3.1914,-3.1496,-3.1496,-3.1496,-3.1496,-3.1496,-3.1496,-3.1511,-3.1884,-3.2243,-3.2735,-3.3344,-3.389,-3.4381,-3.4728,-3.4743,-3.4635,-3.4433,-3.4196,-3.3799,-3.3556,-3.3486,-3.3403,-3.3318,-3.3248,-3.3248,-3.3178,-3.3143,-3.3108,-3.3108,-3.3108,-3.3108,-3.3108,-3.3072,-3.3037,-3.2966,-3.2895,-3.2767,-3.2574,-3.2632,-3.2596,-3.2574,-3.2467,-3.2082,-3.1986,-3.1853,-3.195,-3.2096,-3.2096,-3.2155,-3.2264,-3.2322,-3.2395,-3.2395,-3.2359,-3.2489,-3.2654,-3.2561,-3.2431,-3.2574,-3.2632,-3.2668,-3.2717,-3.2824,-3.2917,-3.2917,-3.2881,-3.2881,-3.286,-4.3366,-4.3262,-4.2952,-4.2763,-4.2699,-4.2451,-4.2356,-4.2283,-4.2227,-4.263,-4.3207,-4.3339,-4.3413,-4.3386,-4.34,-4.3201,-4.2721,-4.2353,-4.1823,-4.1276,-4.0459,-3.9847,-3.9253,-3.8925,-3.8444,-3.8107,-3.7817,-3.7612,-3.7241,-3.6999,-3.6847,-3.6523,-3.6492,-3.6492,-3.646,-3.6211,-3.6037,-3.5941,-3.5748,-3.5572,-3.5522,-3.5325,-3.4906,-3.3933,-3.335,-3.2751,-3.1914,-3.1496,-3.1496,-3.1496,-3.1496,-3.1496,-3.1496,-3.1496,-3.157,-3.1824,-3.2363,-3.3004,-3.3585,-3.4161,-3.4599,-3.4919,-3.4905,-3.482,-3.4568,-3.4108,-3.3848,-3.3848,-3.3813,-3.373,-3.3695,-3.3695,-3.366,-3.3626,-3.3556,-3.3556,-3.3556,-3.3556,-3.357,-3.3486,-3.3417,-3.3368,-3.3297,-3.3192,-3.2988,-3.2846,-3.2739,-3.2704,-3.2739,-3.2574,-3.261,-3.2516,-3.2467,-3.2538,-3.2467,-3.2516,-3.2574,-3.2646,-3.2682,-3.2704,-3.2739,-3.2846,-3.2988,-3.2846,-3.2775,-3.2952,-3.3072,-3.3094,-3.3129,-3.3248,-3.3297,-3.3333,-3.3507,-3.3556,-3.3486,-4.2979,-4.286,-4.2593,-4.2479,-4.2453,-4.232,-4.2186,-4.2095,-4.2068,-4.2312,-4.2671,-4.2667,-4.2684,-4.2742,-4.268,-4.2568,-4.2005,-4.1674,-4.116,-4.0558,-3.9973,-3.9462,-3.9029,-3.8777,-3.8387,-3.8033,-3.7759,-3.7464,-3.706,-3.6969,-3.6847,-3.6554,-3.6492,-3.646,-3.6352,-3.6132,-3.5941,-3.5863,-3.5619,-3.5522,-3.5415,-3.513,-3.4607,-3.3724,-3.3095,-3.2482,-3.1944,-3.1496,-3.1496,-3.1496,-3.1496,-3.1496,-3.1496,-3.1496,-3.1496,-3.1705,-3.2138,-3.2647,-3.3185,-3.3781,-3.4388,-3.4726,-3.5073,-3.4957,-3.4968,-3.4582,-3.4448,-3.4399,-3.4399,-3.4366,-3.4278,-3.4244,-3.4142,-3.4074,-3.404,-3.3991,-3.3922,-3.3854,-3.3833,-3.3744,-3.3709,-3.3675,-3.364,-3.3591,-3.3472,-3.3437,-3.3262,-3.3178,-3.3178,-3.3072,-3.3108,-3.3108,-3.3002,-3.2775,-3.2632,-3.2717,-3.286,-3.2931,-3.3002,-3.3192,-3.3297,-3.3297,-3.3262,-3.3248,-3.3283,-3.3417,-3.3486,-3.3528,-3.3542,-3.364,-3.3709,-3.3779,-3.3965,-3.4122,-3.4045,-4.2752,-4.2636,-4.2475,-4.2441,-4.2433,-4.2373,-4.2227,-4.2035,-4.2016,-4.1866,-4.1674,-4.1543,-4.1511,-4.1655,-4.1571,-4.1415,-4.1238,-4.1,-4.0553,-4.0078,-3.9613,-3.9242,-3.8997,-3.875,-3.8359,-3.7976,-3.7671,-3.7345,-3.6999,-3.6969,-3.6847,-3.6554,-3.646,-3.6414,-3.6211,-3.6053,-3.5926,-3.5767,-3.5589,-3.5447,-3.516,-3.4818,-3.4204,-3.3529,-3.2856,-3.2183,-3.172,-3.1496,-3.1496,-3.1496,-3.1496,-3.1496,-3.1496,-3.1496,-3.1496,-3.1645,-3.1899,-3.2303,-3.2751,-3.3455,-3.4053,-3.4545,-3.4924,-3.5094,-3.5077,-3.5115,-3.4968,-3.4935,-3.4935,-3.4835,-3.475,-3.4664,-3.4582,-3.4515,-3.4448,-3.4414,-3.4298,-3.423,-3.4142,-3.4054,-3.4054,-3.402,-3.402,-3.402,-3.3985,-3.3985,-3.3917,-3.3931,-3.3813,-3.3626,-3.3556,-3.3472,-3.3333,-3.3143,-3.2952,-3.3037,-3.3248,-3.3333,-3.3452,-3.3675,-3.3779,-3.3695,-3.3695,-3.3799,-3.3882,-3.3951,-3.402,-3.4074,-3.4054,-3.4034,-3.4157,-3.4244,-3.4346,-3.4452,-3.4514,-4.1302,-4.1278,-4.1133,-4.1094,-4.1111,-4.0996,-4.0888,-4.0813,-4.0764,-4.0654,-4.0646,-4.0516,-4.0762,-4.1849,-4.1838,-4.1499,-4.0712,-4.0446,-3.9999,-3.9524,-3.9398,-3.9127,-3.8849,-3.8667,-3.8387,-3.8004,-3.7612,-3.7301,-3.703,-3.6969,-3.68,-3.6523,-3.6492,-3.6383,-3.6211,-3.6053,-3.591,-3.5703,-3.5407,-3.5235,-3.4788,-3.4444,-3.4128,-3.3514,-3.2856,-3.2168,-3.169,-3.1511,-3.1496,-3.1496,-3.1496,-3.1496,-3.1496,-3.1496,-3.1496,-3.1511,-3.1765,-3.1989,-3.2482,-3.2886,-3.3395,-3.4173,-3.4541,-3.4931,-3.5063,-3.5362,-3.5279,-3.5261,-3.5195,-3.5016,-3.4883,-3.4883,-3.485,-3.485,-3.4802,-3.4769,-3.4735,-3.4702,-3.4668,-3.4616,-3.4616,-3.4601,-3.4568,-3.4501,-3.438,-3.4346,-3.421,-3.4142,-3.4088,-3.402,-3.3951,-3.3868,-3.3764,-3.3744,-3.3695,-3.3577,-3.3695,-3.3744,-3.3848,-3.402,-3.4074,-3.4005,-3.404,-3.4176,-3.4361,-3.4462,-3.453,-3.4448,-3.4549,-3.4549,-3.4683,-3.4769,-3.4773,-3.4626,-3.4486]},{"header":{"parameterUnit":"m.s-1","parameterCategory":1,"la1":31.0,"la2":29.5877,"lo1":-88.7671,"lo2":-86.6584,"dy":0.0162,"dx":0.0185,"nx":115,"ny":88,"refTime":"2023-06-26T00:00:00:Z","depth":0,"parameterNumber":3,"parameterNumberName":"V-component_of_WINDS"},"data":[0.0,0.0,0.0,0.0,0.0,0.0,0.0,0.0,0.0,0.0,0.0,0.0,0.0,0.0,0.0,0.0,0.0,0.0,0.0,0.0,0.0,0.0,0.0,0.0,0.0,0.0,0.0,0.0,0.0,0.0,0.0,0.0,0.0,0.0,0.0,0.0,0.0,0.0,0.0,0.0,0.0,0.0,0.0,0.0,0.0,0.0,0.0,0.0,0.0,0.0,0.0,0.0,0.0,0.0,0.0,0.0,0.0,0.0,0.0,0.0,0.0,0.0,0.0,0.0,0.0,0.0,0.0,0.0,0.0,0.0,0.0,0.0,0.0,0.0,0.0,0.0,0.0,0.0,0.0,0.0,0.0,0.0,0.0,0.0,0.0,0.0,0.0,0.0,0.0,0.0,0.0,0.0,0.0,0.0,0.0,0.0,0.0,0.0,0.0,0.0,0.0,0.0,0.0,0.0,0.0,0.0,0.0,0.0,0.0,0.0,0.0,0.0,0.0,0.0,0.0,0.0,0.0,0.0,0.0,0.0,0.0,0.0,0.0,0.0,0.0,0.0,0.0,0.0,0.0,0.0,0.0,0.0,0.0,0.0,0.0,0.0,0.0,0.0,0.0,0.0,0.0,0.0,0.0,0.0,0.0,0.0,0.0,0.0,0.0,0.0,0.0,0.0,0.0,0.0,0.0,0.0,0.0,0.0,0.0,0.0,0.0,0.0,0.0,0.0,0.0,0.0,0.0,0.0,0.0,0.0,0.0,0.0,0.0,0.0,0.0,0.0,0.0,0.0,0.0,0.0,0.0,0.0,0.0,0.0,0.0,0.0,0.0,0.0,0.0,0.0,0.0,0.0,0.0,0.0,0.0,0.0,0.0,0.0,0.0,0.0,0.0,0.0,0.0,0.0,0.0,0.0,0.0,0.0,0.0,0.0,0.0,0.0,0.0,0.0,0.0,0.0,0.0,0.0,0.0,0.0,0.0,0.0,0.0,0.0,0.0,0.0,0.0,0.0,0.0,0.0,0.0,0.0,0.0,0.0,0.0,0.0,0.0,0.0,0.0,0.0,0.0,0.0,0.0,0.0,0.0,0.0,0.0,0.0,0.0,0.0,0.0,0.0,0.0,0.0,0.0,0.0,0.0,0.0,0.0,0.0,0.0,0.0,0.0,0.0,0.0,0.0,0.0,0.0,0.0,0.0,0.0,0.0,0.0,0.0,0.0,0.0,0.0,0.0,0.0,0.0,0.0,0.0,0.0,0.0,0.0,0.0,0.0,0.0,0.0,0.0,0.0,0.0,0.0,0.0,0.0,0.0,0.0,0.0,0.0,0.0,0.0,0.0,0.0,0.0,0.0,0.0,0.0,0.0,0.0,0.0,0.0,0.0,0.0,0.0,0.0,0.0,0.0,0.0,0.0,0.0,0.0,0.0,0.0,0.0,0.0,0.0,0.0,0.0,0.0,0.0,0.0,0.0,0.0,0.0,0.0,0.0,0.0,0.0,0.0,0.0,0.0,0.0,0.0,0.0,0.0,0.0,0.0,0.0,0.0,0.0,0.0,0.0,0.0,0.0,0.0,0.0,0.0,0.0,0.0,0.0,0.0,0.0,0.0,0.0,0.0,0.0,0.0,0.0,0.0,0.0,0.0,0.0,0.0,0.0,0.0,0.0,0.0,0.0,0.0,0.0,0.0,0.0,0.0,0.0,0.0,0.0,0.0,0.0,0.0,0.0,0.0,0.0,0.0,0.0,0.0,0.0,0.0,0.0,0.0,0.0,0.0,0.0,0.0,0.0,0.0,0.0,0.0,0.0,0.0,0.0,0.0,0.0,0.0,0.0,0.0,0.0,0.0,0.0,0.0,0.0,0.0,0.0,0.0,0.0,0.0,0.0,0.0,0.0,0.0,0.0,0.0,0.0,0.0,0.0,0.0,0.0,0.0,0.0,0.0,0.0,0.0,0.0,0.0,0.0,0.0,0.0,0.0,0.0,0.0,0.0,0.0,0.0,0.0,0.0,0.0,0.0,0.0,0.0,0.0,0.0,0.0,0.0,0.0,0.0,0.0,0.0,0.0,0.0,0.0,0.0,0.0,0.0,0.0,0.0,0.0,0.0,0.0,0.0,0.0,0.0,0.0,0.0,0.0,0.0,0.0,0.0,0.0,0.0,0.0,0.0,0.0,0.0,0.0,0.0,0.0,0.0,0.0,0.0,0.0,0.0,0.0,0.0,0.0,0.0,0.0,0.0,0.0,0.0,0.0,0.0,0.0,0.0,0.0,0.0,0.0,0.0,0.0,0.0,0.0,0.0,0.0,0.0,0.0,0.0,0.0,0.0,0.0,0.0,0.0,0.0,0.0,0.0,0.0,0.0,0.0,0.0,0.0,0.0,0.0,0.0,0.0,0.0,0.0,0.0,0.0,0.0,0.0,0.0,0.0,0.0,0.0,0.0,0.0,0.0,0.0,0.0,0.0,0.0,0.0,0.0,0.0,0.0,0.0,0.0,0.0,0.0,0.0,0.0,0.0,0.0,0.0,0.0,0.0,0.0,0.0,0.0,0.0,0.0,0.0,0.0,0.0,0.0,0.0,0.0,0.0,0.0,0.0,0.0,0.0,0.0,0.0,0.0,0.0,0.0,0.0,0.0,0.0,0.0,0.0,0.0,0.0,0.0,0.0,0.0,0.0,0.0,0.0,0.0,0.0,0.0,0.0,0.0,0.0,0.0,0.0,0.0,0.0,0.0,0.0,0.0,0.0,0.0,0.0,0.0,0.0,0.0,0.0,0.0,0.0,0.0,0.0,0.0,0.0,0.0,0.0,0.0,0.0,0.0,0.0,0.0,0.0,0.0,0.0,0.0,0.0,0.0,0.0,0.0,0.0,0.0,0.0,0.0,0.0,0.0,0.0,0.0,0.0,0.0,0.0,0.0,0.0,0.0,0.0,0.0,0.0,0.0,0.0,0.0,0.0,0.0,0.0,0.0,0.0,0.0,0.0,0.0,0.0,0.0,0.0,0.0,0.0,0.0,0.0,0.0,0.0,0.0,0.0,0.0,0.0,0.0,0.0,0.0,0.0,0.0,0.0,0.0,0.0,0.0,0.0,0.0,0.0,0.0,0.0,0.0,0.0,0.0,0.0,0.0,0.0,0.0,0.0,0.0,0.0,0.0,0.0,0.0,0.0,0.0,0.0,0.0,0.0,0.0,0.0,0.0,0.0,0.0,0.0,0.0,0.0,0.0,0.0,0.0,0.0,0.0,0.0,0.0,0.0,0.0,0.0,0.0,0.0,0.0,0.0,0.0,0.0,0.0,0.0,0.0,0.0,0.0,0.0,0.0,0.0,0.0,0.0,0.0,0.0,0.0,0.0,0.0,0.0,0.0,0.0,0.0,0.0,0.0,0.0,0.0,0.0,0.0,0.0,0.0,0.0,0.0,0.0,0.0,0.0,0.0,0.0,0.0,0.0,0.0,0.0,0.0,0.0,0.0,0.0,0.0,0.0,0.0,0.0,0.0,0.0,0.0,0.0,0.0,0.0,0.0,0.0,0.0,0.0,0.0,0.0,0.0,0.0,0.0,0.0,0.0,0.0,0.0,0.0,0.0,0.0,0.0,0.0,0.0,0.0,0.0,0.0,0.0,0.0,0.0,0.0,0.0,0.0,0.0,0.0,0.0,0.0,0.0,0.0,0.0,0.0,0.0,0.0,0.0,0.0,0.0,0.0,0.0,0.0,0.0,0.0,0.0,0.0,0.0,0.0,0.0,0.0,0.0,0.0,0.0,0.0,0.0,0.0,0.0,0.0,0.0,0.0,0.0,0.0,0.0,0.0,0.0,0.0,0.0,0.0,0.0,0.0,0.0,0.0,0.0,0.0,0.0,0.0,0.0,0.0,0.0,0.0,0.0,0.0,0.0,0.0,0.0,0.0,0.0,0.0,0.0,0.0,0.0,0.0,0.0,0.0,0.0,0.0,0.0,0.0,0.0,0.0,0.0,0.0,0.0,0.0,0.0,0.0,0.0,0.0,0.0,0.0,0.0,0.0,0.0,0.0,0.0,0.0,0.0,0.0,0.0,0.0,0.0,0.0,0.0,0.0,0.0,0.0,0.0,0.0,0.0,0.0,0.0,0.0,0.0,0.0,0.0,0.0,0.0,0.0,0.0,0.0,0.0,0.0,0.0,0.0,0.0,0.0,0.0,0.0,0.0,0.0,0.0,0.0,0.0,0.0,0.0,0.0,0.0,0.0,0.0,0.0,0.0,0.0,0.0,0.0,0.0,0.0,0.0,-2.0511,0.0,0.0,0.0,0.0,0.0,0.0,0.0,0.0,0.0,0.0,0.0,0.0,0.0,0.0,0.0,0.0,0.0,0.0,0.0,0.0,0.0,0.0,0.0,0.0,0.0,0.0,0.0,0.0,0.0,0.0,0.0,0.0,0.0,0.0,0.0,0.0,0.0,0.0,0.0,0.0,0.0,0.0,0.0,0.0,0.0,0.0,0.0,0.0,0.0,0.0,0.0,0.0,0.0,0.0,0.0,0.0,0.0,0.0,0.0,0.0,0.0,0.0,0.0,0.0,0.0,0.0,0.0,0.0,0.0,0.0,0.0,0.0,0.0,0.0,0.0,0.0,0.0,0.0,0.0,0.0,0.0,0.0,0.0,0.0,0.0,0.0,0.0,0.0,0.0,0.0,0.0,0.0,0.0,0.0,0.0,0.0,0.0,0.0,0.0,0.0,0.0,0.0,0.0,0.0,0.0,0.0,0.0,0.0,0.0,0.0,-2.1615,-2.1602,-2.1039,-2.0574,-2.0347,0.0,0.0,0.0,0.0,0.0,0.0,0.0,0.0,0.0,0.0,0.0,0.0,0.0,0.0,0.0,0.0,0.0,0.0,0.0,0.0,0.0,0.0,0.0,0.0,0.0,0.0,0.0,0.0,0.0,0.0,0.0,0.0,0.0,0.0,0.0,0.0,0.0,0.0,0.0,0.0,0.0,0.0,0.0,0.0,0.0,0.0,0.0,0.0,0.0,0.0,0.0,0.0,0.0,0.0,0.0,0.0,0.0,0.0,0.0,0.0,0.0,0.0,0.0,0.0,0.0,0.0,0.0,0.0,0.0,0.0,0.0,0.0,0.0,0.0,0.0,0.0,0.0,0.0,0.0,0.0,0.0,0.0,0.0,0.0,0.0,0.0,0.0,0.0,0.0,0.0,0.0,0.0,0.0,0.0,0.0,0.0,0.0,0.0,0.0,0.0,0.0,0.0,0.0,0.0,0.0,0.0,0.0,0.0,0.0,0.0,0.0,0.0,-2.1273,-2.0679,-2.0169,0.0,0.0,0.0,0.0,0.0,0.0,0.0,0.0,0.0,0.0,0.0,0.0,0.0,0.0,0.0,0.0,0.0,0.0,0.0,0.0,0.0,0.0,0.0,0.0,0.0,0.0,0.0,0.0,0.0,0.0,0.0,0.0,0.0,0.0,0.0,0.0,0.0,0.0,0.0,0.0,0.0,0.0,0.0,0.0,0.0,0.0,0.0,0.0,0.0,0.0,0.0,0.0,0.0,0.0,0.0,0.0,0.0,0.0,0.0,0.0,0.0,0.0,0.0,0.0,0.0,0.0,0.0,0.0,0.0,0.0,0.0,0.0,0.0,0.0,0.0,0.0,0.0,0.0,0.0,0.0,0.0,0.0,0.0,0.0,0.0,0.0,0.0,0.0,0.0,0.0,0.0,0.0,0.0,0.0,0.0,0.0,0.0,0.0,0.0,0.0,0.0,0.0,0.0,0.0,0.0,0.0,0.0,0.0,0.0,0.0,-2.3243,-2.2698,-2.1996,0.0,-2.0105,0.0,0.0,0.0,0.0,0.0,0.0,0.0,0.0,0.0,0.0,0.0,0.0,0.0,0.0,0.0,0.0,0.0,0.0,0.0,0.0,0.0,0.0,0.0,0.0,0.0,0.0,0.0,0.0,0.0,0.0,0.0,0.0,0.0,0.0,0.0,0.0,0.0,0.0,0.0,0.0,0.0,0.0,0.0,0.0,0.0,0.0,0.0,0.0,0.0,0.0,0.0,0.0,0.0,0.0,0.0,0.0,0.0,0.0,0.0,0.0,0.0,0.0,0.0,0.0,0.0,0.0,0.0,0.0,0.0,0.0,0.0,0.0,0.0,0.0,0.0,0.0,0.0,0.0,0.0,0.0,0.0,0.0,0.0,0.0,0.0,0.0,0.0,0.0,0.0,0.0,0.0,0.0,0.0,0.0,0.0,0.0,0.0,0.0,0.0,0.0,0.0,0.0,0.0,0.0,0.0,0.0,0.0,0.0,0.0,0.0,-2.3674,-2.3446,-2.2234,-2.1082,0.0,0.0,0.0,0.0,0.0,0.0,0.0,0.0,0.0,0.0,0.0,0.0,0.0,0.0,0.0,0.0,0.0,0.0,0.0,0.0,0.0,0.0,0.0,0.0,0.0,0.0,0.0,0.0,0.0,0.0,0.0,0.0,0.0,0.0,0.0,0.0,0.0,0.0,0.0,0.0,0.0,0.0,0.0,0.0,0.0,0.0,0.0,0.0,0.0,0.0,0.0,0.0,0.0,0.0,0.0,0.0,0.0,0.0,0.0,0.0,0.0,0.0,0.0,0.0,0.0,0.0,0.0,0.0,0.0,0.0,0.0,0.0,0.0,0.0,0.0,0.0,0.0,0.0,0.0,0.0,0.0,0.0,0.0,0.0,0.0,0.0,0.0,0.0,0.0,0.0,0.0,0.0,0.0,0.0,0.0,0.0,0.0,0.0,0.0,0.0,0.0,0.0,0.0,0.0,0.0,0.0,0.0,0.0,0.0,0.0,-2.4501,-2.4107,-2.3781,-2.2406,-2.1212,-2.0334,0.0,0.0,0.0,0.0,0.0,0.0,0.0,0.0,0.0,0.0,0.0,0.0,0.0,0.0,0.0,0.0,0.0,0.0,0.0,0.0,0.0,0.0,0.0,0.0,0.0,0.0,0.0,0.0,0.0,0.0,0.0,0.0,0.0,0.0,0.0,0.0,0.0,0.0,0.0,0.0,0.0,0.0,0.0,0.0,0.0,0.0,0.0,0.0,0.0,0.0,0.0,0.0,0.0,0.0,0.0,0.0,0.0,0.0,0.0,0.0,0.0,0.0,0.0,0.0,0.0,0.0,0.0,0.0,0.0,0.0,0.0,0.0,0.0,0.0,0.0,0.0,0.0,0.0,0.0,0.0,0.0,0.0,0.0,0.0,0.0,0.0,0.0,0.0,0.0,0.0,0.0,0.0,0.0,0.0,0.0,0.0,0.0,0.0,0.0,0.0,0.0,0.0,0.0,0.0,0.0,0.0,0.0,0.0,-2.5202,-2.5021,-2.4553,-2.3724,-2.2511,-2.1628,0.0,0.0,0.0,0.0,0.0,0.0,0.0,0.0,0.0,0.0,0.0,0.0,0.0,0.0,0.0,0.0,0.0,0.0,0.0,0.0,0.0,0.0,0.0,0.0,0.0,0.0,0.0,0.0,0.0,0.0,0.0,0.0,0.0,0.0,0.0,0.0,0.0,0.0,0.0,0.0,0.0,0.0,0.0,0.0,0.0,0.0,0.0,0.0,0.0,0.0,0.0,0.0,0.0,0.0,0.0,0.0,0.0,0.0,0.0,0.0,0.0,0.0,0.0,0.0,0.0,0.0,0.0,0.0,0.0,0.0,0.0,0.0,0.0,0.0,0.0,0.0,0.0,0.0,0.0,0.0,0.0,0.0,0.0,0.0,0.0,0.0,0.0,0.0,0.0,0.0,0.0,0.0,0.0,0.0,0.0,0.0,0.0,0.0,0.0,0.0,0.0,0.0,0.0,0.0,0.0,0.0,0.0,0.0,0.0,-2.5202,-2.509,-2.4594,-2.3738,-2.327,-2.2458,0.0,0.0,0.0,0.0,0.0,0.0,0.0,0.0,0.0,0.0,0.0,0.0,0.0,0.0,0.0,0.0,0.0,0.0,0.0,0.0,0.0,0.0,0.0,0.0,0.0,0.0,0.0,0.0,0.0,0.0,0.0,0.0,0.0,0.0,0.0,0.0,0.0,0.0,0.0,0.0,0.0,0.0,0.0,0.0,0.0,0.0,0.0,0.0,0.0,0.0,0.0,0.0,0.0,0.0,0.0,0.0,0.0,0.0,0.0,0.0,0.0,0.0,0.0,0.0,0.0,0.0,0.0,0.0,0.0,0.0,0.0,0.0,0.0,0.0,0.0,0.0,0.0,0.0,0.0,0.0,0.0,0.0,0.0,0.0,0.0,0.0,0.0,0.0,0.0,0.0,0.0,0.0,0.0,0.0,0.0,0.0,0.0,0.0,0.0,0.0,0.0,0.0,0.0,0.0,0.0,0.0,0.0,0.0,0.0,-2.5146,0.0,-2.4674,-2.4018,-2.379,-2.2972,0.0,0.0,0.0,0.0,0.0,0.0,0.0,0.0,0.0,0.0,0.0,0.0,0.0,0.0,0.0,0.0,0.0,0.0,0.0,0.0,0.0,0.0,0.0,0.0,0.0,0.0,0.0,0.0,0.0,0.0,0.0,0.0,0.0,0.0,0.0,0.0,0.0,0.0,0.0,0.0,0.0,0.0,0.0,0.0,0.0,0.0,0.0,0.0,0.0,0.0,0.0,0.0,0.0,0.0,0.0,0.0,0.0,0.0,0.0,0.0,0.0,0.0,0.0,0.0,0.0,0.0,0.0,0.0,0.0,0.0,0.0,0.0,0.0,0.0,0.0,0.0,0.0,0.0,0.0,0.0,0.0,0.0,0.0,0.0,0.0,0.0,0.0,0.0,0.0,0.0,0.0,0.0,0.0,0.0,0.0,0.0,0.0,0.0,0.0,0.0,0.0,0.0,0.0,0.0,0.0,0.0,0.0,0.0,-2.5369,-2.5047,-2.5032,-2.4904,-2.4607,-2.4043,-2.3209,0.0,0.0,0.0,0.0,0.0,0.0,0.0,0.0,0.0,0.0,0.0,0.0,0.0,0.0,0.0,0.0,0.0,0.0,0.0,0.0,0.0,0.0,0.0,0.0,0.0,0.0,0.0,0.0,0.0,0.0,0.0,0.0,0.0,0.0,0.0,0.0,0.0,0.0,0.0,0.0,0.0,0.0,0.0,0.0,0.0,0.0,0.0,0.0,0.0,0.0,0.0,0.0,0.0,0.0,0.0,0.0,0.0,0.0,0.0,0.0,0.0,0.0,0.0,0.0,0.0,0.0,0.0,0.0,0.0,0.0,0.0,0.0,0.0,0.0,0.0,0.0,0.0,0.0,0.0,0.0,0.0,0.0,0.0,0.0,0.0,0.0,0.0,0.0,0.0,0.0,0.0,0.0,0.0,0.0,0.0,0.0,0.0,0.0,0.0,0.0,0.0,0.0,0.0,0.0,0.0,0.0,0.0,0.0,0.0,-2.5644,-2.5615,-2.547,-2.5149,-2.4901,-2.4055,0.0,0.0,0.0,0.0,0.0,0.0,0.0,0.0,0.0,0.0,0.0,0.0,0.0,0.0,0.0,0.0,0.0,0.0,0.0,0.0,0.0,0.0,0.0,0.0,0.0,0.0,0.0,0.0,0.0,0.0,0.0,0.0,0.0,0.0,0.0,0.0,0.0,0.0,0.0,0.0,0.0,0.0,0.0,0.0,0.0,0.0,0.0,0.0,0.0,0.0,0.0,0.0,0.0,0.0,0.0,0.0,0.0,0.0,0.0,0.0,0.0,0.0,0.0,0.0,0.0,0.0,0.0,0.0,0.0,0.0,0.0,0.0,0.0,0.0,0.0,0.0,0.0,0.0,0.0,0.0,0.0,0.0,0.0,0.0,0.0,0.0,0.0,0.0,0.0,0.0,0.0,0.0,0.0,0.0,0.0,0.0,0.0,0.0,0.0,0.0,0.0,0.0,0.0,0.0,0.0,0.0,0.0,0.0,0.0,-2.6582,-2.6348,-2.6061,-2.5731,-2.5368,-2.4547,-2.3199,0.0,0.0,0.0,0.0,0.0,0.0,0.0,0.0,0.0,0.0,0.0,0.0,0.0,0.0,0.0,0.0,0.0,0.0,0.0,0.0,0.0,0.0,0.0,0.0,0.0,0.0,0.0,0.0,0.0,0.0,0.0,0.0,0.0,0.0,0.0,0.0,0.0,0.0,0.0,0.0,0.0,0.0,0.0,0.0,0.0,0.0,0.0,0.0,0.0,0.0,0.0,0.0,0.0,0.0,0.0,0.0,0.0,0.0,0.0,0.0,0.0,0.0,0.0,0.0,0.0,0.0,0.0,0.0,0.0,0.0,0.0,0.0,0.0,0.0,0.0,0.0,0.0,0.0,0.0,0.0,0.0,0.0,0.0,0.0,0.0,0.0,0.0,0.0,0.0,0.0,0.0,0.0,0.0,0.0,0.0,0.0,0.0,0.0,0.0,0.0,0.0,0.0,0.0,0.0,0.0,0.0,0.0,0.0,-2.7691,-2.7159,-2.6708,-2.6365,-2.5606,-2.4756,0.0,0.0,0.0,0.0,0.0,0.0,0.0,0.0,0.0,0.0,0.0,0.0,0.0,0.0,0.0,0.0,0.0,0.0,0.0,0.0,0.0,0.0,0.0,0.0,0.0,0.0,0.0,0.0,0.0,0.0,0.0,0.0,0.0,0.0,0.0,0.0,0.0,0.0,0.0,0.0,0.0,0.0,0.0,0.0,0.0,0.0,0.0,0.0,0.0,0.0,0.0,0.0,0.0,0.0,0.0,0.0,0.0,0.0,0.0,0.0,0.0,0.0,0.0,0.0,0.0,0.0,0.0,0.0,0.0,0.0,0.0,0.0,0.0,0.0,0.0,0.0,0.0,0.0,0.0,0.0,0.0,0.0,0.0,0.0,0.0,0.0,0.0,0.0,0.0,0.0,0.0,0.0,0.0,0.0,0.0,0.0,0.0,0.0,0.0,0.0,0.0,0.0,0.0,0.0,0.0,0.0,0.0,0.0,0.0,-2.7678,-2.7823,-2.7596,-2.6978,-2.6033,-2.5117,0.0,0.0,0.0,0.0,0.0,0.0,0.0,0.0,0.0,0.0,0.0,0.0,0.0,0.0,0.0,0.0,0.0,0.0,0.0,0.0,0.0,0.0,0.0,0.0,0.0,0.0,0.0,0.0,0.0,0.0,0.0,0.0,0.0,0.0,0.0,0.0,0.0,0.0,0.0,0.0,0.0,0.0,0.0,0.0,0.0,0.0,0.0,0.0,0.0,0.0,0.0,0.0,0.0,0.0,0.0,0.0,0.0,0.0,0.0,0.0,0.0,0.0,0.0,0.0,0.0,0.0,0.0,0.0,0.0,0.0,0.0,0.0,0.0,0.0,0.0,0.0,0.0,0.0,0.0,0.0,0.0,0.0,0.0,0.0,0.0,0.0,0.0,0.0,0.0,0.0,0.0,0.0,0.0,0.0,0.0,0.0,0.0,0.0,0.0,0.0,0.0,0.0,0.0,0.0,0.0,0.0,0.0,0.0,-2.7326,-2.7935,-2.8107,-2.7925,-2.7339,-2.6216,-2.536,0.0,0.0,0.0,0.0,0.0,0.0,0.0,0.0,0.0,0.0,0.0,0.0,0.0,0.0,0.0,0.0,0.0,0.0,0.0,0.0,0.0,0.0,0.0,0.0,0.0,0.0,0.0,0.0,0.0,0.0,0.0,0.0,0.0,0.0,0.0,0.0,0.0,0.0,0.0,0.0,0.0,0.0,0.0,0.0,0.0,0.0,0.0,0.0,0.0,0.0,0.0,0.0,0.0,0.0,0.0,0.0,0.0,0.0,0.0,0.0,0.0,0.0,0.0,0.0,0.0,0.0,0.0,0.0,0.0,0.0,0.0,0.0,0.0,0.0,0.0,0.0,0.0,0.0,0.0,0.0,0.0,0.0,0.0,0.0,0.0,0.0,0.0,0.0,0.0,0.0,0.0,0.0,0.0,0.0,0.0,0.0,0.0,0.0,0.0,0.0,0.0,0.0,0.0,0.0,0.0,0.0,0.0,0.0,-2.7414,-2.826,-2.8118,-2.7881,-2.7497,-2.6304,-2.5536,0.0,0.0,0.0,0.0,0.0,0.0,0.0,0.0,0.0,0.0,0.0,0.0,0.0,0.0,0.0,0.0,0.0,0.0,0.0,0.0,0.0,0.0,0.0,0.0,0.0,0.0,0.0,0.0,0.0,0.0,0.0,0.0,0.0,0.0,0.0,0.0,0.0,0.0,0.0,0.0,0.0,0.0,0.0,0.0,0.0,0.0,0.0,0.0,0.0,0.0,0.0,0.0,0.0,0.0,0.0,0.0,0.0,0.0,0.0,0.0,0.0,0.0,0.0,0.0,0.0,0.0,0.0,0.0,0.0,0.0,0.0,0.0,0.0,0.0,0.0,0.0,0.0,0.0,0.0,0.0,0.0,0.0,0.0,0.0,0.0,0.0,0.0,0.0,0.0,0.0,0.0,0.0,0.0,0.0,0.0,0.0,0.0,0.0,0.0,0.0,0.0,0.0,0.0,0.0,0.0,0.0,0.0,0.0,-2.7166,-2.8247,-2.7855,-2.7603,-2.7503,-2.6575,-2.5781,0.0,0.0,0.0,0.0,0.0,0.0,0.0,0.0,0.0,0.0,0.0,0.0,0.0,0.0,0.0,0.0,0.0,0.0,0.0,0.0,0.0,0.0,0.0,0.0,0.0,0.0,0.0,0.0,0.0,0.0,0.0,0.0,0.0,0.0,0.0,0.0,0.0,0.0,0.0,0.0,0.0,0.0,0.0,0.0,0.0,0.0,0.0,0.0,-2.0903,0.0,0.0,0.0,0.0,0.0,0.0,0.0,0.0,0.0,0.0,0.0,0.0,0.0,0.0,0.0,0.0,0.0,0.0,0.0,0.0,0.0,0.0,0.0,0.0,0.0,0.0,0.0,0.0,0.0,0.0,0.0,0.0,0.0,0.0,0.0,0.0,0.0,0.0,0.0,0.0,0.0,0.0,0.0,0.0,0.0,0.0,0.0,0.0,0.0,0.0,0.0,0.0,0.0,0.0,0.0,0.0,0.0,0.0,0.0,-2.6948,-2.7868,-2.7656,-2.7356,-2.7121,-2.6683,-2.6001,0.0,0.0,0.0,0.0,0.0,0.0,0.0,0.0,0.0,0.0,0.0,0.0,0.0,0.0,0.0,0.0,0.0,0.0,0.0,0.0,0.0,0.0,0.0,0.0,0.0,0.0,0.0,0.0,0.0,0.0,0.0,0.0,0.0,0.0,0.0,0.0,0.0,0.0,0.0,0.0,0.0,0.0,0.0,0.0,0.0,0.0,0.0,0.0,0.0,0.0,0.0,0.0,0.0,0.0,0.0,0.0,0.0,0.0,0.0,0.0,0.0,0.0,0.0,0.0,0.0,0.0,0.0,0.0,0.0,0.0,0.0,0.0,0.0,0.0,0.0,0.0,0.0,0.0,0.0,0.0,0.0,0.0,0.0,0.0,0.0,0.0,0.0,0.0,0.0,0.0,0.0,0.0,0.0,0.0,0.0,0.0,0.0,0.0,0.0,0.0,0.0,0.0,0.0,0.0,0.0,0.0,0.0,-2.6417,-2.6773,-2.7471,-2.739,-2.7121,-2.6679,-2.6658,-2.6106,-2.5038,0.0,0.0,0.0,0.0,0.0,0.0,0.0,0.0,0.0,0.0,0.0,0.0,0.0,0.0,0.0,0.0,0.0,0.0,0.0,0.0,0.0,0.0,0.0,0.0,0.0,0.0,0.0,0.0,0.0,0.0,0.0,0.0,0.0,0.0,0.0,0.0,0.0,0.0,-2.0623,-2.1388,0.0,0.0,0.0,0.0,0.0,0.0,0.0,0.0,-2.1063,0.0,0.0,0.0,0.0,0.0,0.0,0.0,0.0,0.0,0.0,0.0,0.0,0.0,0.0,0.0,0.0,0.0,0.0,0.0,0.0,0.0,0.0,0.0,0.0,0.0,0.0,0.0,0.0,0.0,0.0,0.0,0.0,0.0,0.0,0.0,0.0,0.0,0.0,0.0,0.0,0.0,0.0,0.0,0.0,0.0,0.0,0.0,0.0,0.0,0.0,0.0,0.0,0.0,0.0,0.0,0.0,-2.6465,-2.6122,-2.6424,-2.7451,-2.6905,-2.6552,-2.6449,-2.6314,-2.5747,-2.4676,0.0,0.0,0.0,0.0,0.0,0.0,0.0,0.0,0.0,0.0,0.0,0.0,0.0,0.0,0.0,0.0,0.0,0.0,0.0,0.0,0.0,0.0,0.0,0.0,0.0,0.0,0.0,0.0,0.0,0.0,0.0,0.0,0.0,0.0,0.0,0.0,0.0,0.0,0.0,-2.1889,-2.2053,0.0,0.0,0.0,0.0,0.0,0.0,0.0,0.0,-2.1138,0.0,0.0,0.0,0.0,0.0,0.0,0.0,0.0,0.0,0.0,0.0,0.0,0.0,0.0,0.0,0.0,0.0,0.0,0.0,0.0,0.0,0.0,0.0,0.0,0.0,0.0,0.0,0.0,0.0,0.0,0.0,0.0,0.0,0.0,0.0,0.0,0.0,0.0,0.0,0.0,0.0,0.0,0.0,0.0,0.0,0.0,0.0,0.0,0.0,0.0,0.0,0.0,0.0,0.0,0.0,-2.6056,-2.5798,-2.6104,-2.7048,-2.6633,-2.6427,-2.644,-2.6292,-2.5713,0.0,0.0,0.0,0.0,0.0,0.0,0.0,0.0,0.0,0.0,0.0,0.0,0.0,0.0,0.0,0.0,0.0,0.0,0.0,0.0,0.0,0.0,0.0,0.0,0.0,0.0,0.0,0.0,0.0,0.0,0.0,0.0,0.0,0.0,0.0,0.0,0.0,0.0,0.0,0.0,-2.2509,-2.2666,-2.2955,0.0,0.0,0.0,0.0,0.0,0.0,-2.1273,-2.1305,0.0,0.0,0.0,0.0,0.0,0.0,0.0,0.0,0.0,0.0,0.0,0.0,0.0,0.0,0.0,0.0,0.0,0.0,0.0,0.0,0.0,0.0,0.0,0.0,0.0,0.0,0.0,0.0,0.0,0.0,0.0,0.0,0.0,0.0,0.0,0.0,0.0,0.0,0.0,0.0,0.0,0.0,0.0,0.0,0.0,0.0,0.0,0.0,0.0,0.0,0.0,0.0,0.0,0.0,0.0,-2.5741,-2.5528,-2.5813,-2.6629,-2.6474,-2.6371,-2.643,-2.6258,-2.5726,0.0,0.0,0.0,0.0,0.0,0.0,0.0,0.0,0.0,0.0,0.0,0.0,0.0,0.0,0.0,0.0,0.0,0.0,0.0,0.0,0.0,0.0,0.0,0.0,0.0,0.0,0.0,0.0,0.0,0.0,0.0,0.0,0.0,0.0,0.0,0.0,0.0,0.0,0.0,0.0,0.0,-2.3386,-2.361,-2.3859,0.0,0.0,0.0,0.0,-2.1687,-2.1632,0.0,0.0,0.0,0.0,0.0,0.0,0.0,0.0,0.0,0.0,0.0,0.0,0.0,0.0,0.0,0.0,0.0,0.0,0.0,0.0,0.0,0.0,0.0,0.0,0.0,0.0,0.0,0.0,0.0,0.0,0.0,0.0,0.0,0.0,0.0,0.0,0.0,0.0,0.0,0.0,0.0,0.0,0.0,0.0,0.0,0.0,0.0,0.0,0.0,0.0,0.0,0.0,0.0,0.0,0.0,0.0,-2.5741,-2.5307,-2.5597,-2.6616,-2.6396,-2.6236,-2.6236,-2.6213,-2.5679,0.0,0.0,0.0,0.0,0.0,0.0,0.0,0.0,0.0,0.0,0.0,0.0,0.0,0.0,0.0,0.0,0.0,0.0,0.0,0.0,0.0,0.0,0.0,0.0,0.0,0.0,0.0,0.0,0.0,0.0,0.0,0.0,0.0,0.0,0.0,0.0,0.0,0.0,0.0,0.0,0.0,-2.3905,-2.4707,-2.4505,-2.4151,0.0,0.0,0.0,-2.3073,-2.2674,0.0,0.0,0.0,0.0,0.0,0.0,0.0,0.0,0.0,0.0,0.0,0.0,0.0,0.0,0.0,0.0,0.0,0.0,0.0,0.0,0.0,0.0,0.0,0.0,0.0,0.0,0.0,0.0,0.0,0.0,0.0,0.0,0.0,0.0,0.0,0.0,0.0,0.0,0.0,0.0,0.0,0.0,0.0,0.0,0.0,0.0,0.0,0.0,0.0,0.0,0.0,0.0,0.0,0.0,0.0,-2.4434,-2.5306,-2.5052,-2.5446,-2.6539,-2.6339,-2.6283,-2.6361,-2.6283,-2.5713,0.0,0.0,0.0,0.0,0.0,0.0,0.0,0.0,0.0,0.0,0.0,0.0,0.0,0.0,0.0,0.0,0.0,0.0,0.0,0.0,0.0,0.0,0.0,0.0,0.0,0.0,0.0,0.0,0.0,0.0,0.0,0.0,0.0,0.0,0.0,0.0,0.0,0.0,0.0,0.0,0.0,0.0,-2.5589,-2.5399,0.0,0.0,0.0,-2.3873,-2.3475,0.0,0.0,0.0,0.0,0.0,0.0,0.0,0.0,0.0,0.0,0.0,0.0,0.0,0.0,0.0,0.0,0.0,0.0,0.0,0.0,0.0,0.0,0.0,0.0,0.0,0.0,0.0,0.0,0.0,0.0,0.0,0.0,0.0,0.0,0.0,0.0,0.0,0.0,0.0,0.0,0.0,0.0,0.0,0.0,0.0,0.0,0.0,0.0,0.0,0.0,0.0,0.0,0.0,0.0,0.0,0.0,0.0,-2.4957,-2.4872,-2.5347,-2.6449,-2.6327,-2.6374,-2.6487,-2.6361,0.0,0.0,0.0,0.0,0.0,0.0,0.0,0.0,0.0,0.0,0.0,0.0,0.0,0.0,0.0,0.0,0.0,0.0,0.0,0.0,0.0,0.0,0.0,0.0,0.0,0.0,0.0,-2.3628,0.0,0.0,0.0,0.0,0.0,0.0,0.0,0.0,0.0,0.0,0.0,0.0,0.0,0.0,-2.5845,-2.6317,-2.6245,-2.5901,0.0,0.0,-2.4774,-2.4104,-2.346,-2.303,0.0,0.0,0.0,0.0,0.0,0.0,0.0,0.0,0.0,0.0,0.0,0.0,0.0,0.0,0.0,0.0,0.0,0.0,0.0,0.0,0.0,0.0,0.0,0.0,0.0,0.0,0.0,0.0,0.0,0.0,0.0,0.0,0.0,0.0,0.0,0.0,0.0,0.0,0.0,0.0,0.0,0.0,0.0,0.0,0.0,0.0,0.0,0.0,0.0,0.0,0.0,0.0,0.0,0.0,0.0,-2.495,-2.4885,-2.5347,-2.6449,-2.6499,-2.6487,-2.6487,-2.6499,-2.595,0.0,0.0,0.0,0.0,0.0,0.0,0.0,0.0,0.0,0.0,0.0,0.0,0.0,0.0,0.0,0.0,0.0,0.0,0.0,0.0,0.0,0.0,0.0,0.0,0.0,0.0,0.0,0.0,0.0,0.0,0.0,0.0,0.0,0.0,0.0,0.0,0.0,0.0,0.0,0.0,0.0,-2.6497,-2.6896,-2.6769,-2.653,0.0,0.0,-2.5951,-2.5496,-2.4553,-2.3866,-2.3746,0.0,0.0,0.0,0.0,0.0,0.0,0.0,0.0,0.0,0.0,0.0,0.0,0.0,0.0,0.0,0.0,0.0,0.0,0.0,0.0,0.0,0.0,0.0,0.0,0.0,0.0,0.0,0.0,0.0,0.0,0.0,0.0,0.0,0.0,0.0,0.0,0.0,0.0,0.0,0.0,0.0,0.0,0.0,0.0,0.0,0.0,0.0,0.0,0.0,0.0,0.0,0.0,0.0,-2.3887,-2.4859,-2.482,-2.536,-2.6436,-2.6487,-2.6487,-2.6487,-2.6487,-2.6135,0.0,0.0,0.0,0.0,0.0,0.0,0.0,0.0,0.0,0.0,0.0,0.0,0.0,0.0,0.0,0.0,0.0,0.0,0.0,0.0,0.0,0.0,0.0,0.0,0.0,0.0,0.0,0.0,-2.4835,-2.509,-2.5229,0.0,0.0,0.0,0.0,0.0,0.0,0.0,0.0,0.0,0.0,-2.7315,-2.7471,-2.7255,0.0,0.0,-2.6564,-2.6143,-2.5568,-2.4655,-2.3838,-2.3405,-2.271,0.0,0.0,0.0,0.0,0.0,0.0,0.0,0.0,0.0,0.0,0.0,0.0,0.0,0.0,0.0,0.0,0.0,0.0,0.0,0.0,0.0,0.0,0.0,0.0,0.0,0.0,0.0,0.0,0.0,0.0,0.0,0.0,0.0,0.0,0.0,0.0,0.0,0.0,0.0,0.0,0.0,0.0,0.0,0.0,0.0,0.0,0.0,0.0,0.0,0.0,0.0,0.0,-2.3971,-2.482,-2.4983,-2.5498,-2.6474,-2.6487,-2.6487,-2.6487,-2.6487,-2.6235,0.0,0.0,0.0,0.0,0.0,0.0,0.0,0.0,0.0,0.0,0.0,0.0,0.0,0.0,0.0,0.0,0.0,0.0,0.0,0.0,0.0,0.0,0.0,0.0,0.0,0.0,0.0,0.0,-2.5202,-2.5495,-2.5702,0.0,0.0,0.0,0.0,0.0,0.0,0.0,0.0,0.0,0.0,-2.802,-2.7927,-2.7723,-2.7516,-2.7369,-2.6832,-2.6173,-2.5574,-2.455,-2.3648,-2.3136,0.0,0.0,0.0,0.0,0.0,0.0,0.0,0.0,0.0,0.0,0.0,0.0,0.0,0.0,0.0,0.0,0.0,0.0,0.0,0.0,0.0,0.0,0.0,0.0,0.0,0.0,0.0,0.0,0.0,0.0,0.0,0.0,0.0,0.0,0.0,0.0,0.0,0.0,0.0,0.0,0.0,0.0,0.0,0.0,0.0,0.0,0.0,0.0,0.0,0.0,0.0,0.0,0.0,0.0,-2.4788,-2.5297,-2.5862,-2.6461,-2.6487,-2.6487,-2.6487,-2.6487,-2.6223,-2.5611,0.0,0.0,0.0,0.0,0.0,0.0,0.0,0.0,0.0,0.0,0.0,0.0,0.0,0.0,0.0,0.0,0.0,0.0,0.0,0.0,0.0,0.0,0.0,0.0,0.0,0.0,-2.5188,-2.5619,-2.5975,0.0,0.0,0.0,0.0,0.0,0.0,0.0,0.0,0.0,0.0,-2.8289,-2.8509,-2.832,-2.8151,-2.7947,-2.757,-2.6875,-2.6205,-2.5665,-2.4442,-2.3438,0.0,0.0,0.0,0.0,0.0,0.0,0.0,0.0,0.0,0.0,0.0,0.0,0.0,0.0,0.0,0.0,0.0,0.0,0.0,0.0,0.0,0.0,0.0,0.0,0.0,0.0,0.0,0.0,-2.533,0.0,0.0,0.0,0.0,0.0,0.0,0.0,0.0,0.0,0.0,0.0,-2.7511,-2.7337,0.0,0.0,0.0,0.0,0.0,0.0,0.0,0.0,0.0,0.0,0.0,0.0,-2.4268,-2.4788,-2.5335,-2.5875,-2.6474,-2.6487,-2.6487,-2.6487,-2.6487,-2.6223,-2.5611,0.0,0.0,0.0,0.0,0.0,0.0,0.0,0.0,0.0,0.0,0.0,0.0,0.0,0.0,0.0,0.0,0.0,0.0,0.0,0.0,0.0,0.0,0.0,0.0,0.0,-2.5674,0.0,0.0,0.0,0.0,0.0,0.0,0.0,0.0,0.0,0.0,0.0,-2.8183,-2.8636,-2.8834,-2.8876,-2.8638,-2.8522,-2.8308,0.0,0.0,0.0,0.0,0.0,0.0,0.0,0.0,0.0,0.0,0.0,0.0,0.0,0.0,-2.3179,-2.3167,-2.2959,-2.2751,-2.262,0.0,0.0,0.0,0.0,0.0,0.0,0.0,0.0,0.0,0.0,0.0,0.0,0.0,0.0,0.0,0.0,-2.6189,0.0,0.0,0.0,0.0,0.0,0.0,0.0,0.0,-2.7413,-2.7736,-2.7982,-2.7863,-2.7668,0.0,-2.6527,-2.5571,0.0,0.0,0.0,0.0,0.0,0.0,0.0,0.0,-2.4437,-2.4813,-2.5523,-2.6109,-2.6474,-2.6487,-2.6487,-2.6487,-2.6487,-2.6223,-2.5611,-2.5272,-2.4757,0.0,0.0,0.0,0.0,0.0,0.0,0.0,0.0,0.0,0.0,0.0,0.0,0.0,0.0,0.0,0.0,0.0,0.0,0.0,0.0,0.0,0.0,0.0,-2.6096,0.0,0.0,0.0,0.0,0.0,0.0,0.0,0.0,0.0,-2.7661,-2.8162,-2.8672,-2.9142,-2.9226,-2.9131,-2.894,0.0,0.0,0.0,0.0,0.0,0.0,0.0,-2.4672,-2.4185,-2.3926,-2.3854,-2.4035,-2.4037,-2.4085,-2.4278,0.0,0.0,-2.3866,-2.3628,-2.3449,-2.3236,-2.322,-2.3075,-2.2557,-2.2846,-2.3039,0.0,0.0,0.0,0.0,0.0,0.0,0.0,0.0,-2.7408,-2.7295,0.0,-2.6764,0.0,0.0,0.0,0.0,0.0,0.0,0.0,0.0,-2.8172,-2.8598,-2.8419,-2.8402,-2.8171,-2.7691,-2.6924,-2.6277,-2.5733,-2.4096,0.0,0.0,0.0,0.0,0.0,0.0,-2.4813,-2.4863,-2.5946,-2.6487,-2.6487,-2.6487,-2.6487,-2.6487,-2.6487,-2.6223,-2.5661,-2.5611,-2.5109,-2.4104,-2.4017,0.0,0.0,0.0,0.0,0.0,0.0,0.0,0.0,0.0,0.0,0.0,0.0,0.0,0.0,0.0,0.0,0.0,0.0,0.0,0.0,-2.6166,0.0,0.0,0.0,0.0,0.0,0.0,0.0,0.0,0.0,0.0,-2.8095,-2.8471,-2.8898,-2.9376,0.0,0.0,0.0,0.0,-2.8702,-2.8352,-2.7398,-2.6616,-2.6282,-2.5214,-2.4374,-2.4374,0.0,0.0,-2.447,-2.4508,-2.4699,-2.5204,-2.5252,-2.4999,-2.4059,-2.3769,-2.3556,-2.3342,-2.3547,-2.3595,-2.3265,-2.3498,-2.3717,-2.7439,0.0,0.0,0.0,0.0,-2.6576,-2.6882,-2.6895,-2.7239,-2.7225,-2.7029,-2.7233,0.0,0.0,0.0,0.0,0.0,0.0,-2.7777,-2.8229,-2.8416,-2.8703,-2.9104,-2.8728,-2.8457,-2.8315,-2.7309,-2.668,-2.6386,-2.5262,-2.4461,-2.4017,0.0,0.0,0.0,0.0,-2.5385,-2.541,-2.6122,-2.6487,-2.6487,-2.6487,-2.6487,-2.6487,-2.6487,-2.6424,-2.6248,-2.5845,-2.546,-2.5146,-2.4406,0.0,0.0,0.0,0.0,0.0,0.0,0.0,0.0,0.0,0.0,0.0,0.0,0.0,0.0,0.0,0.0,0.0,0.0,0.0,-2.6969,-2.7121,-2.7189,0.0,0.0,0.0,0.0,0.0,0.0,0.0,0.0,0.0,-2.9014,-2.9291,-2.9532,0.0,0.0,-2.9477,-2.932,-2.9131,-2.883,-2.8352,0.0,0.0,0.0,-2.6156,-2.5602,-2.5477,-2.5121,-2.4927,-2.5059,-2.5083,-2.5131,-2.5288,-2.5312,-2.5204,-2.4951,-2.4832,-2.4716,-2.46,-2.4519,-2.4365,-2.3994,-2.3927,-2.3824,-2.8885,-2.7666,-2.7111,-2.6669,-2.6426,-2.7059,-2.7349,-2.7376,-2.7792,-2.7751,-2.7514,-2.7693,-2.7644,-2.7409,-2.7586,0.0,0.0,0.0,-2.8204,-2.8491,-2.8532,-2.8744,-2.9022,-2.867,-2.8346,-2.8137,-2.7465,-2.6981,-2.6705,-2.5909,-2.5268,-2.4747,0.0,0.0,-2.4356,-2.5172,-2.5586,-2.5611,-2.6197,-2.6487,-2.6487,-2.6487,-2.6487,-2.6487,-2.6487,-2.6487,-2.6487,-2.616,-2.5837,-2.5598,-2.4996,-2.4443,0.0,0.0,0.0,0.0,0.0,0.0,0.0,0.0,0.0,0.0,0.0,-2.509,0.0,0.0,0.0,0.0,-2.6419,-2.7023,-2.7904,-2.7989,0.0,0.0,0.0,0.0,0.0,0.0,0.0,-2.8985,-2.9305,-2.9565,-2.984,-2.9961,-2.9976,-2.9929,-2.9775,-2.9651,-2.9543,0.0,-2.8958,-2.8546,-2.8091,-2.7656,-2.7167,-2.6645,-2.6151,-2.5828,-2.55,-2.5312,-2.5312,-2.5312,-2.5312,-2.5312,-2.5312,-2.5312,-2.5312,-2.5312,-2.5241,-2.5111,-2.5016,-2.4814,-2.449,-2.4345,-2.4189,-3.0167,-2.9648,-2.7929,-2.7195,-2.7185,-2.7773,-2.8019,-2.8001,-2.8724,-2.8638,-2.7974,-2.8161,-2.7922,-2.737,-2.7547,0.0,0.0,-2.8133,-2.8366,-2.8253,-2.862,-2.872,-2.8541,-2.8333,-2.7973,-2.7503,-2.7503,-2.7188,-2.6688,-2.6193,-2.5873,-2.5649,-2.5197,-2.4933,-2.4888,-2.5398,-2.5661,-2.5707,-2.6235,-2.6487,-2.6487,-2.6487,-2.6487,-2.6487,-2.6487,-2.6487,-2.6487,-2.6487,-2.6248,-2.5699,-2.5624,-2.5146,-2.4192,0.0,0.0,0.0,0.0,0.0,0.0,0.0,0.0,0.0,0.0,0.0,0.0,0.0,0.0,0.0,-2.7163,0.0,-2.8695,-2.8781,0.0,0.0,0.0,-2.8723,-2.8781,-2.8781,-2.9,-2.9595,0.0,0.0,0.0,0.0,-3.028,-3.0142,-2.996,-2.9808,-2.9808,-2.9432,-2.9053,-2.8835,-2.8241,-2.7723,-2.7369,-2.6803,-2.622,-2.5711,-2.5465,-2.5347,-2.5312,-2.5312,-2.5312,-2.5312,-2.5312,-2.5312,-2.5312,-2.5312,-2.5241,-2.5147,-2.5123,-2.5016,-2.4861,-2.4754,-2.4682,-3.0552,-3.0373,-2.9502,-2.8797,-2.8284,-2.8855,-2.8855,-2.8461,-2.8615,-2.8602,-2.8447,-2.8575,-2.8651,-2.8657,-2.8702,-2.8702,-2.8671,-2.884,-2.8833,-2.8675,-2.868,-2.8527,-2.8365,-2.7908,-2.7623,-2.7503,-2.7248,-2.6964,-2.6714,-2.6587,-2.6422,-2.6285,-2.6172,-2.5883,-2.5448,-2.6009,-2.6298,-2.6285,-2.6424,-2.6487,-2.6487,-2.6487,-2.6487,-2.6487,-2.6487,-2.6487,-2.6487,-2.6487,-2.6436,-2.6285,-2.5837,-2.5485,-2.5222,-2.4716,0.0,0.0,0.0,0.0,0.0,0.0,0.0,0.0,0.0,-2.5536,-2.5866,0.0,-2.704,0.0,-2.8338,-2.9175,-2.9363,-2.9406,0.0,0.0,-2.8971,-2.8869,-2.9348,-2.9406,-2.9653,-3.0277,-3.035,-3.0393,-3.0583,-3.0538,-3.0507,-3.0492,-3.0233,-2.9974,-2.9808,-2.962,-2.9306,-2.8894,-2.8509,-2.8006,-2.7523,-2.6871,-2.6208,-2.5676,-2.5571,-2.55,-2.5312,-2.5312,-2.5312,-2.5312,-2.5312,-2.5312,-2.5312,-2.5312,-2.5276,-2.5241,-2.5182,-2.5087,-2.5052,-2.4933,-2.479,-3.1462,-3.1409,-3.085,-3.0196,-2.9531,-2.9329,-2.904,-2.8717,-2.8481,-2.8373,-2.8373,-2.8438,-2.8554,-2.8651,-2.8734,-2.8716,-2.8651,-2.8734,-2.867,-2.8476,-2.8229,-2.8052,-2.7941,-2.749,-2.7235,-2.7134,-2.693,-2.6773,-2.6624,-2.6636,-2.6602,-2.6487,-2.6487,-2.6336,-2.6013,-2.6336,-2.6487,-2.6487,-2.6487,-2.6487,-2.6487,-2.6487,-2.6487,-2.6487,-2.6487,-2.6487,-2.6487,-2.6487,-2.6487,-2.6487,-2.6185,-2.5862,-2.5598,-2.5261,-2.4976,0.0,0.0,0.0,0.0,0.0,0.0,0.0,0.0,0.0,0.0,0.0,-2.7924,0.0,-2.9146,0.0,-3.0016,-3.0045,-3.0045,-3.006,-2.9726,-2.9697,-3.0016,-3.0045,-3.019,-3.0569,-3.0612,-3.0714,-3.0945,-3.0988,-3.1119,-3.1395,-3.1298,-3.0996,-3.0566,-3.0457,-3.0321,-3.0035,-2.9326,-2.8497,-2.7655,-2.6871,-2.6311,-2.6025,-2.5746,-2.5571,-2.5465,-2.5347,-2.5312,-2.5312,-2.5312,-2.5312,-2.5312,-2.5312,-2.5312,-2.5276,-2.5241,-2.5206,-2.517,-2.5076,-2.5016,-3.2311,-3.2192,-3.1766,-3.1196,-3.0572,-2.9464,-2.8995,-2.9004,-2.8485,-2.8232,-2.812,-2.804,-2.8013,-2.8046,-2.8151,-2.8137,-2.8046,-2.8137,-2.8151,-2.798,-2.7636,-2.7456,-2.7436,-2.7113,-2.6875,-2.6714,-2.6679,-2.6636,-2.6487,-2.6487,-2.6487,-2.6487,-2.6487,-2.6487,-2.6487,-2.6487,-2.6487,-2.6487,-2.6487,-2.6487,-2.6487,-2.6487,-2.6487,-2.6487,-2.6487,-2.6487,-2.6487,-2.6487,-2.6487,-2.6487,-2.6487,-2.6273,-2.5737,-2.5848,-2.5726,0.0,-2.5459,0.0,0.0,0.0,0.0,0.0,0.0,0.0,0.0,-2.8025,-2.8757,-2.9668,-2.9711,-2.9972,-3.0539,-3.0612,-3.0612,-3.0612,-3.0612,-3.0612,-3.0598,-3.067,-3.0728,-3.0698,-3.0801,-3.1047,-3.1569,-3.1611,-3.1857,-3.2307,-3.2495,-3.2301,-3.1755,-3.1543,-3.1476,-3.1509,-3.0433,-2.9154,-2.7925,-2.7114,-2.6631,-2.6418,-2.6013,-2.5676,-2.5653,-2.5465,-2.5359,-2.5347,-2.5312,-2.5312,-2.5312,-2.5312,-2.5312,-2.5312,-2.5276,-2.5276,-2.5276,-2.5276,-2.5276,-3.1809,-3.1423,-3.1332,-3.0958,-3.0414,-2.9669,-2.9487,-2.9616,-2.9336,-2.8846,-2.8237,-2.7799,-2.7623,-2.7603,-2.7656,-2.7656,-2.7636,-2.7623,-2.7603,-2.7436,-2.7369,-2.7235,-2.7079,-2.6863,-2.676,-2.6692,-2.6589,-2.6521,-2.6487,-2.6487,-2.6487,-2.6487,-2.6487,-2.6487,-2.6487,0.0,0.0,0.0,-2.6487,-2.6487,-2.6487,-2.6487,-2.6487,-2.6487,-2.6487,0.0,-2.6487,-2.6487,-2.6487,-2.6487,-2.6487,0.0,0.0,0.0,0.0,0.0,0.0,0.0,0.0,0.0,0.0,0.0,-2.7531,-2.7919,-2.804,-2.8843,-2.9653,-3.0335,-3.0423,-3.0481,-3.0598,-3.0612,-3.0612,-3.0612,-3.0612,-3.0612,-3.0627,-3.1018,-3.1337,-3.1351,-3.1801,-3.2147,-3.228,-3.2338,-3.235,-3.2553,-3.2962,-3.3224,-3.309,-3.2417,-3.1848,-3.1495,-3.0778,-2.9767,-2.8431,-2.7997,-2.7412,-2.6681,-2.6258,-2.6015,-2.5875,-2.5688,-2.5535,-2.5523,-2.5418,-2.5312,-2.5312,-2.5312,-2.5312,-2.5312,-2.5312,-2.5312,-2.5312,-2.5312,-2.5276,-3.2006,0.0,-3.1221,-3.0879,0.0,-3.0037,-2.9766,-2.9703,-2.9269,-2.8818,-2.8427,-2.8178,-2.7894,-2.7635,-2.7635,-2.7514,-2.7281,-2.7281,-2.7214,-2.7146,-2.7045,-2.693,-2.6829,-2.6658,-2.6577,-2.6589,-2.6521,-2.6487,-2.6487,-2.6487,-2.6487,-2.6487,-2.6487,-2.6487,-2.6487,-2.6487,-2.6487,-2.6487,-2.6487,-2.6487,-2.6487,-2.6487,-2.6487,-2.6487,0.0,0.0,0.0,0.0,0.0,0.0,0.0,0.0,0.0,0.0,0.0,-2.6295,-2.6161,-2.6258,-2.6596,-2.6886,-2.7287,-2.7868,-2.8666,-2.9134,-2.9139,-2.9737,-3.0219,-3.0569,-3.0612,-3.0612,-3.0612,-3.0612,-3.0612,-3.0627,-3.0858,-3.1047,-3.1105,-3.1613,-3.1973,-3.2002,-3.2309,-3.2629,-3.2948,-3.2991,-3.3137,-3.3412,-3.3717,-3.392,-3.3873,-3.336,-3.2705,-3.1929,-3.1364,-3.0608,-2.9478,-2.8633,-2.8079,-2.7309,-2.6663,-2.627,-2.6084,-2.5875,-2.5723,-2.5758,-2.5653,-2.5606,-2.5571,-2.5535,-2.5453,-2.5465,-2.5347,-2.5312,-2.5312,-2.5312,-2.5312,-3.2261,-3.2239,-3.1304,-3.0929,-3.0815,-3.03,-2.9881,-2.9564,0.0,0.0,0.0,-2.845,-2.8157,-2.7748,-2.7748,-2.7456,-2.6972,-2.6947,-2.6909,-2.6807,-2.6624,-2.6589,-2.6589,-2.6499,-2.6465,-2.6487,-2.6487,-2.6487,-2.6487,-2.6487,-2.6487,-2.6487,-2.6487,-2.6487,-2.6487,-2.6487,-2.6487,-2.6487,-2.6487,-2.6487,-2.6487,-2.6487,-2.6487,-2.6487,-2.6487,-2.6487,-2.6487,-2.6487,-2.6487,-2.6487,-2.6487,-2.6487,-2.6487,-2.6487,-2.6555,-2.6658,-2.6714,-2.693,-2.7403,-2.7689,-2.8183,-2.8835,-2.9651,-3.008,-3.008,-3.0431,-3.0642,-3.0642,-3.0672,-3.0687,-3.0687,-3.0804,-3.0862,-3.0862,-3.14,-3.1733,-3.176,-3.2312,-3.2704,-3.2687,-3.2817,-3.305,-3.3558,-3.3663,-3.3804,-3.4269,-3.4341,-3.438,-3.4312,-3.4016,-3.3439,-3.2534,-3.202,-3.1416,-3.0448,-2.9507,-2.8599,-2.804,-2.7214,-2.6565,-2.6317,-2.6084,-2.598,-2.5957,-2.5945,-2.5875,-2.5875,-2.5758,-2.5641,-2.5641,-2.55,-2.5347,-2.5347,-2.5312,-2.5312,-3.2081,-3.1612,-3.1464,-3.1132,-3.0676,-3.0174,-2.964,-2.916,-2.876,-2.8499,-2.8323,-2.7866,-2.7619,-2.7545,-2.7545,-2.7248,-2.6754,-2.6754,-2.6494,0.0,-2.6037,-2.6119,-2.6283,-2.6236,-2.6339,-2.6499,-2.6487,-2.6487,-2.6487,-2.6499,-2.6487,-2.6487,-2.6487,-2.6487,-2.6487,-2.6487,-2.6487,-2.6487,-2.6487,-2.6487,-2.6487,-2.6487,-2.6487,-2.6487,-2.6487,-2.6487,-2.6487,-2.6487,-2.6487,-2.6487,-2.6487,-2.6487,-2.6487,-2.6487,-2.6499,-2.6533,-2.6807,-2.699,-2.7079,-2.7669,-2.8392,-2.9184,-2.9775,-3.008,-3.0111,-3.0492,-3.0762,-3.0762,-3.091,-3.1028,-3.1043,-3.1485,-3.1779,-3.1838,-3.2398,-3.2733,-3.265,-3.3159,-3.3474,-3.3405,-3.3833,-3.4109,-3.4182,-3.424,-3.4254,-3.4351,-3.438,-3.4346,-3.4176,-3.402,-3.3716,-3.3199,-3.2806,-3.2189,-3.1281,-3.0597,-2.964,-2.8529,-2.7837,-2.7173,-2.6653,-2.6361,-2.6166,-2.6179,-2.605,-2.5945,-2.5957,-2.5875,-2.5863,-2.584,-2.5676,-2.5571,-2.5571,-2.543,-2.5312,-3.1748,-3.1581,-3.1418,-3.1205,-3.0924,-3.0275,-2.9699,-2.9201,-2.9077,-2.8915,-2.8711,-2.8453,-2.8195,-2.7925,-2.7913,-2.7618,-2.7152,-2.7115,-2.7004,-2.6795,-2.6771,-2.6831,-2.6903,-2.6903,-2.7011,-2.719,-2.7178,-2.7099,-2.6929,-2.6939,-2.6788,-2.6512,-2.6487,-2.6487,-2.6487,-2.6487,-2.6487,-2.6487,-2.6487,-2.6487,-2.6487,-2.6487,-2.6487,-2.6487,-2.6487,-2.6487,-2.6487,-2.6487,-2.6487,-2.6487,-2.6487,-2.6487,-2.6487,-2.6487,-2.6487,-2.6499,-2.6692,-2.6863,-2.6977,-2.7835,-2.8638,-2.9279,-2.982,-3.0172,-3.0385,-3.0642,-3.0791,-3.0806,-3.0984,-3.125,-3.153,-3.1824,-3.2119,-3.2519,-3.3138,-3.3505,-3.3512,-3.3929,-3.4196,-3.4174,-3.4307,-3.4414,-3.438,-3.438,-3.438,-3.438,-3.438,-3.4346,-3.4264,-3.4054,-3.3813,-3.3486,-3.3037,-3.2536,-3.1927,-3.1137,-3.0166,-2.9044,-2.8247,-2.7535,-2.6853,-2.6499,-2.6408,-2.6374,-2.6292,-2.6223,-2.6223,-2.6131,-2.6097,-2.6062,-2.591,-2.5793,-2.5723,-2.5606,-2.5418,-3.1458,-3.1569,-3.1315,-3.1203,-3.1077,-3.0519,-2.9977,-2.9484,-2.9352,-2.9226,-2.9102,-2.9007,-2.8753,-2.8387,-2.8273,-2.798,-2.7517,-2.7443,-2.7332,-2.726,-2.7297,-2.7285,-2.7372,-2.7409,-2.752,-2.773,-2.7718,-2.7654,-2.7435,-2.741,-2.7157,-2.6738,-2.6675,-2.6625,-2.6487,-2.6487,-2.6487,-2.6487,-2.6487,-2.6487,-2.6487,-2.6487,-2.6487,-2.6487,-2.6487,-2.6487,-2.6487,-2.6487,-2.6487,-2.6487,-2.6487,-2.6487,-2.6487,-2.6487,-2.6487,-2.6521,-2.6658,-2.6943,-2.7248,-2.8066,-2.883,-2.931,-2.982,-3.0264,-3.0612,-3.0923,-3.1027,-3.0954,-3.125,-3.1634,-3.2048,-3.2464,-3.2773,-3.3323,-3.3928,-3.4312,-3.4307,-3.4556,-3.4731,-3.4698,-3.4515,-3.438,-3.438,-3.438,-3.438,-3.438,-3.438,-3.438,-3.438,-3.4122,-3.3882,-3.3605,-3.3157,-3.2725,-3.2461,-3.1717,-3.0739,-2.9789,-2.8859,-2.8013,-2.7271,-2.6784,-2.6533,-2.6487,-2.6487,-2.6452,-2.6465,-2.6374,-2.627,-2.627,-2.6131,-2.5945,-2.5875,-2.5723,-2.5523,-3.1553,-3.133,-3.1291,-3.1137,-3.0946,-3.0874,-3.0494,-2.9989,-2.952,-2.9198,-2.9009,-2.8687,-2.8538,-2.8478,-2.8295,-2.7917,-2.7424,-2.723,-2.6904,-2.6517,-2.6609,-2.6772,-2.7033,-2.7172,-2.7322,-2.752,-2.7582,-2.7656,-2.7766,-2.7729,-2.7577,-2.7268,-2.7205,-2.6989,-2.6562,-2.6499,-2.6499,-2.6487,-2.6487,-2.6487,-2.6487,-2.6487,-2.6487,-2.6487,-2.6487,-2.6487,-2.6487,-2.6487,-2.6487,-2.6487,-2.6487,-2.6487,-2.6487,-2.6487,-2.6487,-2.6487,-2.6773,-2.7281,-2.7914,-2.8373,-2.8876,-2.9509,-2.9882,-3.0309,-3.0776,-3.1469,-3.1678,-3.1531,-3.1946,-3.2408,-3.2527,-3.3483,-3.414,-3.4304,-3.4887,-3.5302,-3.5094,-3.4957,-3.485,-3.4698,-3.4515,-3.438,-3.438,-3.438,-3.438,-3.438,-3.438,-3.438,-3.438,-3.421,-3.4005,-3.3813,-3.3368,-3.2952,-3.2654,-3.2345,-3.1568,-3.065,-2.9776,-2.8833,-2.7949,-2.7181,-2.6645,-2.6568,-2.6487,-2.6487,-2.6487,-2.6452,-2.6465,-2.6396,-2.6292,-2.6131,-2.5945,-2.5793,-2.5571,-3.1282,-3.0904,-3.105,-3.1155,-3.1141,-3.1117,-3.0818,-3.0329,-2.9967,-2.961,-2.9182,-2.8757,-2.8383,-2.8163,-2.8082,-2.79,-2.7683,-2.7603,-2.7458,-2.7246,-2.7364,-2.7404,-2.7482,-2.7549,-2.7795,-2.8055,-2.8094,-2.8078,-2.8075,-2.7879,-2.7717,-2.7627,-2.7711,-2.7494,-2.7027,-2.6977,-2.6826,-2.6499,-2.6487,-2.6487,-2.6487,-2.6487,-2.6487,-2.6487,-2.6487,-2.6487,-2.6487,-2.6487,-2.6487,-2.6487,-2.6487,-2.6487,-2.6487,-2.6487,-2.6487,-2.6533,-2.6807,-2.7315,-2.8046,-2.8406,-2.8876,-2.954,-2.9927,-3.0499,-3.1394,-3.1824,-3.2137,-3.2586,-3.2931,-3.323,-3.3619,-3.4204,-3.4668,-3.5011,-3.5355,-3.5472,-3.5392,-3.5082,-3.4854,-3.4802,-3.4568,-3.438,-3.438,-3.438,-3.438,-3.438,-3.438,-3.438,-3.4366,-3.423,-3.404,-3.3917,-3.3605,-3.3262,-3.2931,-3.248,-3.1897,-3.116,-3.0347,-2.9438,-2.8434,-2.769,-2.7119,-2.6687,-2.6568,-2.6487,-2.6487,-2.6487,-2.6487,-2.6452,-2.6465,-2.6305,-2.6097,-2.6027,-2.5875,-3.124,-3.0855,-3.0953,-3.1074,-3.1217,-3.1229,-3.1003,-3.0616,-3.0311,-2.9953,-2.948,-2.8857,-2.8355,-2.786,-2.7737,-2.7708,-2.7708,-2.7598,-2.7569,-2.7557,-2.7598,-2.7638,-2.7638,-2.776,-2.795,-2.8179,-2.8287,-2.8333,-2.8348,-2.826,-2.8126,-2.8077,-2.8175,-2.801,-2.757,-2.7507,-2.7243,-2.6788,-2.6713,-2.665,-2.6512,-2.6487,-2.6487,-2.6487,-2.6487,-2.6487,-2.6487,-2.6487,-2.6487,-2.6487,-2.6487,-2.6487,-2.6487,-2.6487,-2.6533,-2.6636,-2.6875,-2.7315,-2.8046,-2.8406,-2.8945,-2.9764,-3.0182,-3.0904,-3.192,-3.2398,-3.2893,-3.354,-3.3902,-3.4233,-3.4414,-3.4668,-3.4996,-3.5444,-3.5489,-3.5489,-3.5457,-3.5133,-3.4902,-3.4868,-3.4601,-3.438,-3.438,-3.438,-3.438,-3.438,-3.438,-3.438,-3.438,-3.4278,-3.4128,-3.3971,-3.3779,-3.3486,-3.3058,-3.2646,-3.2126,-3.1595,-3.0859,-2.9885,-2.8839,-2.8186,-2.7452,-2.6866,-2.6687,-2.6533,-2.6487,-2.6487,-2.6487,-2.6487,-2.6499,-2.643,-2.6305,-2.6248,-2.6131,-3.1633,-3.1344,-3.1082,-3.0972,-3.1017,-3.1017,-3.1005,-3.0855,-3.0399,-3.0021,-2.9686,-2.9017,-2.8285,-2.7656,-2.7378,-2.7237,-2.7185,-2.6869,-2.6727,-2.6727,-2.6862,-2.6933,-2.6974,-2.7319,-2.7522,-2.7603,-2.7788,-2.8087,-2.8438,-2.8797,-2.8864,-2.8561,-2.8574,-2.8413,-2.811,-2.8072,-2.7795,-2.7306,-2.7243,-2.704,-2.6587,-2.6512,-2.6524,-2.6499,-2.6487,-2.6487,-2.6487,-2.6487,-2.6487,-2.6487,-2.6487,-2.6487,-2.6487,-2.6487,-2.6636,-2.6922,-2.699,-2.7328,-2.8053,-2.846,-2.9169,-3.0283,-3.0824,-3.1521,-3.2604,-3.3324,-3.3837,-3.4144,-3.484,-3.5085,-3.4728,-3.5026,-3.537,-3.5474,-3.5489,-3.5489,-3.5504,-3.5133,-3.4935,-3.4868,-3.4616,-3.4414,-3.438,-3.438,-3.438,-3.438,-3.438,-3.438,-3.438,-3.438,-3.4278,-3.4094,-3.3937,-3.366,-3.3129,-3.281,-3.2525,-3.2109,-3.1357,-3.0423,-2.9508,-2.8616,-2.7794,-2.7045,-2.6802,-2.6636,-2.6521,-2.6487,-2.6487,-2.6487,-2.6487,-2.6465,-2.643,-2.6305,-2.6236,-3.1802,-3.1113,-3.0855,-3.0724,-3.0736,-3.0724,-3.0724,-3.0713,-3.0247,-2.9975,-2.9737,-2.9036,-2.8476,-2.8043,-2.7186,-2.683,-2.6779,-2.6498,-2.6332,-2.6332,-2.6302,-2.6343,-2.6456,-2.661,-2.6857,-2.7126,-2.7371,-2.7708,-2.8122,-2.851,-2.8652,-2.8638,-2.894,-2.8885,-2.8525,-2.8562,-2.836,-2.7871,-2.7808,-2.7544,-2.7077,-2.7014,-2.6864,-2.6512,-2.6487,-2.6487,-2.6487,-2.6487,-2.6487,-2.6487,-2.6487,-2.6487,-2.6487,-2.6487,-2.6636,-2.6943,-2.7024,-2.747,-2.8518,-2.8958,-2.9731,-3.0942,-3.1432,-3.2169,-3.3138,-3.3733,-3.4221,-3.475,-3.5213,-3.534,-3.525,-3.537,-3.5489,-3.5489,-3.5489,-3.5504,-3.5424,-3.5148,-3.4902,-3.4868,-3.4601,-3.4414,-3.438,-3.438,-3.438,-3.438,-3.438,-3.438,-3.438,-3.438,-3.4332,-3.4128,-3.3971,-3.3779,-3.3486,-3.3108,-3.2775,-3.2497,-3.1942,-3.1222,-3.0356,-2.9411,-2.8581,-2.7657,-2.7237,-2.6777,-2.6687,-2.6533,-2.6521,-2.6487,-2.6487,-2.6487,-2.6487,-2.6396,-2.6361,-3.1766,-3.0996,-3.0616,-3.0487,-3.0476,-3.0487,-3.0442,-3.0363,-3.0023,-2.984,-2.9669,-2.9047,-2.8553,-2.8129,-2.7259,-2.666,-2.6347,-2.6034,-2.5863,-2.5863,-2.5759,-2.5759,-2.5863,-2.5946,-2.6124,-2.6467,-2.6816,-2.7237,-2.7667,-2.8018,-2.8259,-2.8498,-2.8922,-2.9051,-2.8896,-2.8986,-2.8812,-2.8436,-2.8373,-2.8109,-2.762,-2.7557,-2.7293,-2.6864,-2.6763,-2.6675,-2.6512,-2.6487,-2.6487,-2.6487,-2.6487,-2.6487,-2.6487,-2.6487,-2.6636,-2.6956,-2.7191,-2.779,-2.8858,-2.9491,-3.0315,-3.1486,-3.2052,-3.2737,-3.3711,-3.409,-3.4489,-3.4978,-3.5294,-3.5407,-3.5472,-3.5489,-3.5489,-3.5489,-3.5489,-3.5472,-3.5407,-3.5115,-3.4868,-3.4702,-3.4549,-3.4414,-3.438,-3.438,-3.438,-3.438,-3.438,-3.438,-3.438,-3.438,-3.4366,-3.423,-3.4074,-3.3917,-3.3709,-3.3403,-3.3002,-3.269,-3.2367,-3.1721,-3.1061,-3.017,-2.9284,-2.8351,-2.7679,-2.7165,-2.6815,-2.6615,-2.6533,-2.6521,-2.6487,-2.6487,-2.6487,-2.6487,-2.6452,-3.1513,-3.1019,-3.0445,-3.025,-3.0216,-3.0216,-3.0102,-2.9977,-2.9886,-2.9691,-2.9382,-2.8945,-2.8462,-2.7941,-2.7404,-2.6774,-2.603,-2.5466,-2.5243,-2.52,-2.5158,-2.5158,-2.5253,-2.5401,-2.5538,-2.5664,-2.6196,-2.6723,-2.7196,-2.7441,-2.7857,-2.8351,-2.851,-2.8819,-2.9355,-2.9319,-2.9236,-2.8963,-2.8938,-2.8662,-2.8185,-2.8109,-2.7846,-2.7344,-2.7316,-2.7042,-2.6562,-2.6512,-2.6487,-2.6487,-2.6487,-2.6487,-2.6499,-2.6537,-2.6662,-2.7109,-2.7597,-2.8248,-2.9044,-2.9956,-3.0897,-3.1957,-3.2594,-3.3221,-3.3917,-3.4413,-3.4725,-3.4902,-3.5082,-3.5261,-3.5439,-3.5472,-3.5472,-3.5489,-3.5489,-3.5424,-3.5246,-3.5034,-3.4754,-3.4501,-3.4414,-3.438,-3.438,-3.438,-3.438,-3.438,-3.438,-3.438,-3.438,-3.438,-3.438,-3.4346,-3.4176,-3.402,-3.3882,-3.3709,-3.3262,-3.286,-3.2489,-3.1992,-3.133,-3.0502,-2.971,-2.8799,-2.7902,-2.7374,-2.6892,-2.6705,-2.6671,-2.6636,-2.6555,-2.6521,-2.6521,-2.6555,-2.6487,-3.1984,-3.149,-3.0985,-3.0549,-3.0193,-3.0045,-2.9931,-2.9851,-2.9508,-2.9231,-2.8978,-2.8664,-2.8251,-2.7696,-2.7106,-2.6562,-2.6057,-2.5201,-2.471,-2.4677,-2.4411,-2.4433,-2.47,-2.4786,-2.5073,-2.5496,-2.5874,-2.6207,-2.6569,-2.7051,-2.747,-2.7805,-2.8271,-2.8736,-2.9157,-2.9341,-2.9397,-2.9502,-2.9528,-2.9252,-2.87,-2.8637,-2.8411,-2.7921,-2.7846,-2.7595,-2.709,-2.67,-2.6499,-2.6499,-2.6487,-2.6487,-2.6549,-2.6851,-2.724,-2.7604,-2.8113,-2.8983,-3.0033,-3.0691,-3.15,-3.2507,-3.3245,-3.3688,-3.4065,-3.4481,-3.4698,-3.4798,-3.4916,-3.5082,-3.5246,-3.5294,-3.5359,-3.5472,-3.5489,-3.5407,-3.518,-3.4902,-3.4683,-3.4448,-3.438,-3.438,-3.438,-3.438,-3.438,-3.438,-3.438,-3.438,-3.438,-3.438,-3.438,-3.438,-3.421,-3.4074,-3.3917,-3.3744,-3.3417,-3.3037,-3.2704,-3.2322,-3.1636,-3.1087,-3.0228,-2.9245,-2.8343,-2.7597,-2.7126,-2.6841,-2.6807,-2.6773,-2.6726,-2.6692,-2.6611,-2.6624,-2.6589,-3.225,-3.172,-3.1226,-3.0709,-3.0193,-2.9977,-2.9851,-2.9691,-2.922,-2.885,-2.8617,-2.8243,-2.7878,-2.7426,-2.6951,-2.6464,-2.5989,-2.5183,-2.4756,-2.4534,-2.4018,-2.398,-2.4229,-2.4368,-2.4625,-2.5084,-2.5422,-2.5717,-2.6071,-2.6558,-2.701,-2.7441,-2.7978,-2.8471,-2.8855,-2.917,-2.9404,-2.9611,-2.9728,-2.9616,-2.9289,-2.9252,-2.8988,-2.8461,-2.8374,-2.8134,-2.7656,-2.7231,-2.6914,-2.6625,-2.6675,-2.6801,-2.6839,-2.7316,-2.7774,-2.8196,-2.8749,-2.9492,-3.0578,-3.1244,-3.1957,-3.2812,-3.3521,-3.3917,-3.4074,-3.438,-3.4597,-3.4698,-3.4783,-3.4916,-3.5049,-3.5082,-3.5148,-3.5261,-3.5326,-3.5261,-3.5063,-3.4765,-3.4563,-3.4414,-3.438,-3.438,-3.438,-3.438,-3.438,-3.438,-3.438,-3.438,-3.438,-3.438,-3.438,-3.438,-3.4312,-3.4142,-3.3917,-3.3744,-3.357,-3.3262,-3.2931,-3.2552,-3.2055,-3.1676,-3.1056,-2.9742,-2.872,-2.7939,-2.7403,-2.7096,-2.6922,-2.6909,-2.6943,-2.6875,-2.6807,-2.6773,-2.6773,-3.2259,-3.1766,-3.1272,-3.0732,-3.0228,-2.9943,-2.9691,-2.9439,-2.8989,-2.8628,-2.829,-2.7867,-2.7489,-2.7262,-2.6914,-2.6483,-2.5866,-2.5481,-2.5129,-2.4735,-2.4202,-2.3914,-2.3871,-2.4067,-2.4325,-2.454,-2.4786,-2.5253,-2.5812,-2.6124,-2.6528,-2.7185,-2.7655,-2.8122,-2.8538,-2.8895,-2.9236,-2.9431,-2.9689,-2.9767,-2.9729,-2.9741,-2.9528,-2.9001,-2.8925,-2.8712,-2.8222,-2.8009,-2.7557,-2.6826,-2.714,-2.7331,-2.7419,-2.7858,-2.8342,-2.8718,-2.9254,-2.9915,-3.0718,-3.1559,-3.2218,-3.2725,-3.3452,-3.3896,-3.3951,-3.421,-3.4481,-3.4616,-3.4664,-3.4716,-3.485,-3.4902,-3.4902,-3.4902,-3.5049,-3.503,-3.4731,-3.4563,-3.4448,-3.4414,-3.438,-3.438,-3.438,-3.438,-3.438,-3.438,-3.438,-3.438,-3.438,-3.438,-3.438,-3.438,-3.4346,-3.421,-3.402,-3.3848,-3.3675,-3.3431,-3.3157,-3.2838,-3.2376,-3.1996,-3.1505,-3.0246,-2.9225,-2.8413,-2.7824,-2.7564,-2.7346,-2.7281,-2.7248,-2.7092,-2.7024,-2.6977,-2.6922,-3.2825,-3.2259,-3.1766,-3.1167,-3.0431,-2.9895,-2.9451,-2.9174,-2.871,-2.8337,-2.8045,-2.7762,-2.7357,-2.6986,-2.6736,-2.6378,-2.5958,-2.5453,-2.5181,-2.4975,-2.4493,-2.3969,-2.369,-2.3797,-2.4024,-2.4282,-2.4497,-2.4882,-2.538,-2.579,-2.6302,-2.6962,-2.7412,-2.7938,-2.8459,-2.8895,-2.9197,-2.9431,-2.965,-2.9779,-2.9779,-2.9779,-2.9729,-2.9603,-2.9541,-2.9252,-2.87,-2.831,-2.8034,-2.7745,-2.7795,-2.7896,-2.7934,-2.8411,-2.8861,-2.9321,-2.9842,-3.0514,-3.1246,-3.1792,-3.2273,-3.2704,-3.3437,-3.3896,-3.3896,-3.4225,-3.438,-3.4481,-3.4481,-3.4549,-3.4716,-3.475,-3.4765,-3.4765,-3.4817,-3.4798,-3.4698,-3.4515,-3.438,-3.438,-3.438,-3.438,-3.438,-3.438,-3.438,-3.438,-3.438,-3.438,-3.438,-3.438,-3.438,-3.438,-3.4346,-3.4244,-3.4122,-3.3985,-3.3793,-3.3585,-3.3347,-3.3122,-3.2601,-3.2083,-3.1446,-3.0521,-2.9862,-2.9084,-2.8618,-2.8252,-2.8053,-2.7748,-2.7549,-2.7416,-2.7281,-2.7248,-2.7126,-3.2971,-3.2443,-3.1972,-3.1314,-3.0566,-2.9791,-2.9347,-2.9035,-2.8477,-2.8139,-2.7951,-2.7631,-2.7214,-2.6757,-2.6592,-2.6255,-2.5916,-2.5555,-2.5361,-2.5273,-2.4873,-2.431,-2.3787,-2.371,-2.3764,-2.3937,-2.4239,-2.454,-2.4956,-2.5464,-2.6052,-2.6633,-2.7237,-2.7765,-2.8231,-2.8736,-2.9091,-2.9275,-2.9534,-2.965,-2.9792,-2.9779,-2.9779,-2.9779,-2.9779,-2.9591,-2.9264,-2.8976,-2.8637,-2.8298,-2.8298,-2.8424,-2.8474,-2.8988,-2.9467,-2.9857,-3.024,-3.0748,-3.1471,-3.1936,-3.2273,-3.2704,-3.3368,-3.3744,-3.3917,-3.4142,-3.4278,-3.4414,-3.438,-3.4448,-3.4515,-3.4563,-3.4597,-3.4597,-3.4597,-3.4563,-3.4582,-3.4448,-3.4414,-3.438,-3.438,-3.438,-3.438,-3.438,-3.438,-3.438,-3.438,-3.438,-3.438,-3.438,-3.438,-3.438,-3.438,-3.4278,-3.4176,-3.404,-3.3882,-3.3689,-3.3501,-3.3312,-3.2961,-3.2331,-3.182,-3.1211,-3.0518,-2.9909,-2.947,-2.8966,-2.8525,-2.8199,-2.7961,-2.7769,-2.7669,-2.757,-2.7416,-3.3017,-3.2535,-3.2043,-3.1348,-3.0599,-2.9824,-2.9301,-2.8989,-2.8326,-2.8045,-2.7893,-2.7489,-2.7023,-2.6496,-2.6496,-2.6207,-2.5742,-2.5684,-2.5693,-2.5547,-2.5195,-2.4626,-2.3932,-2.3678,-2.3602,-2.3654,-2.3991,-2.4292,-2.4668,-2.5211,-2.5748,-2.6321,-2.7062,-2.7574,-2.8002,-2.8498,-2.8855,-2.9131,-2.9353,-2.956,-2.9753,-2.9779,-2.9779,-2.9779,-2.9779,-2.9779,-2.9729,-2.9641,-2.9302,-2.8348,-2.8762,-2.895,-2.9051,-2.9541,-2.9935,-3.0228,-3.0406,-3.0748,-3.1485,-3.1923,-3.2273,-3.2704,-3.3262,-3.3675,-3.3882,-3.404,-3.4196,-3.438,-3.438,-3.4414,-3.4414,-3.4414,-3.4414,-3.4448,-3.4414,-3.4414,-3.438,-3.438,-3.438,-3.438,-3.438,-3.438,-3.438,-3.438,-3.438,-3.438,-3.438,-3.438,-3.438,-3.438,-3.438,-3.438,-3.438,-3.4346,-3.423,-3.4094,-3.3902,-3.3744,-3.3605,-3.3452,-3.3297,-3.2842,-3.245,-3.1908,-3.1246,-3.0713,-3.0316,-2.9773,-2.9172,-2.8749,-2.8548,-2.8343,-2.8177,-2.8033,-2.7868,-3.3224,-3.304,-3.2204,-3.1447,-3.0816,-2.9924,-2.9266,-2.885,-2.8269,-2.7987,-2.7904,-2.7499,-2.7023,-2.6496,-2.6448,-2.6217,-2.5732,-2.5684,-2.5684,-2.5625,-2.5273,-2.4805,-2.4277,-2.3938,-2.3654,-2.3593,-2.3754,-2.411,-2.454,-2.4988,-2.5569,-2.6196,-2.6745,-2.7342,-2.7881,-2.8311,-2.8736,-2.904,-2.9302,-2.9521,-2.974,-2.9779,-2.9779,-2.9779,-2.9779,-2.9779,-2.9779,-2.9779,-2.9666,-2.9528,-2.9503,-2.9528,-2.9578,-2.9704,-3.0011,-3.0305,-3.0406,-3.0748,-3.1485,-3.1936,-3.2273,-3.2704,-3.3227,-3.3675,-3.3896,-3.4005,-3.421,-3.4346,-3.438,-3.438,-3.438,-3.438,-3.438,-3.438,-3.438,-3.438,-3.438,-3.438,-3.438,-3.438,-3.438,-3.438,-3.438,-3.438,-3.438,-3.438,-3.438,-3.438,-3.438,-3.438,-3.438,-3.438,-3.438,-3.4346,-3.4312,-3.4162,-3.4005,-3.3848,-3.3744,-3.364,-3.3472,-3.3318,-3.2926,-3.2493,-3.202,-3.155,-3.1183,-3.0496,-2.9876,-2.9501,-2.9094,-2.8847,-2.8609,-2.8471,-2.8346,-3.3281,-3.3178,-3.219,-3.1515,-3.0903,-2.9933,-2.9209,-2.8803,-2.8384,-2.8092,-2.7951,-2.7631,-2.7071,-2.6506,-2.6448,-2.6217,-2.5781,-2.5684,-2.5684,-2.5635,-2.5459,-2.5156,-2.4707,-2.4248,-2.3879,-2.3481,-2.3677,-2.398,-2.4272,-2.4861,-2.5401,-2.5904,-2.655,-2.7179,-2.7708,-2.8151,-2.8618,-2.9013,-2.9197,-2.9443,-2.974,-2.9779,-2.9779,-2.9779,-2.9779,-2.9779,-2.9779,-2.9779,-2.9779,-2.9779,-2.9779,-2.9779,-2.9792,-2.9779,-3.0011,-3.0305,-3.0406,-3.0785,-3.1434,-3.1936,-3.2273,-3.2668,-3.3192,-3.3556,-3.3813,-3.3985,-3.4157,-3.4312,-3.438,-3.438,-3.438,-3.438,-3.438,-3.438,-3.438,-3.438,-3.438,-3.438,-3.438,-3.438,-3.438,-3.438,-3.438,-3.438,-3.438,-3.438,-3.438,-3.438,-3.438,-3.438,-3.438,-3.438,-3.438,-3.438,-3.4346,-3.4244,-3.4108,-3.3971,-3.3882,-3.3813,-3.3744,-3.3591,-3.3423,-3.3038,-3.2716,-3.2527,-3.212,-3.1364,-3.066,-3.0104,-2.9679,-2.9339,-2.9036,-2.8853,-2.878,-3.3281,-3.3201,-3.2239,-3.1515,-3.0914,-2.9922,-2.9255,-2.8803,-2.8535,-2.8243,-2.7987,-2.7715,-2.7156,-2.664,-2.6496,-2.6169,-2.583,-2.5684,-2.5684,-2.5664,-2.5645,-2.5391,-2.499,-2.4531,-2.4004,-2.3301,-2.361,-2.3841,-2.41,-2.469,-2.5327,-2.5664,-2.6385,-2.7044,-2.7482,-2.7926,-2.8407,-2.8934,-2.9091,-2.9287,-2.9663,-2.974,-2.9779,-2.9779,-2.9779,-2.9779,-2.9779,-2.9779,-2.9779,-2.9779,-2.9779,-2.9779,-2.9792,-2.9869,-2.9998,-3.0368,-3.0444,-3.0836,-3.1471,-3.19,-3.2273,-3.2668,-3.3086,-3.3501,-3.3779,-3.3931,-3.4088,-3.4293,-3.438,-3.438,-3.438,-3.438,-3.438,-3.438,-3.438,-3.438,-3.438,-3.438,-3.438,-3.438,-3.438,-3.438,-3.438,-3.438,-3.438,-3.438,-3.438,-3.438,-3.438,-3.438,-3.438,-3.438,-3.438,-3.438,-3.438,-3.4346,-3.421,-3.4142,-3.404,-3.4054,-3.402,-3.3937,-3.3833,-3.3744,-3.3504,-3.3243,-3.2933,-3.2331,-3.1592,-3.0834,-3.0294,-2.9983,-2.9636,-2.9291,-2.9158,-3.3081,-3.3201,-3.219,-3.1504,-3.0866,-2.99,-2.9266,-2.8803,-2.8524,-2.8254,-2.7987,-2.7726,-2.7204,-2.664,-2.6496,-2.6169,-2.5781,-2.5684,-2.5684,-2.5684,-2.5674,-2.5498,-2.5137,-2.4639,-2.415,-2.3845,-2.3789,-2.3797,-2.4013,-2.468,-2.5285,-2.5622,-2.6302,-2.6921,-2.7412,-2.7829,-2.8259,-2.8803,-2.9013,-2.9248,-2.9482,-2.9702,-2.9779,-2.9779,-2.9779,-2.9779,-2.9779,-2.9779,-2.9779,-2.9779,-2.9779,-2.9779,-2.9818,-2.9934,-3.0152,-3.0368,-3.0558,-3.0962,-3.1522,-3.1936,-3.2273,-3.2668,-3.3086,-3.3466,-3.3779,-3.3931,-3.4088,-3.4278,-3.438,-3.438,-3.438,-3.438,-3.438,-3.438,-3.438,-3.438,-3.438,-3.438,-3.438,-3.438,-3.438,-3.438,-3.438,-3.438,-3.438,-3.438,-3.438,-3.438,-3.438,-3.438,-3.438,-3.438,-3.438,-3.438,-3.438,-3.438,-3.4346,-3.4312,-3.4278,-3.4244,-3.4244,-3.4312,-3.4244,-3.4054,-3.3951,-3.3719,-3.3394,-3.307,-3.2652,-3.1957,-3.1297,-3.0686,-3.0281,-2.9933,-2.9544,-3.2048,-3.2236,-3.1472,-3.0975,-3.0566,-2.9821,-2.9255,-2.8839,-2.8664,-2.8384,-2.8045,-2.7857,-2.7394,-2.6842,-2.6544,-2.6217,-2.583,-2.5684,-2.5684,-2.5684,-2.5664,-2.5615,-2.5312,-2.4756,-2.4375,-2.41,-2.3939,-2.3807,-2.3884,-2.4733,-2.5242,-2.5485,-2.6177,-2.6839,-2.733,-2.7748,-2.8219,-2.8685,-2.9013,-2.9197,-2.9419,-2.965,-2.9779,-2.9779,-2.9779,-2.9779,-2.9779,-2.9779,-2.9779,-2.9779,-2.9779,-2.9779,-2.9856,-3.0075,-3.0292,-3.0406,-3.0685,-3.1075,-3.1596,-3.2009,-3.2417,-3.2668,-3.3086,-3.3466,-3.3779,-3.3917,-3.4054,-3.4278,-3.438,-3.438,-3.438,-3.438,-3.438,-3.438,-3.438,-3.438,-3.438,-3.438,-3.438,-3.438,-3.438,-3.438,-3.438,-3.438,-3.438,-3.438,-3.438,-3.438,-3.438,-3.438,-3.438,-3.438,-3.438,-3.438,-3.438,-3.438,-3.438,-3.438,-3.438,-3.438,-3.438,-3.438,-3.4346,-3.4259,-3.4122,-3.4005,-3.3879,-3.3554,-3.3316,-3.3011,-3.2355,-3.1706,-3.108,-3.0608,-3.0153,-3.1072,-3.129,-3.0769,-3.0435,-3.018,-2.9663,-2.9163,-2.885,-2.8803,-2.8524,-2.8092,-2.7998,-2.7631,-2.7034,-2.6544,-2.6159,-2.5732,-2.5684,-2.5684,-2.5684,-2.5684,-2.5684,-2.546,-2.5019,-2.4548,-2.4441,-2.4192,-2.3888,-2.397,-2.4733,-2.5158,-2.5538,-2.6177,-2.6839,-2.7278,-2.7708,-2.8219,-2.8618,-2.9013,-2.9197,-2.9482,-2.965,-2.9779,-2.9779,-2.9779,-2.9779,-2.9779,-2.9779,-2.9779,-2.9779,-2.9779,-2.9779,-2.9869,-3.019,-3.0406,-3.0482,-3.0823,-3.1211,-3.1596,-3.2082,-3.2453,-3.2704,-3.3051,-3.3452,-3.3813,-3.3985,-3.4108,-3.4346,-3.438,-3.438,-3.438,-3.438,-3.438,-3.438,-3.438,-3.438,-3.438,-3.438,-3.438,-3.438,-3.438,-3.438,-3.438,-3.438,-3.438,-3.438,-3.438,-3.438,-3.438,-3.438,-3.438,-3.438,-3.438,-3.438,-3.438,-3.438,-3.438,-3.438,-3.438,-3.438,-3.438,-3.438,-3.4346,-3.4312,-3.4278,-3.4176,-3.4108,-3.4059,-3.3835,-3.3542,-3.3183,-3.2734,-3.2105,-3.1311,-3.0688,-3.0782,-3.1016,-3.0496,-3.0153,-2.9853,-2.9362,-2.9035,-2.8803,-2.8803,-2.8664,-2.829,-2.8092,-2.7715,-2.7156,-2.6448,-2.6014,-2.5781,-2.5684,-2.5684,-2.5684,-2.5684,-2.5684,-2.5615,-2.5254,-2.4867,-2.469,-2.4501,-2.4179,-2.4138,-2.4818,-2.5327,-2.5622,-2.6218,-2.6869,-2.7389,-2.7736,-2.8122,-2.8538,-2.8907,-2.93,-2.9663,-2.9792,-2.9792,-2.9779,-2.9779,-2.9741,-2.9704,-2.9666,-2.9666,-2.9654,-2.9716,-2.9754,-2.9856,-3.019,-3.0368,-3.0558,-3.0936,-3.1347,-3.1633,-3.2105,-3.2489,-3.2704,-3.3086,-3.3452,-3.3813,-3.4157,-3.4312,-3.438,-3.438,-3.438,-3.438,-3.438,-3.438,-3.438,-3.438,-3.438,-3.438,-3.438,-3.438,-3.438,-3.438,-3.438,-3.438,-3.438,-3.438,-3.438,-3.438,-3.438,-3.438,-3.438,-3.438,-3.438,-3.438,-3.438,-3.438,-3.438,-3.438,-3.438,-3.438,-3.438,-3.438,-3.438,-3.438,-3.438,-3.4346,-3.4346,-3.4278,-3.4264,-3.4254,-3.4062,-3.3672,-3.3393,-3.3072,-3.2263,-3.1395,-2.9711,-2.9925,-2.9678,-2.9542,-2.9415,-2.9205,-2.8989,-2.885,-2.8803,-2.8664,-2.8395,-2.8092,-2.7678,-2.7071,-2.6496,-2.6197,-2.5965,-2.5781,-2.5684,-2.5684,-2.5684,-2.5684,-2.5586,-2.5283,-2.4984,-2.4782,-2.4581,-2.4429,-2.4448,-2.4818,-2.538,-2.5801,-2.6313,-2.691,-2.747,-2.7748,-2.8122,-2.851,-2.8907,-2.9326,-2.9663,-2.9779,-2.9779,-2.9779,-2.9779,-2.9628,-2.939,-2.9302,-2.9114,-2.895,-2.8837,-2.9013,-2.9277,-2.9656,-2.9997,-3.0444,-3.1099,-3.1485,-3.1669,-3.2214,-3.2525,-3.2739,-3.3086,-3.3466,-3.3848,-3.4191,-3.438,-3.438,-3.438,-3.438,-3.438,-3.438,-3.438,-3.438,-3.438,-3.438,-3.438,-3.438,-3.438,-3.438,-3.438,-3.438,-3.438,-3.438,-3.438,-3.438,-3.438,-3.438,-3.438,-3.438,-3.438,-3.438,-3.438,-3.438,-3.438,-3.438,-3.438,-3.438,-3.438,-3.438,-3.438,-3.438,-3.438,-3.438,-3.438,-3.438,-3.438,-3.4366,-3.4317,-3.423,-3.4114,-3.3835,-3.3541,-3.327,-3.2367,-2.8896,-2.9035,-2.9035,-2.9024,-2.9046,-2.9046,-2.8943,-2.8803,-2.8803,-2.8664,-2.843,-2.8139,-2.7584,-2.6996,-2.6602,-2.6304,-2.61,-2.583,-2.5732,-2.5684,-2.5684,-2.5684,-2.5596,-2.5321,-2.5068,-2.4874,-2.4816,-2.4723,-2.4836,-2.5168,-2.5633,-2.5979,-2.6467,-2.7003,-2.7493,-2.7829,-2.8122,-2.8697,-2.8973,-2.9339,-2.9702,-2.9779,-2.9779,-2.9779,-2.9729,-2.9515,-2.8988,-2.895,-2.8699,-2.8298,-2.8222,-2.8436,-2.8712,-2.9262,-2.969,-3.0224,-3.0928,-3.1522,-3.178,-3.2178,-3.2583,-3.2846,-3.3157,-3.364,-3.3848,-3.4191,-3.438,-3.438,-3.438,-3.438,-3.438,-3.438,-3.438,-3.438,-3.438,-3.438,-3.438,-3.438,-3.438,-3.438,-3.438,-3.438,-3.438,-3.438,-3.438,-3.438,-3.438,-3.438,-3.438,-3.438,-3.438,-3.438,-3.438,-3.438,-3.438,-3.438,-3.438,-3.438,-3.438,-3.438,-3.438,-3.438,-3.438,-3.438,-3.438,-3.438,-3.438,-3.438,-3.438,-3.4308,-3.4235,-3.4138,-3.392,-3.3692,-3.3079,-2.8803,-2.8803,-2.885,-2.885,-2.885,-2.885,-2.8803,-2.8803,-2.8803,-2.8757,-2.8617,-2.8233,-2.7584,-2.6986,-2.6651,-2.6352,-2.61,-2.583,-2.5732,-2.5684,-2.5684,-2.5732,-2.5634,-2.5512,-2.5255,-2.5103,-2.5039,-2.5072,-2.5264,-2.5549,-2.5915,-2.6196,-2.6674,-2.726,-2.7679,-2.7962,-2.8351,-2.8816,-2.9104,-2.9339,-2.9663,-2.9779,-2.9779,-2.9779,-2.9741,-2.9515,-2.8925,-2.875,-2.8461,-2.7934,-2.7858,-2.7971,-2.8233,-2.8805,-2.9269,-2.9839,-3.0609,-3.1228,-3.1666,-3.2228,-3.2632,-3.2917,-3.3297,-3.3793,-3.3896,-3.4176,-3.4346,-3.438,-3.438,-3.438,-3.438,-3.438,-3.438,-3.438,-3.438,-3.438,-3.438,-3.438,-3.438,-3.438,-3.438,-3.438,-3.438,-3.438,-3.438,-3.438,-3.438,-3.438,-3.438,-3.438,-3.438,-3.438,-3.438,-3.438,-3.438,-3.438,-3.438,-3.438,-3.438,-3.438,-3.438,-3.438,-3.438,-3.438,-3.438,-3.438,-3.438,-3.438,-3.438,-3.438,-3.4356,-3.4254,-3.4051,-3.3808,-3.3082,-2.8524,-2.8571,-2.871,-2.8803,-2.8803,-2.8803,-2.8803,-2.8803,-2.8803,-2.871,-2.8524,-2.8149,-2.7762,-2.7262,-2.6747,-2.6448,-2.6294,-2.5868,-2.5732,-2.5684,-2.5684,-2.5781,-2.5759,-2.5645,-2.5348,-2.5331,-2.5262,-2.5289,-2.5412,-2.5884,-2.6302,-2.6633,-2.6951,-2.7371,-2.7788,-2.8122,-2.859,-2.8946,-2.9143,-2.9339,-2.9702,-2.9779,-2.9779,-2.9779,-2.9365,-2.9001,-2.8424,-2.8072,-2.7645,-2.7293,-2.7168,-2.7331,-2.7605,-2.816,-2.8747,-2.9356,-3.0197,-3.0842,-3.1553,-3.2164,-3.2632,-3.3086,-3.3466,-3.3758,-3.3862,-3.4108,-3.4278,-3.4346,-3.438,-3.438,-3.438,-3.438,-3.438,-3.438,-3.438,-3.438,-3.438,-3.438,-3.438,-3.438,-3.438,-3.438,-3.438,-3.438,-3.438,-3.438,-3.438,-3.438,-3.438,-3.438,-3.438,-3.438,-3.438,-3.438,-3.438,-3.438,-3.438,-3.438,-3.438,-3.438,-3.438,-3.438,-3.438,-3.438,-3.438,-3.438,-3.438,-3.438,-3.438,-3.438,-3.438,-3.4385,-3.4153,-3.3925,-3.3267,-2.8301,-2.8395,-2.8617,-2.871,-2.8803,-2.8803,-2.8803,-2.8803,-2.8803,-2.8664,-2.8395,-2.8092,-2.7857,-2.7441,-2.6928,-2.6544,-2.64,-2.6072,-2.583,-2.5781,-2.583,-2.5917,-2.5902,-2.5724,-2.5502,-2.5486,-2.5329,-2.5295,-2.5644,-2.6124,-2.6539,-2.691,-2.7278,-2.7626,-2.7869,-2.8271,-2.8709,-2.9025,-2.9143,-2.9339,-2.9702,-2.9779,-2.9779,-2.9704,-2.9277,-2.8687,-2.8197,-2.772,-2.7178,-2.6801,-2.6625,-2.6738,-2.7047,-2.748,-2.8089,-2.8854,-2.9699,-3.0417,-3.1173,-3.2074,-3.2654,-3.3086,-3.3431,-3.3675,-3.3813,-3.3937,-3.4108,-3.421,-3.4278,-3.4312,-3.4346,-3.4346,-3.438,-3.438,-3.438,-3.438,-3.438,-3.438,-3.438,-3.438,-3.438,-3.438,-3.438,-3.438,-3.438,-3.438,-3.438,-3.438,-3.438,-3.438,-3.438,-3.438,-3.438,-3.438,-3.438,-3.438,-3.438,-3.438,-3.438,-3.438,-3.438,-3.438,-3.438,-3.438,-3.438,-3.438,-3.438,-3.438,-3.438,-3.438,-3.438,-3.438,-3.4356,-3.4095,-3.379,-2.8149,-2.8405,-2.8395,-2.8535,-2.8757,-2.8803,-2.8803,-2.8803,-2.8803,-2.8675,-2.843,-2.8139,-2.7904,-2.7536,-2.7071,-2.6699,-2.6458,-2.6207,-2.5965,-2.583,-2.5965,-2.6042,-2.5954,-2.5795,-2.563,-2.5744,-2.5567,-2.5529,-2.5895,-2.6343,-2.6787,-2.7196,-2.7574,-2.7881,-2.7962,-2.8283,-2.8709,-2.9025,-2.9104,-2.9378,-2.9702,-2.9779,-2.9779,-2.9654,-2.9114,-2.8474,-2.8109,-2.7431,-2.6939,-2.6587,-2.6499,-2.6562,-2.6659,-2.7189,-2.7682,-2.8062,-2.9166,-2.9923,-3.052,-3.1879,-3.2648,-3.3002,-3.3297,-3.3521,-3.364,-3.3779,-3.3917,-3.402,-3.4088,-3.4108,-3.4176,-3.4278,-3.4312,-3.4312,-3.4312,-3.4278,-3.4278,-3.4278,-3.4244,-3.4244,-3.4312,-3.438,-3.438,-3.438,-3.438,-3.438,-3.438,-3.438,-3.438,-3.438,-3.438,-3.438,-3.438,-3.438,-3.438,-3.438,-3.438,-3.438,-3.438,-3.438,-3.438,-3.438,-3.438,-3.438,-3.438,-3.438,-3.438,-3.438,-3.4312,-3.4278,-3.438,-3.438,-3.4351,-3.4279,-3.3955,-2.7584,-2.7689,-2.8008,-2.829,-2.8524,-2.871,-2.8803,-2.8803,-2.8803,-2.8757,-2.8571,-2.8233,-2.7987,-2.7715,-2.7214,-2.6747,-2.6496,-2.6197,-2.6014,-2.6004,-2.6081,-2.6122,-2.6037,-2.5906,-2.5751,-2.5721,-2.5626,-2.5748,-2.6082,-2.6592,-2.7003,-2.7412,-2.7857,-2.8151,-2.8283,-2.8471,-2.8697,-2.9025,-2.9143,-2.9339,-2.974,-2.9779,-2.9767,-2.9729,-2.8888,-2.8323,-2.8021,-2.7304,-2.6738,-2.6524,-2.6487,-2.6487,-2.6487,-2.6905,-2.7161,-2.7678,-2.8674,-2.971,-3.0705,-3.1919,-3.2467,-3.2753,-3.3023,-3.3262,-3.3382,-3.357,-3.3709,-3.3848,-3.3917,-3.3951,-3.3985,-3.402,-3.4054,-3.4054,-3.402,-3.4054,-3.402,-3.4054,-3.402,-3.402,-3.4054,-3.4122,-3.4122,-3.4176,-3.421,-3.4244,-3.4278,-3.438,-3.438,-3.438,-3.438,-3.438,-3.438,-3.438,-3.438,-3.4312,-3.4312,-3.4312,-3.4346,-3.438,-3.438,-3.4346,-3.4346,-3.4312,-3.4346,-3.438,-3.4312,-3.4244,-3.4157,-3.4122,-3.421,-3.4244,-3.4196,-3.4162,-3.4056,-2.7119,-2.7309,-2.7631,-2.7951,-2.829,-2.8571,-2.871,-2.8803,-2.8803,-2.8803,-2.871,-2.8222,-2.7987,-2.7799,-2.7347,-2.689,-2.664,-2.6448,-2.6255,-2.6274,-2.6152,-2.6236,-2.6161,-2.5978,-2.5933,-2.5871,-2.5914,-2.6063,-2.6456,-2.6839,-2.729,-2.7725,-2.8087,-2.8299,-2.8471,-2.855,-2.8697,-2.8986,-2.9143,-2.9326,-2.9663,-2.9754,-2.9666,-2.9277,-2.8674,-2.8021,-2.7632,-2.7102,-2.6487,-2.6487,-2.6487,-2.6487,-2.6487,-2.6571,-2.6779,-2.7357,-2.8354,-2.9554,-3.0856,-3.1505,-3.1973,-3.2264,-3.2632,-3.2917,-3.3072,-3.3262,-3.3417,-3.3556,-3.3709,-3.3779,-3.3779,-3.3779,-3.3848,-3.3813,-3.3848,-3.3848,-3.3848,-3.3848,-3.3848,-3.3848,-3.3848,-3.3848,-3.3882,-3.3985,-3.4054,-3.4074,-3.4142,-3.4244,-3.4346,-3.4346,-3.4346,-3.4346,-3.4312,-3.4264,-3.4244,-3.4191,-3.4191,-3.421,-3.4244,-3.4278,-3.421,-3.4108,-3.4176,-3.4259,-3.4191,-3.4157,-3.4176,-3.4108,-3.3985,-3.3985,-3.4088,-3.4074,-3.404,-3.4005,-3.3971,-2.6774,-2.7214,-2.7251,-2.7536,-2.7951,-2.8254,-2.8535,-2.8803,-2.8803,-2.8803,-2.8757,-2.8233,-2.7987,-2.7857,-2.7489,-2.7119,-2.689,-2.6794,-2.6638,-2.6441,-2.6236,-2.633,-2.615,-2.5926,-2.5987,-2.6184,-2.6295,-2.6354,-2.6839,-2.7179,-2.7615,-2.8059,-2.8299,-2.8471,-2.851,-2.859,-2.8776,-2.9013,-2.9143,-2.9378,-2.9702,-2.9779,-2.9515,-2.9063,-2.8461,-2.7883,-2.7406,-2.6851,-2.6562,-2.6487,-2.6487,-2.6487,-2.6487,-2.6487,-2.6589,-2.7103,-2.827,-2.9455,-3.0583,-3.104,-3.1384,-3.1716,-3.2214,-3.2525,-3.2739,-3.2895,-3.3072,-3.3178,-3.3297,-3.3417,-3.3536,-3.3605,-3.3709,-3.3709,-3.3695,-3.3695,-3.3709,-3.3709,-3.3695,-3.3695,-3.3695,-3.3695,-3.3709,-3.3779,-3.3833,-3.3917,-3.3985,-3.4074,-3.4176,-3.4244,-3.4244,-3.4244,-3.4176,-3.4094,-3.4074,-3.4054,-3.4054,-3.4054,-3.402,-3.402,-3.3951,-3.3951,-3.402,-3.4054,-3.3951,-3.3917,-3.3917,-3.3917,-3.3848,-3.3848,-3.3764,-3.3848,-3.3799,-3.3848,-3.3862,-2.5984,-2.6177,-2.6582,-2.7023,-2.7536,-2.7951,-2.8279,-2.8535,-2.871,-2.871,-2.8477,-2.8139,-2.7904,-2.7678,-2.7404,-2.7129,-2.6986,-2.6839,-2.6598,-2.6394,-2.6196,-2.6053,-2.5899,-2.58,-2.5937,-2.6137,-2.6307,-2.652,-2.6933,-2.7383,-2.7788,-2.8179,-2.8391,-2.8471,-2.855,-2.8618,-2.8855,-2.9052,-2.9104,-2.9417,-2.9663,-2.9779,-2.9402,-2.8888,-2.8373,-2.7821,-2.7266,-2.6776,-2.6524,-2.6487,-2.6487,-2.6487,-2.6487,-2.6512,-2.6656,-2.7348,-2.8199,-2.901,-2.9875,-3.0677,-3.1099,-3.1211,-3.1643,-3.2023,-3.2314,-3.2538,-3.2739,-3.2824,-3.286,-3.2966,-3.3037,-3.3143,-3.3227,-3.3262,-3.3248,-3.3248,-3.3262,-3.3248,-3.3248,-3.3283,-3.3297,-3.3368,-3.3368,-3.3521,-3.3556,-3.3675,-3.3779,-3.3848,-3.3985,-3.404,-3.4122,-3.4122,-3.404,-3.3937,-3.3937,-3.3917,-3.3917,-3.3931,-3.3813,-3.3779,-3.3779,-3.3779,-3.3848,-3.3813,-3.3675,-3.3675,-3.3675,-3.364,-3.3521,-3.3333,-3.3248,-3.3437,-3.357,-3.357,-3.3536,-2.5509,-2.5742,-2.6042,-2.6486,-2.7013,-2.7384,-2.7715,-2.8019,-2.8326,-2.8384,-2.8196,-2.7961,-2.7762,-2.7584,-2.7404,-2.7214,-2.7071,-2.6835,-2.664,-2.6408,-2.6018,-2.5851,-2.5756,-2.57,-2.5861,-2.6118,-2.6479,-2.6727,-2.7097,-2.7557,-2.8002,-2.8311,-2.8471,-2.8471,-2.855,-2.8697,-2.8882,-2.9052,-2.9221,-2.9456,-2.965,-2.9741,-2.9315,-2.8712,-2.8222,-2.7745,-2.709,-2.6612,-2.6524,-2.6487,-2.6487,-2.6487,-2.6487,-2.6512,-2.6751,-2.7417,-2.8081,-2.8738,-2.9461,-3.0275,-3.0632,-3.0874,-3.1136,-3.1434,-3.1753,-3.2032,-3.2214,-3.2372,-3.2431,-3.2489,-3.2547,-3.2583,-3.2654,-3.2704,-3.2725,-3.2725,-3.2725,-3.2725,-3.2725,-3.2775,-3.281,-3.2881,-3.3002,-3.3157,-3.3227,-3.3227,-3.3227,-3.3262,-3.3507,-3.3764,-3.3917,-3.3985,-3.3882,-3.3779,-3.3744,-3.3675,-3.3591,-3.3521,-3.3437,-3.3403,-3.3486,-3.3417,-3.3333,-3.3333,-3.3382,-3.3333,-3.3262,-3.3227,-3.3108,-3.2952,-3.281,-3.2931,-3.3037,-3.3072,-3.3037,-2.5052,-2.546,-2.5605,-2.5826,-2.6338,-2.6601,-2.6886,-2.7158,-2.7479,-2.7829,-2.7872,-2.7726,-2.7584,-2.7489,-2.7357,-2.7237,-2.7008,-2.676,-2.647,-2.6444,-2.5681,-2.5451,-2.5548,-2.5477,-2.5814,-2.6293,-2.6685,-2.685,-2.7272,-2.769,-2.8082,-2.8471,-2.851,-2.851,-2.855,-2.8776,-2.8961,-2.9091,-2.9326,-2.956,-2.9702,-2.9654,-2.9289,-2.836,-2.7984,-2.7657,-2.6839,-2.6487,-2.6487,-2.6487,-2.6487,-2.6487,-2.6487,-2.6499,-2.6813,-2.7175,-2.7774,-2.8353,-2.9008,-2.9755,-3.0189,-3.0469,-3.071,-3.0936,-3.1198,-3.1656,-3.1913,-3.1986,-3.2046,-3.2105,-3.2178,-3.2178,-3.225,-3.2286,-3.2322,-3.2322,-3.2322,-3.2322,-3.2322,-3.2359,-3.2395,-3.2467,-3.2538,-3.2696,-3.286,-3.2775,-3.281,-3.286,-3.2966,-3.3368,-3.3486,-3.364,-3.3521,-3.3382,-3.3382,-3.3297,-3.3192,-3.3108,-3.3037,-3.3037,-3.3072,-3.2917,-3.2725,-3.2846,-3.3002,-3.286,-3.2775,-3.2739,-3.2717,-3.261,-3.2489,-3.2489,-3.2525,-3.2525,-3.2574,-2.373,-2.3919,-2.4549,-2.4876,-2.5026,-2.5444,-2.5639,-2.5721,-2.5813,-2.6574,-2.7526,-2.761,-2.7458,-2.7243,-2.7185,-2.7061,-2.676,-2.6465,-2.6134,-2.5792,-2.522,-2.5203,-2.537,-2.5338,-2.5748,-2.6313,-2.6727,-2.7015,-2.7557,-2.7881,-2.8082,-2.8471,-2.851,-2.851,-2.855,-2.8803,-2.9052,-2.917,-2.9468,-2.965,-2.974,-2.9641,-2.9289,-2.8473,-2.7984,-2.7482,-2.6839,-2.6487,-2.6487,-2.6487,-2.6487,-2.6487,-2.6487,-2.6487,-2.6549,-2.6763,-2.7337,-2.7879,-2.8432,-2.9112,-2.9681,-3.0088,-3.0343,-3.047,-3.0785,-3.1323,-3.1633,-3.1633,-3.1669,-3.173,-3.1767,-3.1767,-3.1803,-3.184,-3.1913,-3.1913,-3.1913,-3.1913,-3.1927,-3.1986,-3.2059,-3.2082,-3.2155,-3.2264,-3.2417,-3.2561,-3.2668,-3.2704,-3.2668,-3.286,-3.2824,-3.2945,-3.2966,-3.2895,-3.2966,-3.2945,-3.286,-3.2789,-3.2753,-3.2704,-3.2668,-3.2561,-3.2417,-3.2561,-3.2632,-3.2453,-3.2359,-3.2309,-3.2273,-3.2178,-3.2155,-3.2119,-3.1936,-3.1913,-3.1986,-2.3214,-2.3392,-2.3914,-2.4156,-2.4202,-2.4434,-2.4664,-2.4858,-2.4904,-2.5486,-2.647,-2.6662,-2.6672,-2.6579,-2.6605,-2.6599,-2.6248,-2.6041,-2.572,-2.5282,-2.5039,-2.508,-2.5105,-2.5242,-2.5832,-2.6385,-2.6809,-2.7219,-2.78,-2.7921,-2.8082,-2.8431,-2.851,-2.855,-2.8657,-2.8934,-2.917,-2.9236,-2.9624,-2.974,-2.9716,-2.9478,-2.9038,-2.8298,-2.777,-2.7256,-2.6864,-2.6487,-2.6487,-2.6487,-2.6487,-2.6487,-2.6487,-2.6487,-2.6487,-2.6663,-2.7027,-2.7454,-2.7907,-2.8472,-2.9176,-2.9593,-3.0088,-3.0254,-3.033,-3.0798,-3.0949,-3.0973,-3.0973,-3.1011,-3.1136,-3.1174,-3.1286,-3.136,-3.1397,-3.1421,-3.1495,-3.1569,-3.1619,-3.1743,-3.178,-3.1817,-3.1853,-3.1877,-3.1973,-3.2009,-3.2191,-3.225,-3.225,-3.2359,-3.2322,-3.2322,-3.2431,-3.2632,-3.2775,-3.2717,-3.2574,-3.2503,-3.2431,-3.2264,-3.2155,-3.2155,-3.2191,-3.2178,-3.2141,-3.2059,-3.1986,-3.1886,-3.19,-3.1853,-3.178,-3.1706,-3.1535,-3.1336,-3.1334,-2.2852,-2.315,-2.3363,-2.3465,-2.3521,-2.3548,-2.3769,-2.4147,-2.4258,-2.4477,-2.4917,-2.5209,-2.5375,-2.5589,-2.5725,-2.5754,-2.5706,-2.5496,-2.5217,-2.4983,-2.4693,-2.488,-2.5083,-2.5285,-2.5874,-2.6467,-2.6933,-2.7383,-2.7881,-2.7921,-2.8082,-2.8431,-2.855,-2.8578,-2.8803,-2.9,-2.9157,-2.9353,-2.9599,-2.9678,-2.9503,-2.9151,-2.8637,-2.8134,-2.757,-2.7065,-2.6675,-2.6487,-2.6487,-2.6487,-2.6487,-2.6487,-2.6487,-2.6487,-2.6487,-2.6612,-2.6826,-2.7165,-2.7482,-2.8072,-2.8574,-2.9051,-2.9631,-2.9973,-3.0024,-3.019,-3.033,-3.0368,-3.0368,-3.0482,-3.0609,-3.0736,-3.0798,-3.0874,-3.0949,-3.0986,-3.1086,-3.1161,-3.1286,-3.141,-3.141,-3.1447,-3.1447,-3.1447,-3.1485,-3.1485,-3.1559,-3.1572,-3.1669,-3.184,-3.1913,-3.1973,-3.2119,-3.2286,-3.2453,-3.2395,-3.2178,-3.2119,-3.2023,-3.1817,-3.1706,-3.1767,-3.1767,-3.1656,-3.1596,-3.1522,-3.1447,-3.136,-3.141,-3.1461,-3.1299,-3.1174,-3.1061,-3.0885,-3.067,-2.1961,-2.2006,-2.2275,-2.2429,-2.2438,-2.2608,-2.2723,-2.2856,-2.3063,-2.3177,-2.3467,-2.3806,-2.4311,-2.527,-2.5326,-2.5244,-2.5071,-2.4907,-2.4813,-2.4578,-2.4559,-2.4807,-2.5168,-2.5411,-2.5832,-2.6426,-2.7015,-2.7476,-2.7841,-2.7921,-2.8111,-2.8471,-2.851,-2.8618,-2.8803,-2.9,-2.9209,-2.9431,-2.9513,-2.9566,-2.9126,-2.8838,-2.8637,-2.8122,-2.757,-2.7052,-2.665,-2.6499,-2.6487,-2.6487,-2.6487,-2.6487,-2.6487,-2.6487,-2.6487,-2.6499,-2.6713,-2.6901,-2.7256,-2.7595,-2.8021,-2.8674,-2.9177,-2.9441,-2.9618,-2.987,-2.9998,-3.0049,-3.0126,-3.0305,-3.0457,-3.0457,-3.0495,-3.0495,-3.052,-3.0558,-3.0596,-3.0634,-3.0672,-3.0761,-3.0761,-3.0748,-3.0785,-3.0861,-3.1024,-3.1061,-3.1211,-3.1286,-3.1373,-3.1447,-3.1522,-3.1582,-3.1693,-3.1743,-3.1767,-3.1863,-3.1767,-3.1743,-3.1633,-3.1447,-3.136,-3.1434,-3.1397,-3.1248,-3.1075,-3.0962,-3.0887,-3.0949,-3.0836,-3.0836,-3.0685,-3.0558,-3.0495,-3.0366,-3.011]}]]